[[{"header":{"parameterUnit":"m.s-1","parameterCategory":1,"la1":31.0,"la2":29.5877,"lo1":-88.7671,"lo2":-86.6584,"dy":0.0162,"dx":0.0185,"nx":115,"ny":88,"refTime":"2025-06-16T18:00:00:Z","depth":0,"parameterNumber":2,"parameterNumberName":"U-component_of_WINDS"},"data":[0.0,0.0,0.0,0.0,0.0,0.0,0.0,0.0,0.0,0.0,0.0,0.0,0.0,0.0,0.0,0.0,0.0,0.0,0.0,0.0,0.0,0.0,0.0,0.0,0.0,0.0,0.0,0.0,0.0,0.0,0.0,0.0,0.0,0.0,0.0,0.0,0.0,0.0,0.0,0.0,0.0,0.0,0.0,0.0,0.0,0.0,0.0,0.0,0.0,0.0,0.0,0.0,0.0,0.0,0.0,0.0,0.0,0.0,0.0,0.0,0.0,0.0,0.0,0.0,0.0,0.0,0.0,0.0,0.0,0.0,0.0,0.0,0.0,0.0,0.0,0.0,0.0,0.0,0.0,0.0,0.0,0.0,0.0,0.0,0.0,0.0,0.0,0.0,0.0,0.0,0.0,0.0,0.0,0.0,0.0,0.0,0.0,0.0,0.0,0.0,0.0,0.0,0.0,0.0,0.0,0.0,0.0,0.0,0.0,0.0,0.0,0.0,0.0,0.0,0.0,0.0,0.0,0.0,0.0,0.0,0.0,0.0,0.0,0.0,0.0,0.0,0.0,0.0,0.0,0.0,0.0,0.0,0.0,0.0,0.0,0.0,0.0,0.0,0.0,0.0,0.0,0.0,0.0,0.0,0.0,0.0,0.0,0.0,0.0,0.0,0.0,0.0,0.0,0.0,0.0,0.0,0.0,0.0,0.0,0.0,0.0,0.0,0.0,0.0,0.0,0.0,0.0,0.0,0.0,0.0,0.0,0.0,0.0,0.0,0.0,0.0,0.0,0.0,0.0,0.0,0.0,0.0,0.0,0.0,0.0,0.0,0.0,0.0,0.0,0.0,0.0,0.0,0.0,0.0,0.0,0.0,0.0,0.0,0.0,0.0,0.0,0.0,0.0,0.0,0.0,0.0,0.0,0.0,0.0,0.0,0.0,0.0,0.0,0.0,0.0,0.0,0.0,0.0,0.0,0.0,0.0,0.0,0.0,0.0,0.0,0.0,0.0,0.0,0.0,0.0,0.0,0.0,0.0,0.0,0.0,0.0,0.0,0.0,0.0,0.0,0.0,0.0,0.0,0.0,0.0,0.0,0.0,0.0,0.0,0.0,0.0,0.0,0.0,0.0,0.0,0.0,0.0,0.0,0.0,0.0,0.0,0.0,0.0,0.0,0.0,0.0,0.0,0.0,0.0,0.0,0.0,0.0,0.0,0.0,0.0,0.0,0.0,0.0,0.0,0.0,0.0,0.0,0.0,0.0,0.0,0.0,0.0,0.0,0.0,0.0,0.0,0.0,0.0,0.0,0.0,0.0,0.0,0.0,0.0,0.0,0.0,0.0,0.0,0.0,0.0,0.0,0.0,0.0,0.0,0.0,0.0,0.0,0.0,0.0,0.0,0.0,0.0,0.0,0.0,0.0,0.0,0.0,0.0,0.0,0.0,0.0,0.0,0.0,0.0,0.0,0.0,0.0,0.0,0.0,0.0,0.0,0.0,0.0,0.0,0.0,0.0,0.0,0.0,0.0,0.0,0.0,0.0,0.0,0.0,0.0,0.0,0.0,0.0,0.0,0.0,0.0,0.0,0.0,0.0,0.0,0.0,0.0,0.0,0.0,0.0,0.0,0.0,0.0,0.0,0.0,0.0,0.0,0.0,0.0,0.0,0.0,0.0,0.0,0.0,0.0,0.0,0.0,0.0,0.0,0.0,0.0,0.0,0.0,0.0,0.0,0.0,0.0,0.0,0.0,0.0,0.0,0.0,0.0,0.0,0.0,0.0,0.0,0.0,0.0,0.0,0.0,0.0,0.0,0.0,0.0,0.0,0.0,0.0,0.0,0.0,0.0,0.0,0.0,0.0,0.0,0.0,0.0,0.0,0.0,0.0,0.0,0.0,0.0,0.0,0.0,0.0,0.0,0.0,0.0,0.0,0.0,0.0,0.0,0.0,0.0,0.0,0.0,0.0,0.0,0.0,0.0,0.0,0.0,0.0,0.0,0.0,0.0,0.0,0.0,0.0,0.0,0.0,0.0,0.0,0.0,0.0,0.0,0.0,0.0,0.0,0.0,0.0,0.0,0.0,0.0,0.0,0.0,0.0,0.0,0.0,0.0,0.0,0.0,0.0,0.0,0.0,0.0,0.0,0.0,0.0,0.0,0.0,0.0,0.0,0.0,0.0,0.0,0.0,0.0,0.0,0.0,0.0,0.0,0.0,0.0,0.0,0.0,0.0,0.0,0.0,0.0,0.0,0.0,0.0,0.0,0.0,0.0,0.0,0.0,0.0,0.0,0.0,0.0,0.0,0.0,0.0,0.0,0.0,0.0,0.0,0.0,0.0,0.0,0.0,0.0,0.0,0.0,0.0,0.0,0.0,0.0,0.0,0.0,0.0,0.0,0.0,0.0,0.0,0.0,0.0,0.0,0.0,0.0,0.0,0.0,0.0,0.0,0.0,0.0,0.0,0.0,0.0,0.0,0.0,0.0,0.0,0.0,0.0,0.0,0.0,0.0,0.0,0.0,0.0,0.0,0.0,0.0,0.0,0.0,0.0,0.0,0.0,0.0,0.0,0.0,0.0,0.0,0.0,0.0,0.0,0.0,0.0,0.0,0.0,0.0,0.0,0.0,0.0,0.0,0.0,0.0,0.0,0.0,0.0,0.0,0.0,0.0,0.0,0.0,0.0,0.0,0.0,0.0,0.0,0.0,0.0,0.0,0.0,0.0,0.0,0.0,0.0,0.0,0.0,0.0,0.0,0.0,0.0,0.0,0.0,0.0,0.0,0.0,0.0,0.0,0.0,0.0,0.0,0.0,0.0,0.0,0.0,0.0,0.0,0.0,0.0,0.0,0.0,0.0,0.0,0.0,0.0,0.0,0.0,0.0,0.0,0.0,0.0,0.0,0.0,0.0,0.0,0.0,0.0,0.0,0.0,0.0,0.0,0.0,0.0,0.0,0.0,0.0,0.0,0.0,0.0,0.0,0.0,0.0,0.0,0.0,0.0,0.0,0.0,0.0,0.0,0.0,0.0,0.0,0.0,0.0,0.0,0.0,0.0,0.0,0.0,0.0,0.0,0.0,0.0,0.0,0.0,0.0,0.0,0.0,0.0,0.0,0.0,0.0,0.0,0.0,0.0,0.0,0.0,0.0,0.0,0.0,0.0,0.0,0.0,0.0,0.0,0.0,0.0,0.0,0.0,0.0,0.0,0.0,0.0,0.0,0.0,0.0,0.0,0.0,0.0,0.0,0.0,0.0,0.0,0.0,0.0,0.0,0.0,0.0,0.0,0.0,0.0,0.0,0.0,0.0,0.0,0.0,0.0,0.0,0.0,0.0,0.0,0.0,0.0,0.0,0.0,0.0,0.0,0.0,0.0,0.0,0.0,0.0,0.0,0.0,0.0,0.0,0.0,0.0,0.0,0.0,0.0,0.0,0.0,0.0,0.0,0.0,0.0,0.0,0.0,0.0,0.0,0.0,0.0,0.0,0.0,0.0,0.0,0.0,0.0,0.0,0.0,0.0,0.0,0.0,0.0,0.0,0.0,0.0,0.0,0.0,0.0,0.0,0.0,0.0,0.0,0.0,0.0,0.0,0.0,0.0,0.0,0.0,0.0,0.0,0.0,0.0,0.0,0.0,0.0,0.0,0.0,0.0,0.0,0.0,0.0,0.0,0.0,0.0,0.0,0.0,0.0,0.0,0.0,0.0,0.0,0.0,0.0,0.0,0.0,0.0,0.0,0.0,0.0,0.0,0.0,0.0,0.0,0.0,0.0,0.0,0.0,0.0,0.0,0.0,0.0,0.0,0.0,0.0,0.0,0.0,0.0,0.0,0.0,0.0,0.0,0.0,0.0,0.0,0.0,0.0,0.0,0.0,0.0,0.0,0.0,0.0,0.0,0.0,0.0,0.0,0.0,0.0,0.0,0.0,0.0,0.0,0.0,0.0,0.0,0.0,0.0,0.0,0.0,0.0,0.0,0.0,0.0,0.0,0.0,0.0,0.0,0.0,0.0,0.0,0.0,0.0,0.0,0.0,0.0,0.0,0.0,0.0,0.0,0.0,0.0,0.0,0.0,0.0,0.0,0.0,0.0,0.0,0.0,0.0,0.0,0.0,0.0,0.0,0.0,0.0,0.0,0.0,0.0,0.0,0.0,0.0,0.0,0.0,0.0,0.0,0.0,0.0,0.0,0.0,0.0,0.0,0.0,0.0,0.0,0.0,0.0,0.0,0.0,0.0,0.0,0.0,0.0,0.0,0.0,0.0,0.0,0.0,0.0,0.0,-2.5816,0.0,0.0,0.0,0.0,0.0,0.0,0.0,0.0,0.0,0.0,0.0,0.0,0.0,0.0,0.0,0.0,0.0,0.0,0.0,0.0,0.0,0.0,0.0,0.0,0.0,0.0,0.0,0.0,0.0,0.0,0.0,0.0,0.0,0.0,0.0,0.0,0.0,0.0,0.0,0.0,0.0,0.0,0.0,0.0,0.0,0.0,0.0,0.0,0.0,0.0,0.0,0.0,0.0,0.0,0.0,0.0,0.0,0.0,0.0,0.0,0.0,0.0,0.0,0.0,0.0,0.0,0.0,0.0,0.0,0.0,0.0,0.0,0.0,0.0,0.0,0.0,0.0,0.0,0.0,0.0,0.0,0.0,0.0,0.0,0.0,0.0,0.0,0.0,0.0,0.0,0.0,0.0,0.0,0.0,0.0,0.0,0.0,0.0,0.0,0.0,0.0,0.0,0.0,0.0,0.0,0.0,0.0,0.0,0.0,0.0,-3.0715,-3.0715,-2.9961,-2.9083,-2.7982,0.0,0.0,0.0,0.0,0.0,0.0,0.0,0.0,0.0,0.0,0.0,0.0,0.0,0.0,0.0,0.0,0.0,0.0,0.0,0.0,0.0,0.0,0.0,0.0,0.0,0.0,0.0,0.0,0.0,0.0,0.0,0.0,0.0,0.0,0.0,0.0,0.0,0.0,0.0,0.0,0.0,0.0,0.0,0.0,0.0,0.0,0.0,0.0,0.0,0.0,0.0,0.0,0.0,0.0,0.0,0.0,0.0,0.0,0.0,0.0,0.0,0.0,0.0,0.0,0.0,0.0,0.0,0.0,0.0,0.0,0.0,0.0,0.0,0.0,0.0,0.0,0.0,0.0,0.0,0.0,0.0,0.0,0.0,0.0,0.0,0.0,0.0,0.0,0.0,0.0,0.0,0.0,0.0,0.0,0.0,0.0,0.0,0.0,0.0,0.0,0.0,0.0,0.0,0.0,0.0,0.0,0.0,0.0,0.0,0.0,0.0,0.0,-3.1365,-3.0385,-2.9475,0.0,0.0,0.0,0.0,0.0,0.0,0.0,0.0,0.0,0.0,0.0,0.0,0.0,0.0,0.0,0.0,0.0,0.0,0.0,0.0,0.0,0.0,0.0,0.0,0.0,0.0,0.0,0.0,0.0,0.0,0.0,0.0,0.0,0.0,0.0,0.0,0.0,0.0,0.0,0.0,0.0,0.0,0.0,0.0,0.0,0.0,0.0,0.0,0.0,0.0,0.0,0.0,0.0,0.0,0.0,0.0,0.0,0.0,0.0,0.0,0.0,0.0,0.0,0.0,0.0,0.0,0.0,0.0,0.0,0.0,0.0,0.0,0.0,0.0,0.0,0.0,0.0,0.0,0.0,0.0,0.0,0.0,0.0,0.0,0.0,0.0,0.0,0.0,0.0,0.0,0.0,0.0,0.0,0.0,0.0,0.0,0.0,0.0,0.0,0.0,0.0,0.0,0.0,0.0,0.0,0.0,0.0,0.0,0.0,0.0,-3.3644,-3.3644,-3.3495,0.0,-2.9135,0.0,0.0,0.0,0.0,0.0,0.0,0.0,0.0,0.0,0.0,0.0,0.0,0.0,0.0,0.0,0.0,0.0,0.0,0.0,0.0,0.0,0.0,0.0,0.0,0.0,0.0,0.0,0.0,0.0,0.0,0.0,0.0,0.0,0.0,0.0,0.0,0.0,0.0,0.0,0.0,0.0,0.0,0.0,0.0,0.0,0.0,0.0,0.0,0.0,0.0,0.0,0.0,0.0,0.0,0.0,0.0,0.0,0.0,0.0,0.0,0.0,0.0,0.0,0.0,0.0,0.0,0.0,0.0,0.0,0.0,0.0,0.0,0.0,0.0,0.0,0.0,0.0,0.0,0.0,0.0,0.0,0.0,0.0,0.0,0.0,0.0,0.0,0.0,0.0,0.0,0.0,0.0,0.0,0.0,0.0,0.0,0.0,0.0,0.0,0.0,0.0,0.0,0.0,0.0,0.0,0.0,0.0,0.0,0.0,0.0,-3.4874,-3.4857,-3.3885,-3.2054,0.0,0.0,0.0,0.0,0.0,0.0,0.0,0.0,0.0,0.0,0.0,0.0,0.0,0.0,0.0,0.0,0.0,0.0,0.0,0.0,0.0,0.0,0.0,0.0,0.0,0.0,0.0,0.0,0.0,0.0,0.0,0.0,0.0,0.0,0.0,0.0,0.0,0.0,0.0,0.0,0.0,0.0,0.0,0.0,0.0,0.0,0.0,0.0,0.0,0.0,0.0,0.0,0.0,0.0,0.0,0.0,0.0,0.0,0.0,0.0,0.0,0.0,0.0,0.0,0.0,0.0,0.0,0.0,0.0,0.0,0.0,0.0,0.0,0.0,0.0,0.0,0.0,0.0,0.0,0.0,0.0,0.0,0.0,0.0,0.0,0.0,0.0,0.0,0.0,0.0,0.0,0.0,0.0,0.0,0.0,0.0,0.0,0.0,0.0,0.0,0.0,0.0,0.0,0.0,0.0,0.0,0.0,0.0,0.0,0.0,-3.5462,0.0,-3.5644,-3.4059,-3.2114,-2.9865,0.0,0.0,0.0,0.0,0.0,0.0,0.0,0.0,0.0,0.0,0.0,0.0,0.0,0.0,0.0,0.0,0.0,0.0,0.0,0.0,0.0,0.0,0.0,0.0,0.0,0.0,0.0,0.0,0.0,0.0,0.0,0.0,0.0,0.0,0.0,0.0,0.0,0.0,0.0,0.0,0.0,0.0,0.0,0.0,0.0,0.0,0.0,0.0,0.0,0.0,0.0,0.0,0.0,0.0,0.0,0.0,0.0,0.0,0.0,0.0,0.0,0.0,0.0,0.0,0.0,0.0,0.0,0.0,0.0,0.0,0.0,0.0,0.0,0.0,0.0,0.0,0.0,0.0,0.0,0.0,0.0,0.0,0.0,0.0,0.0,0.0,0.0,0.0,0.0,0.0,0.0,0.0,0.0,0.0,0.0,0.0,0.0,0.0,0.0,0.0,0.0,0.0,0.0,0.0,0.0,0.0,0.0,0.0,0.0,-3.5958,-3.5975,-3.5941,-3.4317,-3.2645,0.0,0.0,0.0,0.0,0.0,0.0,0.0,0.0,0.0,0.0,0.0,0.0,0.0,0.0,0.0,0.0,0.0,0.0,0.0,0.0,0.0,0.0,0.0,0.0,0.0,0.0,0.0,0.0,0.0,0.0,0.0,0.0,0.0,0.0,0.0,0.0,0.0,0.0,0.0,0.0,0.0,0.0,0.0,0.0,0.0,0.0,0.0,0.0,0.0,0.0,0.0,0.0,0.0,0.0,0.0,0.0,0.0,0.0,0.0,0.0,0.0,0.0,0.0,0.0,0.0,0.0,0.0,0.0,0.0,0.0,0.0,0.0,0.0,0.0,0.0,0.0,0.0,0.0,0.0,0.0,0.0,0.0,0.0,0.0,0.0,0.0,0.0,0.0,0.0,0.0,0.0,0.0,0.0,0.0,0.0,0.0,0.0,0.0,0.0,0.0,0.0,0.0,0.0,0.0,0.0,0.0,0.0,0.0,0.0,-3.6371,-3.6457,-3.6377,-3.6143,-3.4672,-3.3,0.0,0.0,0.0,0.0,0.0,0.0,0.0,0.0,0.0,0.0,0.0,0.0,0.0,0.0,0.0,0.0,0.0,0.0,0.0,0.0,0.0,0.0,0.0,0.0,0.0,0.0,0.0,0.0,0.0,0.0,0.0,0.0,0.0,0.0,0.0,0.0,0.0,0.0,0.0,0.0,0.0,0.0,0.0,0.0,0.0,0.0,0.0,0.0,0.0,0.0,0.0,0.0,0.0,0.0,0.0,0.0,0.0,0.0,0.0,0.0,0.0,0.0,0.0,0.0,0.0,0.0,0.0,0.0,0.0,0.0,0.0,0.0,0.0,0.0,0.0,0.0,0.0,0.0,0.0,0.0,0.0,0.0,0.0,0.0,0.0,0.0,0.0,0.0,0.0,0.0,0.0,0.0,0.0,0.0,0.0,0.0,0.0,0.0,0.0,0.0,0.0,0.0,0.0,0.0,0.0,0.0,0.0,0.0,0.0,-3.7082,0.0,-3.697,0.0,-3.5275,-3.3576,0.0,0.0,0.0,0.0,0.0,0.0,0.0,0.0,0.0,0.0,0.0,0.0,0.0,0.0,0.0,0.0,0.0,0.0,0.0,0.0,0.0,0.0,0.0,0.0,0.0,0.0,0.0,0.0,0.0,0.0,0.0,0.0,0.0,0.0,0.0,0.0,0.0,0.0,0.0,0.0,0.0,0.0,0.0,0.0,0.0,0.0,0.0,0.0,0.0,0.0,0.0,0.0,0.0,0.0,0.0,0.0,0.0,0.0,0.0,0.0,0.0,0.0,0.0,0.0,0.0,0.0,0.0,0.0,0.0,0.0,0.0,0.0,0.0,0.0,0.0,0.0,0.0,0.0,0.0,0.0,0.0,0.0,0.0,0.0,0.0,0.0,0.0,0.0,0.0,0.0,0.0,0.0,0.0,0.0,0.0,0.0,0.0,0.0,0.0,0.0,0.0,0.0,0.0,0.0,0.0,0.0,0.0,0.0,-3.6505,-3.8006,-3.7874,-3.7739,-3.7749,-3.609,-3.4364,0.0,0.0,0.0,0.0,0.0,0.0,0.0,0.0,0.0,0.0,0.0,0.0,0.0,0.0,0.0,0.0,0.0,0.0,0.0,0.0,0.0,0.0,0.0,0.0,0.0,0.0,0.0,0.0,0.0,0.0,0.0,0.0,0.0,0.0,0.0,0.0,0.0,0.0,0.0,0.0,0.0,0.0,0.0,0.0,0.0,0.0,0.0,0.0,0.0,0.0,0.0,0.0,0.0,0.0,0.0,0.0,0.0,0.0,0.0,0.0,0.0,0.0,0.0,0.0,0.0,0.0,0.0,0.0,0.0,0.0,0.0,0.0,0.0,0.0,0.0,0.0,0.0,0.0,0.0,0.0,0.0,0.0,0.0,0.0,0.0,0.0,0.0,0.0,0.0,0.0,0.0,0.0,0.0,0.0,0.0,0.0,0.0,0.0,0.0,0.0,0.0,0.0,0.0,0.0,0.0,0.0,0.0,0.0,0.0,-3.8398,-3.7937,-3.7803,-3.8081,-3.6503,-3.4714,0.0,0.0,0.0,0.0,0.0,0.0,0.0,0.0,0.0,0.0,0.0,0.0,0.0,0.0,0.0,0.0,0.0,0.0,0.0,0.0,0.0,0.0,0.0,0.0,0.0,0.0,0.0,0.0,0.0,0.0,0.0,0.0,0.0,0.0,0.0,0.0,0.0,0.0,0.0,0.0,0.0,0.0,0.0,0.0,0.0,0.0,0.0,0.0,0.0,0.0,0.0,0.0,0.0,0.0,0.0,0.0,0.0,0.0,0.0,0.0,0.0,0.0,0.0,0.0,0.0,0.0,0.0,0.0,0.0,0.0,0.0,0.0,0.0,0.0,0.0,0.0,0.0,0.0,0.0,0.0,0.0,0.0,0.0,0.0,0.0,0.0,0.0,0.0,0.0,0.0,0.0,0.0,0.0,0.0,0.0,0.0,0.0,0.0,0.0,0.0,0.0,0.0,0.0,0.0,0.0,0.0,0.0,0.0,0.0,-3.8905,-3.8688,-3.8503,-3.8451,-3.7341,-3.5661,-3.3425,0.0,0.0,0.0,0.0,0.0,0.0,0.0,0.0,0.0,0.0,0.0,0.0,0.0,0.0,0.0,0.0,0.0,0.0,0.0,0.0,0.0,0.0,0.0,0.0,0.0,0.0,0.0,0.0,0.0,0.0,0.0,0.0,0.0,0.0,0.0,0.0,0.0,0.0,0.0,0.0,0.0,0.0,0.0,0.0,0.0,0.0,0.0,0.0,0.0,0.0,0.0,0.0,0.0,0.0,0.0,0.0,0.0,0.0,0.0,0.0,0.0,0.0,0.0,0.0,0.0,0.0,0.0,0.0,0.0,0.0,0.0,0.0,0.0,0.0,0.0,0.0,0.0,0.0,0.0,0.0,0.0,0.0,0.0,0.0,0.0,0.0,0.0,0.0,0.0,0.0,0.0,0.0,0.0,0.0,0.0,0.0,0.0,0.0,0.0,0.0,0.0,0.0,0.0,0.0,0.0,0.0,0.0,0.0,-3.9434,-3.986,-3.962,-3.8756,-3.8401,-3.7011,0.0,0.0,0.0,0.0,0.0,0.0,0.0,0.0,0.0,0.0,0.0,0.0,0.0,0.0,0.0,0.0,0.0,0.0,0.0,0.0,0.0,0.0,0.0,0.0,0.0,0.0,0.0,0.0,0.0,0.0,0.0,0.0,0.0,0.0,0.0,0.0,0.0,0.0,0.0,0.0,0.0,0.0,0.0,0.0,0.0,0.0,0.0,0.0,0.0,0.0,0.0,0.0,0.0,0.0,0.0,0.0,0.0,0.0,0.0,0.0,0.0,0.0,0.0,0.0,0.0,0.0,0.0,0.0,0.0,0.0,0.0,0.0,0.0,0.0,0.0,0.0,0.0,0.0,0.0,0.0,0.0,0.0,0.0,0.0,0.0,0.0,0.0,0.0,0.0,0.0,0.0,0.0,0.0,0.0,0.0,0.0,0.0,0.0,0.0,0.0,0.0,0.0,0.0,0.0,0.0,0.0,0.0,0.0,0.0,-3.8777,-3.9395,-3.9461,-3.8923,-3.8148,-3.6923,0.0,0.0,0.0,0.0,0.0,0.0,0.0,0.0,0.0,0.0,0.0,0.0,0.0,0.0,0.0,0.0,0.0,0.0,0.0,0.0,0.0,0.0,0.0,0.0,0.0,0.0,0.0,0.0,0.0,0.0,0.0,0.0,0.0,0.0,0.0,0.0,0.0,0.0,0.0,0.0,0.0,0.0,0.0,0.0,0.0,0.0,0.0,0.0,0.0,0.0,0.0,0.0,0.0,0.0,0.0,0.0,0.0,0.0,0.0,0.0,0.0,0.0,0.0,0.0,0.0,0.0,0.0,0.0,0.0,0.0,0.0,0.0,0.0,0.0,0.0,0.0,0.0,0.0,0.0,0.0,0.0,0.0,0.0,0.0,0.0,0.0,0.0,0.0,0.0,0.0,0.0,0.0,0.0,0.0,0.0,0.0,0.0,0.0,0.0,0.0,0.0,0.0,0.0,0.0,0.0,0.0,0.0,0.0,-3.8575,-3.8593,-3.8953,-3.8993,-3.8722,-3.8259,-3.7321,0.0,0.0,0.0,0.0,0.0,0.0,0.0,0.0,0.0,0.0,0.0,0.0,0.0,0.0,0.0,0.0,0.0,0.0,0.0,0.0,0.0,0.0,0.0,0.0,0.0,0.0,0.0,0.0,0.0,0.0,0.0,0.0,0.0,0.0,0.0,0.0,0.0,0.0,0.0,0.0,0.0,0.0,0.0,0.0,0.0,0.0,0.0,0.0,0.0,0.0,0.0,0.0,0.0,0.0,0.0,0.0,0.0,0.0,0.0,0.0,0.0,0.0,0.0,0.0,0.0,0.0,0.0,0.0,0.0,0.0,0.0,0.0,0.0,0.0,0.0,0.0,0.0,0.0,0.0,0.0,0.0,0.0,0.0,0.0,0.0,0.0,0.0,0.0,0.0,0.0,0.0,0.0,0.0,0.0,0.0,0.0,0.0,0.0,0.0,0.0,0.0,0.0,0.0,0.0,0.0,0.0,0.0,0.0,-3.8707,-3.8707,-3.8559,-3.8415,-3.8325,-3.8564,-3.7894,0.0,0.0,0.0,0.0,0.0,0.0,0.0,0.0,0.0,0.0,0.0,0.0,0.0,0.0,0.0,0.0,0.0,0.0,0.0,0.0,0.0,0.0,0.0,0.0,0.0,0.0,0.0,0.0,0.0,0.0,0.0,0.0,0.0,0.0,0.0,0.0,0.0,0.0,0.0,0.0,0.0,0.0,0.0,0.0,0.0,0.0,0.0,0.0,0.0,0.0,0.0,0.0,0.0,0.0,0.0,0.0,0.0,0.0,0.0,0.0,0.0,0.0,0.0,0.0,0.0,0.0,0.0,0.0,0.0,0.0,0.0,0.0,0.0,0.0,0.0,0.0,0.0,0.0,0.0,0.0,0.0,0.0,0.0,0.0,0.0,0.0,0.0,0.0,0.0,0.0,0.0,0.0,0.0,0.0,0.0,0.0,0.0,0.0,0.0,0.0,0.0,0.0,0.0,0.0,0.0,0.0,0.0,0.0,-3.8707,-3.8707,-3.853,-3.8399,-3.8385,-3.8182,-3.7702,0.0,0.0,0.0,0.0,0.0,0.0,0.0,0.0,0.0,0.0,0.0,0.0,0.0,0.0,0.0,0.0,0.0,0.0,0.0,0.0,0.0,0.0,0.0,0.0,0.0,0.0,0.0,0.0,0.0,0.0,0.0,0.0,0.0,0.0,0.0,0.0,0.0,0.0,0.0,0.0,0.0,0.0,0.0,0.0,0.0,0.0,0.0,0.0,-3.8985,0.0,0.0,0.0,0.0,0.0,0.0,0.0,0.0,0.0,0.0,0.0,0.0,0.0,0.0,0.0,0.0,0.0,0.0,0.0,0.0,0.0,0.0,0.0,0.0,0.0,0.0,0.0,0.0,0.0,0.0,0.0,0.0,0.0,0.0,0.0,0.0,0.0,0.0,0.0,0.0,0.0,0.0,0.0,0.0,0.0,0.0,0.0,0.0,0.0,0.0,0.0,0.0,0.0,0.0,0.0,0.0,0.0,0.0,0.0,-3.8707,-3.8707,-3.8496,-3.8399,-3.8382,-3.8071,-3.7685,0.0,0.0,0.0,0.0,0.0,0.0,0.0,0.0,0.0,0.0,0.0,0.0,0.0,0.0,0.0,0.0,0.0,0.0,0.0,0.0,0.0,0.0,0.0,0.0,0.0,0.0,0.0,0.0,0.0,0.0,0.0,0.0,0.0,0.0,0.0,0.0,0.0,0.0,0.0,0.0,0.0,0.0,0.0,0.0,0.0,0.0,0.0,0.0,0.0,0.0,0.0,0.0,0.0,0.0,0.0,0.0,0.0,0.0,0.0,0.0,0.0,0.0,0.0,0.0,0.0,0.0,0.0,0.0,0.0,0.0,0.0,0.0,0.0,0.0,0.0,0.0,0.0,0.0,0.0,0.0,0.0,0.0,0.0,0.0,0.0,0.0,0.0,0.0,0.0,0.0,0.0,0.0,0.0,0.0,0.0,0.0,0.0,0.0,0.0,0.0,0.0,0.0,0.0,0.0,0.0,0.0,0.0,-3.8707,-3.8692,-3.8658,-3.8496,-3.8399,-3.8385,-3.8071,-3.7685,-3.7208,0.0,0.0,0.0,0.0,0.0,0.0,0.0,0.0,0.0,0.0,0.0,0.0,0.0,0.0,0.0,0.0,0.0,0.0,0.0,0.0,0.0,0.0,0.0,0.0,0.0,0.0,0.0,0.0,0.0,0.0,0.0,0.0,0.0,0.0,0.0,0.0,0.0,0.0,-3.2121,-3.4827,0.0,0.0,0.0,0.0,0.0,0.0,0.0,0.0,-4.1782,0.0,0.0,0.0,0.0,0.0,0.0,0.0,0.0,0.0,0.0,0.0,0.0,0.0,0.0,0.0,0.0,0.0,0.0,0.0,0.0,0.0,0.0,0.0,0.0,0.0,0.0,0.0,0.0,0.0,0.0,0.0,0.0,0.0,0.0,0.0,0.0,0.0,0.0,0.0,0.0,0.0,0.0,0.0,0.0,0.0,0.0,0.0,0.0,0.0,0.0,0.0,0.0,0.0,0.0,0.0,0.0,-3.8707,-3.8707,-3.8624,-3.8525,-3.8446,-3.8385,-3.8305,-3.8055,-3.7685,-3.719,0.0,0.0,0.0,0.0,0.0,0.0,0.0,0.0,0.0,0.0,0.0,0.0,0.0,0.0,0.0,0.0,0.0,0.0,0.0,0.0,0.0,0.0,0.0,0.0,0.0,0.0,0.0,0.0,0.0,0.0,0.0,0.0,0.0,0.0,0.0,0.0,0.0,0.0,0.0,-3.6422,-3.7411,0.0,0.0,0.0,0.0,0.0,0.0,0.0,0.0,-4.3164,0.0,0.0,0.0,0.0,0.0,0.0,0.0,0.0,0.0,0.0,0.0,0.0,0.0,0.0,0.0,0.0,0.0,0.0,0.0,0.0,0.0,0.0,0.0,0.0,0.0,0.0,0.0,0.0,0.0,0.0,0.0,0.0,0.0,0.0,0.0,0.0,0.0,0.0,0.0,0.0,0.0,0.0,0.0,0.0,0.0,0.0,0.0,0.0,0.0,0.0,0.0,0.0,0.0,0.0,0.0,-3.8707,-3.8707,-3.8643,-3.851,-3.843,-3.8368,-3.8307,-3.8038,-3.7685,0.0,0.0,0.0,0.0,0.0,0.0,0.0,0.0,0.0,0.0,0.0,0.0,0.0,0.0,0.0,0.0,0.0,0.0,0.0,0.0,0.0,0.0,0.0,0.0,0.0,0.0,0.0,0.0,0.0,0.0,0.0,0.0,0.0,0.0,0.0,0.0,0.0,0.0,0.0,0.0,-3.7413,-3.8167,-3.9357,0.0,0.0,0.0,0.0,0.0,0.0,-4.4116,-4.3909,0.0,0.0,0.0,0.0,0.0,0.0,0.0,0.0,0.0,0.0,0.0,0.0,0.0,0.0,0.0,0.0,0.0,0.0,0.0,0.0,0.0,0.0,0.0,0.0,0.0,0.0,0.0,0.0,0.0,0.0,0.0,0.0,0.0,0.0,0.0,0.0,0.0,0.0,0.0,0.0,0.0,0.0,0.0,0.0,0.0,0.0,0.0,0.0,0.0,0.0,0.0,0.0,0.0,0.0,0.0,-3.8707,-3.8707,-3.8624,-3.8494,-3.843,-3.8352,-3.8274,-3.8038,-3.7667,0.0,0.0,0.0,0.0,0.0,0.0,0.0,0.0,0.0,0.0,0.0,0.0,0.0,0.0,0.0,0.0,0.0,0.0,0.0,0.0,0.0,0.0,0.0,0.0,0.0,0.0,0.0,0.0,0.0,0.0,0.0,0.0,0.0,0.0,0.0,0.0,0.0,0.0,0.0,0.0,0.0,-3.8855,-3.9637,-4.0457,0.0,0.0,0.0,0.0,-4.3741,-4.3795,0.0,0.0,0.0,0.0,0.0,0.0,0.0,0.0,0.0,0.0,0.0,0.0,0.0,0.0,0.0,0.0,0.0,0.0,0.0,0.0,0.0,0.0,0.0,0.0,0.0,0.0,0.0,0.0,0.0,0.0,0.0,0.0,0.0,0.0,0.0,0.0,0.0,0.0,0.0,0.0,0.0,0.0,0.0,0.0,0.0,0.0,0.0,0.0,0.0,0.0,0.0,0.0,0.0,0.0,0.0,0.0,-3.8707,-3.8707,-3.8611,-3.8433,-3.8399,-3.8336,-3.8207,-3.8003,-3.7667,0.0,0.0,0.0,0.0,0.0,0.0,0.0,0.0,0.0,0.0,0.0,0.0,0.0,0.0,0.0,0.0,0.0,0.0,0.0,0.0,0.0,0.0,0.0,0.0,0.0,0.0,0.0,0.0,0.0,0.0,0.0,0.0,0.0,0.0,0.0,0.0,0.0,0.0,0.0,0.0,0.0,-3.8974,-3.9851,-4.0661,-4.1162,0.0,0.0,-4.2233,-4.228,-4.2123,0.0,0.0,0.0,0.0,0.0,0.0,0.0,0.0,0.0,0.0,0.0,0.0,0.0,0.0,0.0,0.0,0.0,0.0,0.0,0.0,0.0,0.0,0.0,0.0,0.0,0.0,0.0,0.0,0.0,0.0,0.0,0.0,0.0,0.0,0.0,0.0,0.0,0.0,0.0,0.0,0.0,0.0,0.0,0.0,0.0,0.0,0.0,0.0,0.0,0.0,0.0,0.0,0.0,0.0,0.0,-3.8707,-3.8707,-3.8707,-3.8611,-3.8399,-3.8399,-3.8067,-3.7418,-3.7647,-3.7363,0.0,0.0,0.0,0.0,0.0,0.0,0.0,0.0,0.0,0.0,0.0,0.0,0.0,0.0,0.0,0.0,0.0,0.0,0.0,0.0,0.0,0.0,0.0,0.0,0.0,0.0,0.0,0.0,0.0,0.0,0.0,0.0,0.0,0.0,0.0,0.0,0.0,0.0,0.0,0.0,0.0,0.0,-4.0059,-4.038,0.0,0.0,0.0,-4.1625,-4.1897,0.0,0.0,0.0,0.0,0.0,0.0,0.0,0.0,0.0,0.0,0.0,0.0,0.0,0.0,0.0,0.0,0.0,0.0,0.0,0.0,0.0,0.0,0.0,0.0,0.0,0.0,0.0,0.0,0.0,0.0,0.0,0.0,0.0,0.0,0.0,0.0,0.0,0.0,0.0,0.0,0.0,0.0,0.0,0.0,0.0,0.0,0.0,0.0,0.0,0.0,0.0,0.0,0.0,0.0,0.0,0.0,0.0,-3.8707,-3.8505,-3.83,-3.8107,-3.7906,-3.7396,-3.6573,-3.693,0.0,0.0,0.0,0.0,0.0,0.0,0.0,0.0,0.0,0.0,0.0,0.0,0.0,0.0,0.0,0.0,0.0,0.0,0.0,0.0,0.0,0.0,0.0,0.0,0.0,0.0,0.0,-2.8885,0.0,0.0,0.0,0.0,0.0,0.0,0.0,0.0,0.0,0.0,0.0,0.0,0.0,0.0,-4.0138,-4.0206,-4.0157,-4.0305,0.0,0.0,-4.077,-4.0913,-4.1035,-4.0909,0.0,0.0,0.0,0.0,0.0,0.0,0.0,0.0,0.0,0.0,0.0,0.0,0.0,0.0,0.0,0.0,0.0,0.0,0.0,0.0,0.0,0.0,0.0,0.0,0.0,0.0,0.0,0.0,0.0,0.0,0.0,0.0,0.0,0.0,0.0,0.0,0.0,0.0,0.0,0.0,0.0,0.0,0.0,0.0,0.0,0.0,0.0,0.0,0.0,0.0,0.0,0.0,0.0,0.0,0.0,-3.8689,-3.797,-3.7494,-3.727,-3.6541,-3.6033,-3.5778,-3.5636,-3.5365,0.0,0.0,0.0,0.0,0.0,0.0,0.0,0.0,0.0,0.0,0.0,0.0,0.0,0.0,0.0,0.0,0.0,0.0,0.0,0.0,0.0,0.0,0.0,0.0,0.0,0.0,0.0,0.0,0.0,0.0,0.0,0.0,0.0,0.0,0.0,0.0,0.0,0.0,0.0,0.0,0.0,-4.0234,-4.0291,-4.0195,-4.0086,0.0,0.0,-3.94,-3.8508,-3.8845,-3.8872,-3.7993,0.0,0.0,0.0,0.0,0.0,0.0,0.0,0.0,0.0,0.0,0.0,0.0,0.0,0.0,0.0,0.0,0.0,0.0,0.0,0.0,0.0,0.0,0.0,0.0,0.0,0.0,0.0,0.0,0.0,0.0,0.0,0.0,0.0,0.0,0.0,0.0,0.0,0.0,0.0,0.0,0.0,0.0,0.0,0.0,0.0,0.0,0.0,0.0,0.0,0.0,0.0,0.0,0.0,-3.8707,-3.8689,-3.7869,-3.7372,-3.7179,-3.6385,-3.5574,-3.4837,-3.5091,-3.48,0.0,0.0,0.0,0.0,0.0,0.0,0.0,0.0,0.0,0.0,0.0,0.0,0.0,0.0,0.0,0.0,0.0,0.0,0.0,0.0,0.0,0.0,0.0,0.0,0.0,0.0,0.0,0.0,-3.1661,-3.2003,-3.3068,0.0,0.0,0.0,0.0,0.0,0.0,0.0,0.0,0.0,0.0,-3.9424,-3.9423,-3.9376,0.0,0.0,-3.935,-3.9352,-3.8809,-3.8846,-3.8785,-3.836,-3.8759,0.0,0.0,0.0,0.0,0.0,0.0,0.0,0.0,0.0,0.0,0.0,0.0,0.0,0.0,0.0,0.0,0.0,0.0,0.0,0.0,0.0,0.0,0.0,0.0,0.0,0.0,0.0,0.0,0.0,0.0,0.0,0.0,0.0,0.0,0.0,0.0,0.0,0.0,0.0,0.0,0.0,0.0,0.0,0.0,0.0,0.0,0.0,0.0,0.0,0.0,0.0,0.0,-3.8597,-3.834,-3.7473,-3.6833,-3.6486,-3.5627,-3.4769,-3.3997,-3.424,-3.3934,0.0,0.0,0.0,0.0,0.0,0.0,0.0,0.0,0.0,0.0,0.0,0.0,0.0,0.0,0.0,0.0,0.0,0.0,0.0,0.0,0.0,0.0,0.0,0.0,0.0,0.0,0.0,0.0,-3.2931,-3.3213,-3.3762,0.0,0.0,0.0,0.0,0.0,0.0,0.0,0.0,0.0,0.0,-3.8842,-3.8584,-3.8671,-3.8733,-3.8593,-3.906,-3.9269,-3.878,-3.8798,-3.8763,-3.8389,0.0,0.0,0.0,0.0,0.0,0.0,0.0,0.0,0.0,0.0,0.0,0.0,0.0,0.0,0.0,0.0,0.0,0.0,0.0,0.0,0.0,0.0,0.0,0.0,0.0,0.0,0.0,0.0,0.0,0.0,-3.5482,0.0,0.0,0.0,0.0,0.0,0.0,0.0,0.0,0.0,0.0,0.0,0.0,0.0,0.0,0.0,0.0,0.0,0.0,0.0,0.0,0.0,0.0,-3.8322,-3.7547,-3.6633,-3.5736,-3.4896,-3.3989,-3.3433,-3.3155,-3.2902,-3.2591,-3.2231,0.0,0.0,0.0,0.0,0.0,0.0,0.0,0.0,0.0,0.0,0.0,0.0,0.0,0.0,0.0,0.0,0.0,0.0,0.0,0.0,0.0,0.0,0.0,0.0,0.0,0.0,-3.3088,-3.4127,-3.4549,0.0,0.0,0.0,0.0,0.0,0.0,0.0,0.0,0.0,0.0,-3.8928,-3.8687,-3.7869,-3.8261,-3.8624,-3.8508,-3.8952,-3.8952,-3.8011,-3.8393,-3.8519,0.0,0.0,0.0,0.0,0.0,0.0,0.0,0.0,0.0,0.0,0.0,0.0,0.0,0.0,0.0,0.0,0.0,0.0,0.0,0.0,0.0,0.0,0.0,0.0,0.0,0.0,0.0,-3.8126,-3.7729,0.0,0.0,0.0,0.0,0.0,0.0,0.0,0.0,0.0,0.0,0.0,-3.8707,-3.8707,0.0,0.0,0.0,0.0,0.0,0.0,0.0,0.0,0.0,0.0,0.0,0.0,-3.8303,-3.7477,-3.6534,-3.5637,-3.4805,-3.3851,-3.3259,-3.3042,-3.2721,-3.2301,-3.1744,0.0,0.0,0.0,0.0,0.0,0.0,0.0,0.0,0.0,0.0,0.0,0.0,0.0,0.0,0.0,0.0,0.0,0.0,0.0,0.0,0.0,0.0,0.0,0.0,0.0,-3.3252,0.0,0.0,0.0,0.0,0.0,0.0,0.0,0.0,0.0,0.0,0.0,-3.9684,-3.8956,-3.8451,-3.7984,-3.7614,-3.7677,-3.787,0.0,0.0,0.0,0.0,0.0,0.0,0.0,0.0,0.0,0.0,0.0,0.0,0.0,0.0,-4.2249,-4.3296,-4.3479,-4.3479,-4.3479,0.0,0.0,0.0,0.0,0.0,0.0,0.0,0.0,0.0,0.0,0.0,0.0,0.0,0.0,-3.9135,0.0,-3.8219,0.0,0.0,0.0,0.0,0.0,0.0,0.0,0.0,-3.8707,-3.8707,-3.8707,-3.8707,-3.8707,0.0,-3.8707,-3.8707,0.0,0.0,0.0,0.0,0.0,0.0,0.0,0.0,-3.8175,-3.7092,-3.6406,-3.5509,-3.444,-3.3676,-3.3214,-3.2995,-3.2292,-3.1498,-3.0694,-3.0762,-3.0818,0.0,0.0,0.0,0.0,0.0,0.0,0.0,0.0,0.0,0.0,0.0,0.0,0.0,0.0,0.0,0.0,0.0,0.0,0.0,0.0,0.0,0.0,0.0,-3.3969,0.0,0.0,0.0,0.0,0.0,0.0,0.0,0.0,0.0,-3.9539,-3.9804,-3.9673,-3.8956,-3.8395,-3.7899,-3.7488,0.0,0.0,0.0,0.0,0.0,0.0,0.0,-3.8707,-3.8707,-3.8707,-3.8707,-3.8707,-3.9368,-4.0065,-4.0598,0.0,0.0,-4.247,-4.2671,-4.2653,-4.2671,-4.2671,-4.2506,-4.1992,-4.1662,-4.1313,0.0,0.0,0.0,0.0,0.0,0.0,0.0,0.0,-4.0041,-3.9878,0.0,-3.9031,0.0,0.0,0.0,0.0,0.0,-3.8593,0.0,0.0,-3.8707,-3.8707,-3.8707,-3.8707,-3.8707,-3.8707,-3.8707,-3.8707,-3.8707,-3.8707,0.0,0.0,0.0,0.0,0.0,0.0,-3.7881,-3.6303,-3.612,-3.5246,-3.3678,-3.343,-3.3187,-3.2838,-3.1529,-3.0265,-2.9207,-2.9775,-3.0108,-3.0106,-3.0667,0.0,0.0,0.0,0.0,0.0,0.0,0.0,0.0,0.0,0.0,0.0,0.0,0.0,0.0,0.0,0.0,0.0,0.0,0.0,0.0,-3.4081,0.0,0.0,0.0,0.0,0.0,0.0,0.0,0.0,0.0,0.0,-3.9464,-3.9735,-3.9637,-3.8884,0.0,0.0,0.0,0.0,-3.8257,-3.8018,-3.8521,-3.8861,-3.8748,-3.8676,-3.8615,-3.8597,0.0,0.0,-3.8652,-3.9294,-3.9806,-3.9879,-4.0451,-4.1022,-4.1003,-4.1113,-4.1168,-4.1187,-4.1205,-4.1113,-4.1003,-4.0543,-4.0008,-3.8952,0.0,0.0,0.0,0.0,-3.9305,-3.9571,-3.9455,-3.9657,-3.9568,-3.9191,-3.8649,0.0,0.0,0.0,0.0,0.0,0.0,-3.8707,-3.8707,-3.8707,-3.8707,-3.8707,-3.8707,-3.8707,-3.8707,-3.8707,-3.8707,-3.8707,-3.8707,-3.8707,-3.8707,0.0,0.0,0.0,0.0,-3.7037,-3.5481,-3.5278,-3.4741,-3.3689,-3.2889,-3.196,-3.0894,-3.0227,-2.9644,-2.9193,-2.9776,-3.0089,-3.0125,-3.0782,0.0,0.0,0.0,0.0,0.0,0.0,0.0,0.0,0.0,0.0,0.0,0.0,0.0,0.0,0.0,0.0,0.0,0.0,0.0,-3.3411,-3.4312,-3.52,0.0,0.0,0.0,0.0,0.0,0.0,0.0,0.0,0.0,-3.9272,-3.9618,-3.9523,0.0,0.0,-3.8176,-3.7159,-3.7161,-3.7386,-3.7729,0.0,0.0,0.0,-3.7379,-3.6982,-3.6982,-3.6982,-3.7165,-3.7749,-3.8043,-3.8374,-3.8927,-3.9239,-3.9371,-3.9444,-4.0359,-4.1022,-4.1113,-4.1113,-4.091,-4.0359,-4.0029,-3.9735,-3.8777,-3.8735,-3.8704,-3.8658,-3.8666,-3.942,-3.9703,-3.9607,-3.9917,-3.983,-3.9381,-3.8891,-3.8543,-3.8354,-3.8352,0.0,0.0,0.0,-3.8707,-3.8707,-3.8707,-3.8707,-3.8689,-3.8377,-3.823,-3.8193,-3.79,-3.7753,-3.7753,-3.7753,-3.7753,-3.779,0.0,0.0,-3.7529,-3.7511,-3.667,-3.5096,-3.4976,-3.4366,-3.3246,-3.2121,-3.091,-2.9626,-2.9256,-2.8973,-2.8732,-2.9354,-2.9803,-3.0108,-3.0823,-3.1213,0.0,0.0,0.0,0.0,0.0,0.0,0.0,0.0,0.0,0.0,0.0,-3.2823,-3.3938,0.0,0.0,0.0,-3.459,-3.4744,-3.468,-3.5475,0.0,0.0,0.0,0.0,0.0,0.0,0.0,-3.8792,-3.8935,-3.8915,-3.8687,-3.8877,-3.8987,-3.8858,-3.8529,-3.8046,-3.738,0.0,-3.6833,-3.716,-3.674,-3.6536,-3.6956,-3.6615,-3.6285,-3.6285,-3.6285,-3.6431,-3.6923,-3.7033,-3.7199,-3.7643,-3.801,-3.8212,-3.823,-3.9294,-4.0157,-4.0141,-4.0141,-3.9992,-3.9496,-3.9423,-3.9258,-3.8822,-3.8788,-3.8735,-3.8689,-3.8781,-3.9496,-3.9742,-3.968,-4.0376,-4.0288,-3.9548,-3.9529,-3.9126,-3.8433,-3.8478,0.0,-3.8525,-3.8624,-3.8707,-3.8707,-3.8707,-3.867,-3.8579,-3.786,-3.7474,-3.7382,-3.6652,-3.6285,-3.6303,-3.6303,-3.6285,-3.634,-3.7771,-3.8102,-3.7345,-3.729,-3.6505,-3.4931,-3.4894,-3.4083,-3.2428,-3.1233,-3.0076,-2.8954,-2.8657,-2.8403,-2.8169,-2.8778,-2.9417,-3.011,-3.0883,-3.1315,-3.1315,0.0,0.0,0.0,0.0,0.0,0.0,0.0,0.0,0.0,0.0,0.0,0.0,0.0,0.0,0.0,-3.5731,0.0,-3.6178,-3.6923,0.0,0.0,0.0,-3.8634,-3.8707,-3.8707,-3.8701,-3.87,0.0,0.0,-3.7789,0.0,-3.8101,-3.9044,-3.8413,-3.7824,-3.7726,-3.6954,-3.6453,-3.6302,-3.6219,-3.6172,-3.617,-3.6046,-3.5936,-3.5936,-3.6101,-3.6046,-3.6174,-3.6193,-3.6211,-3.6376,-3.6923,-3.7401,-3.7419,-3.801,-3.8505,-3.8524,-3.867,-3.8744,-3.8762,-3.8762,-3.8762,-3.896,-3.8881,-3.8807,-3.875,-3.8726,-3.8909,-3.8985,-3.897,-3.9153,-3.9101,-3.892,-3.892,-3.881,-3.8627,-3.8643,-3.8658,-3.8658,-3.8692,-3.8707,-3.8707,-3.8707,-3.8395,-3.7786,-3.7603,-3.718,-3.6597,-3.6409,-3.6285,-3.6285,-3.6285,-3.6285,-3.6321,-3.6688,-3.645,-3.5628,-3.5591,-3.5096,-3.41,-3.4082,-3.3258,-3.1529,-3.0486,-2.9681,-2.9145,-2.8782,-2.8758,-2.9128,-2.9742,-3.0147,-3.0334,-3.1069,-3.1479,-3.1445,-3.1479,0.0,0.0,0.0,0.0,0.0,0.0,0.0,0.0,0.0,-3.4824,-3.6346,0.0,-3.6096,0.0,-3.623,-3.5872,-3.5389,-3.6083,0.0,0.0,-3.7312,-3.8043,-3.8634,-3.8707,-3.8465,-3.7871,-3.7857,-3.762,-3.6842,-3.6745,-3.6846,-3.7087,-3.7002,-3.6682,-3.5969,-3.5688,-3.5487,-3.5317,-3.4862,-3.4646,-3.5183,-3.478,-3.4431,-3.4394,-3.4412,-3.4596,-3.5224,-3.5298,-3.5518,-3.6138,-3.6413,-3.6574,-3.6597,-3.6743,-3.6872,-3.6945,-3.7826,-3.8707,-3.8707,-3.8689,-3.8689,-3.9059,-3.8979,-3.8877,-3.8807,-3.875,-3.8723,-3.8707,-3.8707,-3.8707,-3.8707,-3.8707,-3.8707,-3.8707,-3.8707,-3.8707,-3.8707,-3.8707,-3.8707,-3.8707,-3.8707,-3.8707,-3.8267,-3.7511,-3.7144,-3.6523,-3.572,-3.5367,-3.5183,-3.5183,-3.5183,-3.5183,-3.5183,-3.5183,-3.4963,-3.4491,-3.4821,-3.4601,-3.3807,-3.344,-3.2782,-3.1793,-3.082,-3.0175,-2.9869,-2.9526,-2.9561,-3.011,-3.0332,-3.0583,-3.0925,-3.1317,-3.1557,-3.154,-3.1557,-3.1557,0.0,0.0,0.0,0.0,0.0,0.0,0.0,0.0,0.0,0.0,0.0,-3.6676,-3.7053,-3.6854,-3.6406,-3.5646,-3.6009,-3.6285,-3.6303,-3.6703,-3.7129,-3.7588,-3.7624,-3.7459,-3.7015,-3.7007,-3.6724,-3.5901,-3.5772,-3.5625,-3.5308,-3.5302,-3.5311,-3.5119,-3.483,-3.454,-3.4449,-3.4082,-3.3935,-3.4417,-3.41,-3.3807,-3.3807,-3.3807,-3.3972,-3.438,-3.4454,-3.4633,-3.511,-3.5477,-3.5716,-3.5752,-3.6064,-3.6285,-3.6395,-3.6982,-3.7569,-3.7624,-3.7624,-3.7624,-3.9129,-3.9101,-3.8946,-3.8881,-3.8822,-3.8735,-3.8689,-3.8707,-3.8707,-3.8707,-3.8707,-3.8707,-3.8707,-3.8707,-3.8707,-3.8707,-3.8707,-3.8707,-3.8634,-3.856,-3.8542,-3.8065,-3.7147,-3.645,-3.5697,-3.4839,-3.4137,-3.3807,-3.3807,-3.3807,-3.3807,-3.3807,-3.3807,-3.3807,-3.3844,-3.4491,-3.4491,-3.3807,-3.3005,-3.2557,-3.2499,-3.1586,-3.1039,-3.0884,-3.0551,-3.0624,-3.1096,-3.0854,-3.1004,-3.1621,-3.1654,-3.1635,-3.1635,-3.1635,-3.1654,0.0,-3.1614,0.0,0.0,0.0,0.0,0.0,0.0,0.0,0.0,-3.6583,-3.6862,-3.7125,-3.7268,-3.7015,-3.6211,-3.6138,-3.6138,-3.6119,-3.6138,-3.6174,-3.6266,-3.6285,-3.6248,-3.6156,-3.6138,-3.5793,-3.4986,-3.4857,-3.4564,-3.4045,-3.3949,-3.4169,-3.4637,-3.4266,-3.3894,-3.3807,-3.3807,-3.3825,-3.388,-3.3844,-3.3807,-3.3807,-3.3807,-3.3807,-3.3844,-3.3844,-3.3844,-3.3917,-3.4431,-3.4839,-3.4857,-3.5459,-3.5917,-3.5862,-3.5917,-3.6064,-3.634,-3.6431,-3.6285,-3.9288,-3.917,-3.9036,-3.8954,-3.8862,-3.8807,-3.875,-3.8707,-3.8707,-3.8707,-3.8707,-3.8707,-3.8707,-3.8707,-3.8707,-3.8707,-3.8707,-3.8707,-3.8358,-3.7749,-3.7731,-3.6927,-3.5518,-3.5316,-3.4821,-3.4064,-3.388,-3.3807,-3.3807,-3.3807,-3.3807,-3.3807,-3.3807,-3.3807,-3.3807,0.0,0.0,0.0,-3.3018,-3.2601,-3.2551,-3.1613,-3.1361,-3.1888,-3.1581,0.0,-3.2223,-3.2055,-3.1969,-3.2002,-3.1893,0.0,0.0,0.0,0.0,0.0,0.0,0.0,0.0,0.0,0.0,0.0,-3.3407,-3.4141,-3.5674,-3.617,-3.6369,-3.6333,-3.6461,-3.6174,-3.5334,-3.5261,-3.5243,-3.5243,-3.5243,-3.5518,-3.6174,-3.6266,-3.6046,-3.5334,-3.5243,-3.4931,-3.4211,-3.4027,-3.399,-3.3844,-3.3807,-3.3862,-3.4027,-3.3917,-3.3807,-3.3807,-3.3807,-3.3807,-3.3807,-3.3807,-3.3807,-3.3807,-3.3807,-3.3807,-3.3807,-3.3807,-3.3807,-3.3807,-3.3935,-3.4045,-3.4032,-3.4192,-3.4376,-3.4284,-3.4302,-3.4688,-3.5991,-3.6285,-3.6285,-3.9406,0.0,-3.9161,-3.9036,0.0,-3.8881,-3.8807,-3.875,-3.8723,-3.8707,-3.8707,-3.8707,-3.8707,-3.8707,-3.8707,-3.8469,-3.8102,-3.8135,-3.7694,-3.6923,-3.6905,-3.6229,-3.5004,-3.5004,-3.4564,-3.3807,-3.3807,-3.3807,-3.3807,-3.3807,-3.3807,-3.3807,-3.3807,-3.3807,-3.3807,-3.3807,-3.3807,-3.3807,-3.3403,-3.3201,-3.317,-3.2647,-3.2557,-3.2873,0.0,0.0,0.0,0.0,0.0,0.0,0.0,0.0,0.0,0.0,0.0,-3.209,-3.2126,-3.2179,-3.2284,-3.2472,-3.2688,-3.2932,-3.3223,-3.3935,-3.5208,-3.5912,-3.6087,-3.5622,-3.5614,-3.5316,-3.4509,-3.4399,-3.4399,-3.4417,-3.4417,-3.4614,-3.4963,-3.5055,-3.4908,-3.4509,-3.4399,-3.4247,-3.3862,-3.3807,-3.3807,-3.3807,-3.3807,-3.3807,-3.3807,-3.3807,-3.3807,-3.3807,-3.3807,-3.3807,-3.3807,-3.3807,-3.3788,-3.3807,-3.3807,-3.3807,-3.3807,-3.3807,-3.3807,-3.3807,-3.3807,-3.3807,-3.3807,-3.3807,-3.3807,-3.3807,-3.3807,-3.4009,-3.4908,-3.5073,-3.5055,-3.9446,-3.9386,-3.9256,-3.9133,-3.9011,-3.8935,-3.8807,-3.8586,0.0,0.0,0.0,-3.834,-3.8267,-3.8267,-3.8285,-3.7918,-3.7309,-3.7309,-3.685,-3.6083,-3.6064,-3.5624,-3.4821,-3.4784,-3.4468,-3.3825,-3.3807,-3.3807,-3.3807,-3.3807,-3.3807,-3.3807,-3.3807,-3.3715,-3.3587,-3.3458,-3.3385,-3.3385,-3.3532,-3.3587,-3.3587,-3.3519,-3.347,-3.34,-3.3314,-3.3208,-3.3052,-3.2755,-3.2558,-3.2457,-3.2266,-3.2161,-3.2161,-3.2161,-3.2179,-3.2197,-3.2249,-3.2353,-3.2491,-3.2672,-3.2864,-3.307,-3.3448,-3.3931,-3.4659,-3.5412,-3.5569,-3.4857,-3.4802,-3.4527,-3.388,-3.3807,-3.3807,-3.3807,-3.3807,-3.3825,-3.3825,-3.3807,-3.388,-3.3807,-3.3844,-3.3807,-3.3825,-3.3807,-3.3807,-3.3807,-3.3807,-3.3715,-3.3623,-3.3532,-3.3513,-3.3532,-3.333,-3.3293,-3.3348,-3.3275,-3.3403,-3.3495,-3.355,-3.3642,-3.377,-3.3807,-3.3807,-3.3807,-3.3807,-3.3807,-3.3807,-3.3807,-3.3807,-3.3807,-3.3807,-3.3807,-3.3807,-3.3825,-3.3899,-3.9464,-3.9391,-3.9256,-3.9133,-3.8993,-3.8997,-3.8537,-3.7779,-3.7687,-3.7676,-3.7621,-3.6927,-3.6633,-3.6652,-3.6633,-3.6578,-3.645,-3.645,-3.6009,0.0,-3.5188,-3.4747,-3.399,-3.3972,-3.3917,-3.3807,-3.3807,-3.3807,-3.3807,-3.3807,-3.3807,-3.3807,-3.3807,-3.344,-3.2766,-3.2082,-3.1727,-3.1733,-3.243,-3.2766,-3.2766,-3.2719,-3.266,-3.2702,-3.3189,-3.3437,-3.3349,-3.3073,-3.2852,-3.267,-3.2523,-3.2456,-3.2439,-3.2439,-3.2473,-3.2539,-3.264,-3.2756,-3.282,-3.2961,-3.3193,-3.3488,-3.3684,-3.3835,-3.394,-3.4064,-3.4082,-3.3972,-3.4009,-3.3935,-3.3807,-3.3807,-3.3807,-3.3807,-3.3807,-3.3807,-3.3807,-3.3807,-3.3807,-3.3807,-3.3807,-3.3807,-3.3807,-3.3807,-3.3807,-3.3807,-3.3715,-3.3532,-3.2931,-3.2766,-3.2779,-3.2674,-3.2173,-3.1801,-3.1929,-3.1764,-3.2118,-3.2674,-3.2766,-3.2981,-3.3513,-3.3605,-3.3605,-3.3752,-3.3642,-3.3678,-3.3697,-3.3807,-3.366,-3.3623,-3.3605,-3.366,-3.3678,-3.3752,-3.3807,-3.9545,-3.9433,-3.9354,-3.8987,-3.8419,-3.7882,-3.7382,-3.6914,-3.635,-3.6431,-3.6795,-3.6464,-3.6285,-3.6285,-3.6285,-3.6046,-3.5591,-3.5591,-3.5133,-3.438,-3.4339,-3.4156,-3.3844,-3.3807,-3.3807,-3.3807,-3.3807,-3.3807,-3.3807,-3.3807,-3.3568,-3.3146,-3.2724,-3.2302,-3.1953,-3.1586,-3.1403,-3.1403,-3.177,-3.1953,-3.1935,-3.1928,-3.2104,-3.2549,-3.2821,-3.3112,-3.3448,-3.3223,-3.3039,-3.2866,-3.2787,-3.2722,-3.274,-3.2722,-3.2739,-3.2753,-3.2852,-3.2916,-3.2948,-3.3135,-3.3375,-3.3647,-3.3712,-3.3766,-3.3807,-3.3807,-3.3807,-3.3807,-3.3807,-3.3807,-3.3807,-3.3807,-3.3807,-3.3807,-3.3807,-3.3807,-3.3807,-3.3807,-3.3807,-3.3807,-3.3807,-3.3807,-3.3807,-3.3807,-3.3807,-3.377,-3.3476,-3.2871,-3.2063,-3.1555,-3.1476,-3.1806,-3.1641,-3.1439,-3.1384,-3.1403,-3.1568,-3.1916,-3.1953,-3.21,-3.2462,-3.2517,-3.2504,-3.2485,-3.2504,-3.2485,-3.2535,-3.2485,-3.2485,-3.2485,-3.2485,-3.2614,-3.2999,-3.3458,-3.3788,-3.963,-3.9483,-3.9239,-3.8594,-3.7638,-3.6655,-3.6237,-3.6058,-3.517,-3.5128,-3.5679,-3.5734,-3.5734,-3.5734,-3.5716,-3.5367,-3.4784,-3.4729,-3.438,-3.3844,-3.3807,-3.3807,-3.3807,-3.3807,-3.3807,-3.3807,-3.3807,-3.3715,-3.355,-3.3532,-3.3128,-3.2339,-3.1513,-3.114,-3.114,-3.0944,-3.0852,-3.0852,-3.0852,-3.0956,-3.1121,-3.114,-3.1439,-3.1995,-3.2188,-3.257,-3.3207,-3.3071,-3.3013,-3.3088,-3.2995,-3.293,-3.293,-3.2948,-3.293,-3.2945,-3.306,-3.3122,-3.315,-3.3331,-3.3534,-3.3671,-3.3712,-3.3739,-3.3793,-3.3807,-3.3807,-3.3807,-3.3807,-3.3807,-3.3807,-3.3807,-3.3807,-3.3807,-3.3807,-3.3807,-3.3807,-3.3807,-3.3807,-3.3807,-3.3807,-3.3807,-3.3788,-3.3642,-3.3403,-3.3109,-3.2559,-3.1825,-3.1182,-3.0448,-3.0265,-3.0632,-3.087,-3.0779,-3.0852,-3.0797,-3.087,-3.1054,-3.114,-3.1268,-3.1415,-3.147,-3.1421,-3.1525,-3.1476,-3.1544,-3.1439,-3.1458,-3.1513,-3.1568,-3.1586,-3.1678,-3.2228,-3.2724,-3.3421,-3.9611,-3.9389,-3.864,-3.776,-3.6832,-3.5905,-3.5467,-3.5291,-3.4418,-3.4007,-3.4119,-3.4027,-3.41,-3.4027,-3.4082,-3.4064,-3.3954,-3.3917,-3.388,-3.3807,-3.3807,-3.3807,-3.3807,-3.3807,-3.3807,-3.3807,-3.377,-3.339,-3.2803,-3.2693,-3.2284,-3.1494,-3.0705,-3.032,-3.0246,-2.961,-2.9244,-2.9225,-2.9225,-2.9592,-3.0265,-3.032,-3.0356,-3.043,-3.1083,-3.1783,-3.2542,-3.2405,-3.2636,-3.3276,-3.3142,-3.3068,-3.305,-3.3068,-3.3068,-3.3068,-3.3241,-3.3422,-3.3516,-3.3633,-3.3671,-3.3698,-3.3766,-3.3807,-3.3788,-3.3807,-3.3807,-3.3807,-3.3807,-3.3807,-3.3807,-3.3807,-3.3807,-3.3807,-3.3807,-3.3807,-3.3807,-3.3807,-3.3807,-3.3807,-3.3807,-3.3807,-3.3678,-3.3146,-3.2449,-3.1819,-3.1182,-3.0613,-3.032,-2.9732,-2.9262,-2.9299,-2.9262,-2.9317,-2.9354,-2.9244,-2.9659,-3.0191,-3.032,-3.0522,-3.0925,-3.1182,-3.1347,-3.0925,-3.1182,-3.1146,-3.1219,-3.1384,-3.1286,-3.1072,-3.1146,-3.1397,-3.1507,-3.169,-3.2223,-3.9029,-3.882,-3.7925,-3.6975,-3.6006,-3.5089,-3.4643,-3.4524,-3.4113,-3.39,-3.3855,-3.3834,-3.3807,-3.3807,-3.3807,-3.3807,-3.3807,-3.3807,-3.3807,-3.3807,-3.3807,-3.3807,-3.3807,-3.3807,-3.3807,-3.3752,-3.333,-3.2913,-3.2491,-3.1647,-3.1017,-3.065,-2.9886,-2.9482,-2.9464,-2.9152,-2.8987,-2.8987,-2.8987,-2.917,-2.9457,-2.95,-2.9721,-3.0161,-3.0485,-3.101,-3.1691,-3.1704,-3.1815,-3.2069,-3.2037,-3.1958,-3.1976,-3.2411,-3.2683,-3.2716,-3.3226,-3.3545,-3.3661,-3.3684,-3.3712,-3.3766,-3.3793,-3.3807,-3.3807,-3.3807,-3.3807,-3.3807,-3.3807,-3.3807,-3.3807,-3.3807,-3.3807,-3.3807,-3.3807,-3.3807,-3.3807,-3.3807,-3.3807,-3.3807,-3.3807,-3.3587,-3.3109,-3.2394,-3.1604,-3.087,-3.0356,-3.0044,-2.9592,-2.9189,-2.9042,-2.8987,-2.8987,-2.8987,-2.8987,-2.8987,-2.917,-2.9372,-2.9482,-2.9714,-2.9898,-2.9989,-2.9959,-3.0026,-3.0099,-3.0069,-2.9886,-2.9959,-2.9989,-3.0099,-3.0485,-3.0687,-3.0687,-3.1072,-3.1696,-3.8485,-3.8074,-3.7156,-3.6169,-3.5211,-3.4518,-3.4185,-3.4117,-3.3998,-3.3947,-3.3921,-3.3855,-3.3834,-3.3834,-3.382,-3.3807,-3.3807,-3.3807,-3.3807,-3.3807,-3.3807,-3.3807,-3.3807,-3.3807,-3.3678,-3.3403,-3.2876,-3.2381,-3.1849,-3.0595,-2.9867,-2.9787,-2.928,-2.8987,-2.8987,-2.8987,-2.8987,-2.8987,-2.8987,-2.8987,-2.9005,-2.8987,-2.928,-2.9794,-2.9867,-3.0222,-3.0955,-3.0985,-3.1075,-3.1224,-3.1217,-3.1185,-3.1203,-3.175,-3.2169,-3.247,-3.3195,-3.3657,-3.3726,-3.3726,-3.3734,-3.3807,-3.3802,-3.3815,-3.3834,-3.3847,-3.3842,-3.3855,-3.3873,-3.3842,-3.3807,-3.3807,-3.3807,-3.3807,-3.3807,-3.3807,-3.3807,-3.3807,-3.3807,-3.3807,-3.3568,-3.3054,-3.2124,-3.1421,-3.076,-3.0051,-2.9849,-2.9721,-2.917,-2.9005,-2.8987,-2.8987,-2.8987,-2.8987,-2.8987,-2.8987,-2.8987,-2.8987,-2.906,-2.9078,-2.8987,-2.9005,-2.9023,-2.9445,-2.9115,-2.9042,-2.9299,-2.9152,-2.906,-2.9133,-2.95,-2.9916,-2.9867,-3.0393,-3.0613,-3.8205,-3.732,-3.6305,-3.536,-3.443,-3.4335,-3.4221,-3.4111,-3.4099,-3.4049,-3.3998,-3.3921,-3.3895,-3.3881,-3.3829,-3.3807,-3.3807,-3.3807,-3.3807,-3.3807,-3.3807,-3.3807,-3.3807,-3.3807,-3.3403,-3.2766,-3.2485,-3.172,-3.0375,-2.95,-2.906,-2.906,-2.9023,-2.8987,-2.8987,-2.8987,-2.8987,-2.8987,-2.8987,-2.8987,-2.8987,-2.8987,-2.9023,-2.9115,-2.9078,-2.9482,-3.0124,-3.0192,-3.0466,-3.1216,-3.1146,-3.1125,-3.1162,-3.1198,-3.1626,-3.2446,-3.3241,-3.3707,-3.3775,-3.3807,-3.382,-3.3802,-3.3868,-3.3913,-3.3913,-3.3934,-3.3972,-3.3985,-3.3972,-3.3934,-3.3829,-3.3834,-3.3834,-3.382,-3.382,-3.382,-3.382,-3.3834,-3.3807,-3.3655,-3.3031,-3.2058,-3.0625,-3.0283,-2.9928,-2.9384,-2.9097,-2.9072,-2.9083,-2.9017,-2.8998,-2.9017,-2.9017,-2.8987,-2.8987,-2.8987,-2.8987,-2.8987,-2.8987,-2.8987,-2.8987,-2.8987,-2.8987,-2.8987,-2.8987,-2.8987,-2.8987,-2.9005,-2.9005,-2.9042,-2.9042,-2.9225,-2.9354,-2.9133,-2.9354,-3.6634,-3.5767,-3.5283,-3.4857,-3.4517,-3.4461,-3.434,-3.4215,-3.4185,-3.4136,-3.4061,-3.3998,-3.3934,-3.3895,-3.3868,-3.3829,-3.3807,-3.3807,-3.3807,-3.3807,-3.3807,-3.3807,-3.3752,-3.3293,-3.2913,-3.2509,-3.1568,-3.0503,-2.9537,-2.9115,-2.8987,-2.8987,-2.8987,-2.8987,-2.8987,-2.8987,-2.8987,-2.8987,-2.8987,-2.8987,-2.8987,-2.8987,-2.8987,-2.8987,-2.8987,-2.9133,-2.9427,-2.9404,-2.9538,-2.9813,-2.9826,-2.9777,-2.9832,-3.0271,-3.1187,-3.2462,-3.2915,-3.3309,-3.3815,-3.3921,-3.3921,-3.3934,-3.3947,-3.3959,-3.3972,-3.3985,-3.3998,-3.4011,-3.4011,-3.3972,-3.3947,-3.3921,-3.3902,-3.3921,-3.3934,-3.3921,-3.3915,-3.3902,-3.3736,-3.311,-3.206,-3.0924,-3.0427,-2.9886,-2.9455,-2.9215,-2.9123,-2.9112,-2.9112,-2.9123,-2.91,-2.9085,-2.9062,-2.9033,-2.8987,-2.8987,-2.8987,-2.8987,-2.8987,-2.8987,-2.8987,-2.8987,-2.8987,-2.8987,-2.8987,-2.8987,-2.8987,-2.8987,-2.8987,-2.8987,-2.8987,-2.8987,-2.9005,-2.8987,-2.8987,-3.5514,-3.4954,-3.4798,-3.4687,-3.4612,-3.4569,-3.4461,-3.4328,-3.4257,-3.4209,-3.4148,-3.4074,-3.4011,-3.3959,-3.3947,-3.3895,-3.3847,-3.382,-3.3807,-3.3807,-3.3807,-3.3807,-3.3678,-3.2999,-3.2454,-3.199,-3.0583,-2.9519,-2.906,-2.8987,-2.8987,-2.8987,-2.8987,-2.8987,-2.9005,-2.9028,-2.904,-2.904,-2.9062,-2.9055,-2.9074,-2.9074,-2.9074,-2.9074,-2.9074,-2.9044,-2.904,-2.904,-2.9051,-2.9055,-2.9074,-2.9055,-2.9147,-2.9828,-3.0759,-3.182,-3.2465,-3.2969,-3.3542,-3.385,-3.3998,-3.3998,-3.4042,-3.4036,-3.4036,-3.4061,-3.4061,-3.4061,-3.4061,-3.4061,-3.4061,-3.408,-3.4049,-3.4011,-3.3998,-3.3998,-3.3979,-3.3739,-3.3093,-3.2084,-3.1131,-3.0422,-3.0009,-2.9522,-2.9263,-2.9207,-2.9207,-2.9207,-2.9207,-2.9207,-2.9207,-2.9134,-2.9123,-2.9112,-2.9089,-2.9078,-2.9021,-2.901,-2.901,-2.8998,-2.8998,-2.8998,-2.8987,-2.8987,-2.8987,-2.8987,-2.8987,-2.8987,-2.8987,-2.8987,-2.8987,-2.8987,-2.8987,-2.8987,-2.8987,-3.5058,-3.4908,-3.4907,-3.4788,-3.4645,-3.4594,-3.4528,-3.4416,-3.4328,-3.4305,-3.4269,-3.4173,-3.4111,-3.4086,-3.4023,-3.3959,-3.3895,-3.3842,-3.382,-3.3807,-3.3807,-3.3752,-3.3642,-3.2839,-3.1977,-3.1219,-2.9787,-2.9042,-2.9005,-2.8987,-2.8987,-2.8987,-2.9017,-2.8998,-2.8998,-2.9085,-2.9108,-2.9119,-2.9145,-2.9178,-2.9207,-2.9197,-2.9197,-2.9197,-2.9178,-2.9156,-2.91,-2.9089,-2.9141,-2.9186,-2.9178,-2.9207,-2.9289,-2.9887,-3.0404,-3.0773,-3.1911,-3.2687,-3.2939,-3.3598,-3.4049,-3.4049,-3.4086,-3.4124,-3.4136,-3.4173,-3.4197,-3.4197,-3.4179,-3.4197,-3.4197,-3.4197,-3.4142,-3.4036,-3.4023,-3.4023,-3.3894,-3.3272,-3.2207,-3.0937,-3.0383,-3.0046,-2.9477,-2.9259,-2.924,-2.924,-2.924,-2.924,-2.924,-2.924,-2.9218,-2.9189,-2.9189,-2.9178,-2.9178,-2.9197,-2.9119,-2.9062,-2.9051,-2.9051,-2.9062,-2.9062,-2.904,-2.9021,-2.8987,-2.8987,-2.8987,-2.8987,-2.8987,-2.8987,-2.8987,-2.8987,-2.8987,-2.8987,-2.8987,-3.5117,-3.5039,-3.4936,-3.486,-3.4801,-3.4699,-3.4623,-3.4547,-3.4473,-3.4409,-3.4351,-3.4281,-3.4191,-3.4161,-3.4099,-3.4036,-3.3991,-3.3947,-3.3881,-3.382,-3.3788,-3.3476,-3.2926,-3.2173,-3.1054,-2.9886,-2.9262,-2.8987,-2.8987,-2.8987,-2.9028,-2.9062,-2.9074,-2.9078,-2.9123,-2.9145,-2.9156,-2.9167,-2.9207,-2.9207,-2.9207,-2.9218,-2.9207,-2.9207,-2.9207,-2.9218,-2.9229,-2.9197,-2.9178,-2.9218,-2.9207,-2.9207,-2.9274,-2.9429,-2.9847,-3.0491,-3.1473,-3.2416,-3.302,-3.378,-3.4257,-3.4269,-3.4293,-3.4305,-3.4305,-3.4335,-3.4358,-3.4328,-3.4328,-3.4328,-3.4347,-3.4328,-3.4281,-3.4148,-3.4136,-3.4142,-3.3925,-3.3043,-3.1838,-3.0796,-3.0076,-2.9609,-2.9413,-2.9339,-2.9355,-2.9355,-2.9336,-2.9336,-2.9336,-2.9326,-2.9323,-2.9291,-2.9272,-2.9254,-2.9254,-2.9265,-2.9222,-2.9156,-2.9134,-2.9108,-2.9108,-2.9108,-2.9085,-2.9074,-2.9021,-2.901,-2.8998,-2.8998,-2.8998,-2.8987,-2.8987,-2.8987,-2.8987,-2.8987,-2.8987,-3.5176,-3.5136,-3.502,-3.4926,-3.4898,-3.482,-3.472,-3.4666,-3.4572,-3.4498,-3.4461,-3.4374,-3.4293,-3.4233,-3.4197,-3.4124,-3.4049,-3.4036,-3.3991,-3.3826,-3.3479,-3.3086,-3.2467,-3.1464,-3.0356,-2.9272,-2.9074,-2.9085,-2.9074,-2.9085,-2.9089,-2.9123,-2.9152,-2.9145,-2.9189,-2.9211,-2.924,-2.9251,-2.9254,-2.9267,-2.9267,-2.9289,-2.9299,-2.9318,-2.9299,-2.9328,-2.9378,-2.9328,-2.9307,-2.9267,-2.9296,-2.9299,-2.9299,-2.9336,-2.9551,-3.0196,-3.1195,-3.2151,-3.2735,-3.3709,-3.4386,-3.4397,-3.4409,-3.4439,-3.445,-3.4461,-3.4473,-3.4473,-3.4484,-3.4473,-3.4473,-3.4473,-3.4439,-3.437,-3.4323,-3.4032,-3.3526,-3.2616,-3.148,-3.0499,-2.977,-2.9499,-2.9433,-2.9423,-2.944,-2.944,-2.944,-2.945,-2.944,-2.944,-2.9409,-2.9388,-2.9399,-2.937,-2.932,-2.931,-2.9328,-2.9286,-2.9243,-2.9189,-2.9175,-2.9163,-2.9134,-2.9123,-2.91,-2.91,-2.91,-2.9055,-2.9033,-2.901,-2.901,-2.8987,-2.8987,-2.8987,-2.8987,-3.5218,-3.5201,-3.5117,-3.5038,-3.4945,-3.4898,-3.4869,-3.478,-3.4676,-3.4604,-3.4572,-3.4473,-3.4393,-3.4328,-3.4323,-3.4221,-3.4099,-3.3957,-3.387,-3.3573,-3.2975,-3.2372,-3.2065,-3.0863,-2.9837,-2.9222,-2.9175,-2.9197,-2.9186,-2.9197,-2.9207,-2.9189,-2.92,-2.9211,-2.9232,-2.9272,-2.9315,-2.9326,-2.9361,-2.9402,-2.9402,-2.9471,-2.9482,-2.9501,-2.9501,-2.9501,-2.9501,-2.9492,-2.9472,-2.9433,-2.9443,-2.9481,-2.9501,-2.9521,-2.952,-2.9679,-3.1061,-3.1811,-3.2334,-3.3432,-3.433,-3.4435,-3.4506,-3.4517,-3.4539,-3.4591,-3.4612,-3.4623,-3.4612,-3.4623,-3.4604,-3.4594,-3.4612,-3.4583,-3.4345,-3.3653,-3.2323,-3.1998,-3.1187,-3.0018,-2.9531,-2.9512,-2.9522,-2.9512,-2.9511,-2.9492,-2.9492,-2.9501,-2.9501,-2.9491,-2.9511,-2.9501,-2.9471,-2.9461,-2.9402,-2.9402,-2.9421,-2.9401,-2.9359,-2.9307,-2.9243,-2.9222,-2.9178,-2.9178,-2.9189,-2.9189,-2.9167,-2.9123,-2.9089,-2.9089,-2.9055,-2.901,-2.8998,-2.8998,-2.8987,-3.5369,-3.527,-3.5209,-3.516,-3.5126,-3.501,-3.4946,-3.486,-3.4782,-3.474,-3.4718,-3.4594,-3.4528,-3.4506,-3.4397,-3.4335,-3.4108,-3.3613,-3.3294,-3.2975,-3.1681,-3.108,-3.0812,-2.9994,-2.9407,-2.9186,-2.92,-2.9207,-2.9207,-2.9211,-2.924,-2.928,-2.9278,-2.9291,-2.9351,-2.9421,-2.9433,-2.9433,-2.9471,-2.9482,-2.9482,-2.9492,-2.9521,-2.9521,-2.9569,-2.9569,-2.9569,-2.9626,-2.9589,-2.9482,-2.9511,-2.9521,-2.9531,-2.956,-2.9579,-2.9766,-3.0611,-3.1551,-3.22,-3.3141,-3.3999,-3.4612,-3.4678,-3.4737,-3.4727,-3.4728,-3.4747,-3.4747,-3.4747,-3.4758,-3.4739,-3.4758,-3.4747,-3.4672,-3.4101,-3.3279,-3.233,-3.158,-3.0838,-2.9935,-2.9701,-2.9645,-2.9626,-2.9598,-2.9598,-2.9569,-2.956,-2.954,-2.956,-2.955,-2.9551,-2.9512,-2.9492,-2.9511,-2.9511,-2.9511,-2.9501,-2.9491,-2.9453,-2.9423,-2.937,-2.9307,-2.9254,-2.92,-2.9232,-2.9214,-2.9211,-2.9178,-2.9167,-2.9175,-2.913,-2.9085,-2.9044,-2.9033,-2.9028,-3.5453,-3.5372,-3.527,-3.5215,-3.5201,-3.5107,-3.5056,-3.4964,-3.4879,-3.4831,-3.482,-3.4747,-3.4655,-3.4564,-3.4169,-3.3941,-3.3743,-3.3004,-3.2616,-3.2348,-3.1229,-3.0409,-2.9924,-2.9377,-2.924,-2.9251,-2.9275,-2.9286,-2.9296,-2.9318,-2.9349,-2.938,-2.9382,-2.9404,-2.9443,-2.9511,-2.954,-2.955,-2.957,-2.958,-2.958,-2.9617,-2.9626,-2.9645,-2.9664,-2.9673,-2.9692,-2.9745,-2.9708,-2.9608,-2.9598,-2.9617,-2.9626,-2.9664,-2.9701,-2.9739,-3.0509,-3.1261,-3.1827,-3.2827,-3.3752,-3.431,-3.4613,-3.485,-3.4898,-3.4907,-3.4927,-3.4927,-3.4927,-3.4927,-3.4927,-3.4927,-3.4737,-3.4321,-3.3601,-3.2855,-3.2298,-3.1534,-3.0704,-3.0063,-2.9771,-2.9754,-2.9735,-2.97,-2.9692,-2.9692,-2.9673,-2.9664,-2.9645,-2.9626,-2.9617,-2.9608,-2.9608,-2.9626,-2.9636,-2.9636,-2.9645,-2.9626,-2.9579,-2.9551,-2.9491,-2.9421,-2.938,-2.931,-2.9289,-2.9267,-2.9286,-2.9265,-2.924,-2.9218,-2.9175,-2.9152,-2.9112,-2.9089,-2.9074,-3.5494,-3.55,-3.5372,-3.5278,-3.5215,-3.5218,-3.516,-3.5082,-3.4982,-3.4936,-3.4889,-3.4764,-3.4504,-3.4457,-3.3619,-3.3216,-3.3063,-3.2259,-3.1827,-3.1451,-3.0769,-3.0081,-2.9453,-2.9371,-2.9336,-2.9336,-2.939,-2.9402,-2.9412,-2.9481,-2.9492,-2.9511,-2.9502,-2.9522,-2.9551,-2.9598,-2.9645,-2.9636,-2.9691,-2.9717,-2.9726,-2.9763,-2.978,-2.9799,-2.9816,-2.9834,-2.9851,-2.9895,-2.9868,-2.9753,-2.9789,-2.9789,-2.9798,-2.9798,-2.9825,-2.9909,-3.0437,-3.0908,-3.1295,-3.2456,-3.3364,-3.3628,-3.4357,-3.4878,-3.4821,-3.4905,-3.5065,-3.5092,-3.5101,-3.4997,-3.4845,-3.4911,-3.4456,-3.3743,-3.2934,-3.2439,-3.2089,-3.1439,-3.0627,-2.9966,-2.9842,-2.9834,-2.9834,-2.9815,-2.9806,-2.9825,-2.9789,-2.9763,-2.9771,-2.9763,-2.9771,-2.9771,-2.978,-2.9789,-2.9789,-2.9799,-2.9782,-2.9764,-2.9709,-2.9673,-2.9608,-2.955,-2.9502,-2.9463,-2.9402,-2.9382,-2.9392,-2.937,-2.9336,-2.9294,-2.9254,-2.9232,-2.92,-2.9167,-2.9152,-3.5565,-3.5489,-3.5462,-3.5432,-3.5361,-3.53,-3.5226,-3.5157,-3.5098,-3.494,-3.4858,-3.4254,-3.3933,-3.3828,-3.2968,-3.2475,-3.2292,-3.153,-3.0787,-3.0025,-2.9903,-2.9706,-2.9451,-2.9461,-2.9461,-2.9443,-2.9463,-2.9482,-2.9492,-2.9512,-2.9522,-2.9569,-2.9645,-2.9655,-2.9682,-2.9737,-2.9774,-2.9764,-2.9825,-2.9859,-2.9868,-2.9874,-2.9891,-2.9899,-2.9943,-2.9983,-3.0033,-3.0049,-3.003,-2.9999,-2.9932,-2.9888,-2.9899,-2.9924,-2.9959,-3.0013,-3.0151,-3.0584,-3.1192,-3.1648,-3.2123,-3.2851,-3.3581,-3.4084,-3.4183,-3.4687,-3.5009,-3.5149,-3.5157,-3.4737,-3.4271,-3.4176,-3.3721,-3.2961,-3.2229,-3.1672,-3.1409,-3.0812,-3.0273,-3.009,-3.0014,-3.0022,-3.0033,-2.9975,-2.9959,-2.9959,-2.9916,-2.9891,-2.9891,-2.9891,-2.991,-2.991,-2.991,-2.991,-2.991,-2.9901,-2.9893,-2.9885,-2.9859,-2.9806,-2.9746,-2.9682,-2.9636,-2.957,-2.9464,-2.9482,-2.9511,-2.9463,-2.9441,-2.9401,-2.933,-2.9299,-2.9275,-2.9243,-2.9229,-3.5579,-3.5552,-3.556,-3.5508,-3.5376,-3.4988,-3.4745,-3.4596,-3.4189,-3.4007,-3.3879,-3.3375,-3.3171,-3.3069,-3.222,-3.1741,-3.1506,-3.08,-3.0152,-2.9739,-2.9655,-2.9636,-2.9636,-2.9645,-2.9626,-2.9569,-2.957,-2.9589,-2.9598,-2.9626,-2.9654,-2.9692,-2.9765,-2.98,-2.9798,-2.9868,-2.9883,-2.991,-2.997,-2.9975,-3.0002,-2.9988,-3.0019,-3.0034,-3.0083,-3.0106,-3.0128,-3.0142,-3.015,-3.0142,-3.0101,-3.0038,-3.0,-3.0015,-3.0068,-3.0098,-3.0132,-3.0288,-3.0726,-3.1192,-3.1619,-3.2092,-3.2882,-3.3223,-3.341,-3.3819,-3.398,-3.4052,-3.4003,-3.3823,-3.3459,-3.3402,-3.2966,-3.2301,-3.1766,-3.1338,-3.087,-3.0387,-3.0095,-3.0095,-3.0087,-3.0087,-3.0068,-3.0068,-3.0053,-3.0038,-3.003,-3.0007,-3.0007,-3.0007,-3.0007,-3.0007,-3.0007,-3.0007,-3.0018,-3.001,-3.0002,-3.0002,-2.9983,-2.9951,-2.9901,-2.9842,-2.9763,-2.9691,-2.9608,-2.9589,-2.9608,-2.9579,-2.9522,-2.9463,-2.9412,-2.9382,-2.9351,-2.9349,-2.9318,-3.5546,-3.5414,-3.5427,-3.5316,-3.502,-3.4295,-3.3973,-3.3796,-3.3084,-3.2951,-3.268,-3.2526,-3.2374,-3.215,-3.1425,-3.1014,-3.0755,-3.0332,-2.9853,-2.9816,-2.9789,-2.9789,-2.9789,-2.9789,-2.9782,-2.9692,-2.9691,-2.9708,-2.9745,-2.978,-2.9789,-2.9823,-2.9876,-2.9901,-2.9926,-2.9983,-3.0003,-3.0003,-3.0068,-3.0098,-3.0106,-3.0109,-3.0145,-3.0185,-3.0187,-3.0194,-3.0207,-3.0221,-3.0241,-3.0241,-3.0286,-3.0241,-3.0168,-3.0118,-3.0145,-3.0199,-3.0225,-3.0277,-3.0405,-3.0859,-3.1282,-3.1449,-3.2159,-3.2568,-3.2652,-3.2882,-3.3081,-3.3023,-3.3049,-3.2953,-3.2678,-3.2627,-3.2217,-3.1616,-3.1398,-3.1072,-3.0535,-3.0218,-3.0164,-3.0147,-3.0169,-3.0157,-3.0169,-3.0161,-3.014,-3.0132,-3.0132,-3.0132,-3.0125,-3.0125,-3.0132,-3.0147,-3.0135,-3.0113,-3.0106,-3.0102,-3.0095,-3.0061,-3.0087,-3.0026,-3.0003,-2.9975,-2.9901,-2.9825,-2.9764,-2.9699,-2.9663,-2.9673,-2.9626,-2.9551,-2.9512,-2.9492,-2.9463,-2.9423,-2.9411,-3.5315,-3.4599,-3.4587,-3.4166,-3.3459,-3.3205,-3.3103,-3.3077,-3.2792,-3.2783,-3.2596,-3.195,-3.1581,-3.1367,-3.0693,-3.0277,-3.023,-3.0024,-2.9924,-2.9899,-2.9899,-2.9899,-2.9888,-2.9932,-2.9932,-2.9926,-2.9857,-2.9823,-2.9859,-2.9868,-2.9918,-2.9967,-2.9991,-3.0007,-3.0046,-3.0083,-3.0094,-3.009,-3.0152,-3.0187,-3.02,-3.0227,-3.0254,-3.0305,-3.0292,-3.0279,-3.0305,-3.0343,-3.0361,-3.0361,-3.0367,-3.0379,-3.0328,-3.0273,-3.0286,-3.0305,-3.0305,-3.0286,-3.0343,-3.0407,-3.0554,-3.0745,-3.1347,-3.1788,-3.2018,-3.2448,-3.2563,-3.2716,-3.2709,-3.2613,-3.1944,-3.1875,-3.1465,-3.0895,-3.0671,-3.0627,-3.045,-3.0362,-3.0305,-3.0266,-3.026,-3.0246,-3.0233,-3.0219,-3.0232,-3.0225,-3.0225,-3.0232,-3.0232,-3.0226,-3.024,-3.0266,-3.0279,-3.024,-3.0194,-3.0178,-3.0176,-3.0128,-3.0101,-2.9999,-2.9996,-3.0068,-2.9996,-2.9515,-2.9506,-2.9597,-2.9619,-2.9584,-2.9568,-2.9382,-2.9467,-2.9598,-2.9569,-2.9521,-2.9482,-3.4233,-3.3783,-3.3752,-3.3474,-3.3021,-3.2524,-3.2316,-3.2198,-3.1783,-3.154,-3.1398,-3.1033,-3.0833,-3.0717,-3.0412,-3.0125,-3.0061,-3.0046,-3.003,-3.0014,-3.0014,-3.0003,-2.9992,-3.0042,-3.0064,-3.0064,-3.0038,-2.9991,-3.001,-2.9988,-3.0038,-3.0068,-3.0087,-3.0123,-3.0145,-3.0199,-3.02,-3.0208,-3.0235,-3.028,-3.0292,-3.0329,-3.0354,-3.0377,-3.0408,-3.04,-3.0406,-3.0422,-3.0453,-3.0439,-3.0449,-3.0465,-3.0446,-3.0425,-3.0406,-3.0402,-3.0416,-3.0402,-3.04,-3.04,-3.0444,-3.0513,-3.0879,-3.102,-3.1133,-3.1414,-3.1777,-3.176,-3.1713,-3.1558,-3.109,-3.1109,-3.0848,-3.0581,-3.0441,-3.0444,-3.0466,-3.0455,-3.0439,-3.039,-3.0329,-3.0305,-3.0286,-3.0299,-3.0292,-3.0312,-3.0318,-3.0324,-3.0324,-3.0311,-3.0324,-3.0305,-3.0324,-3.0292,-3.0254,-3.0253,-3.0233,-3.0206,-2.9994,-2.9884,-2.9687,-2.9603,-2.9155,-2.8636,-2.8825,-2.9068,-2.888,-2.8612,-2.8883,-2.9217,-2.9398,-2.9541,-2.9608,-2.9617,-2.9579,-3.3167,-3.2947,-3.2906,-3.2764,-3.2503,-3.1879,-3.1529,-3.1345,-3.0772,-3.0487,-3.0322,-3.0349,-3.0343,-3.0305,-3.0259,-3.0197,-3.0147,-3.0147,-3.0147,-3.0154,-3.0154,-3.0142,-3.015,-3.0145,-3.0178,-3.0194,-3.0194,-3.0185,-3.0128,-3.0109,-3.0111,-3.0147,-3.0195,-3.0241,-3.0247,-3.0286,-3.0317,-3.0316,-3.0334,-3.0385,-3.0414,-3.0422,-3.0455,-3.0495,-3.0525,-3.0505,-3.051,-3.0506,-3.0516,-3.0521,-3.0516,-3.051,-3.051,-3.051,-3.0516,-3.0525,-3.0525,-3.0505,-3.051,-3.051,-3.051,-3.054,-3.0515,-3.0535,-3.0578,-3.0709,-3.0666,-3.053,-3.0607,-3.0684,-3.0665,-3.0549,-3.054,-3.055,-3.0521,-3.0511,-3.0525,-3.052,-3.052,-3.0471,-3.0398,-3.0369,-3.0377,-3.0385,-3.0379,-3.0398,-3.0404,-3.0379,-3.0385,-3.0373,-3.0373,-3.0343,-3.033,-3.0324,-3.0311,-3.0286,-3.0273,-3.026,-2.9877,-2.9551,-2.9232,-2.8926,-2.8358,-2.781,-2.7834,-2.7982,-2.7792,-2.7839,-2.8179,-2.862,-2.9162,-2.9365,-2.9239,-2.9485,-2.9682,-3.2842,-3.2133,-3.2131,-3.1662,-3.1,-3.0848,-3.0767,-3.0728,-3.0567,-3.0458,-3.04,-3.0371,-3.0342,-3.0298,-3.0286,-3.0279,-3.0266,-3.026,-3.0272,-3.0253,-3.0279,-3.0279,-3.0286,-3.0292,-3.0273,-3.0286,-3.0292,-3.0248,-3.0227,-3.0214,-3.0221,-3.0267,-3.0286,-3.0323,-3.0354,-3.0364,-3.04,-3.0392,-3.0439,-3.0479,-3.05,-3.0511,-3.0506,-3.052,-3.0554,-3.0586,-3.0591,-3.0604,-3.0593,-3.0593,-3.0597,-3.0597,-3.0597,-3.0597,-3.0597,-3.058,-3.0543,-3.052,-3.0582,-3.0586,-3.0591,-3.06,-3.0585,-3.0589,-3.0589,-3.0589,-3.0578,-3.0597,-3.0602,-3.0582,-3.0586,-3.0582,-3.0597,-3.0593,-3.0574,-3.0589,-3.0585,-3.0586,-3.0586,-3.0582,-3.0521,-3.0491,-3.0471,-3.0474,-3.0483,-3.0483,-3.0477,-3.0477,-3.0447,-3.0431,-3.0425,-3.0402,-3.0385,-3.0398,-3.0379,-3.0367,-3.0342,-3.0336,-2.9793,-2.9256,-2.8757,-2.8297,-2.7526,-2.7088,-2.7045,-2.7046,-2.7076,-2.7231,-2.755,-2.7911,-2.8335,-2.8582,-2.8705,-2.9084,-2.9415,-3.1677,-3.1326,-3.1297,-3.1047,-3.0684,-3.0653,-3.0634,-3.0598,-3.0574,-3.0525,-3.0469,-3.0447,-3.0425,-3.0358,-3.0359,-3.0342,-3.0368,-3.0362,-3.0343,-3.0349,-3.0349,-3.0374,-3.0354,-3.0354,-3.0371,-3.04,-3.0398,-3.0417,-3.0377,-3.0328,-3.0334,-3.0358,-3.0392,-3.0428,-3.0469,-3.0456,-3.0477,-3.0516,-3.054,-3.0577,-3.0595,-3.0613,-3.0606,-3.0618,-3.0649,-3.0653,-3.0657,-3.0668,-3.0656,-3.066,-3.0667,-3.0655,-3.0655,-3.0655,-3.0658,-3.0655,-3.0625,-3.0622,-3.0661,-3.0649,-3.0657,-3.0661,-3.0645,-3.0649,-3.0653,-3.0656,-3.0644,-3.0655,-3.0655,-3.0655,-3.0651,-3.0655,-3.0667,-3.0664,-3.0633,-3.0649,-3.0642,-3.0649,-3.0657,-3.0657,-3.0629,-3.0585,-3.0554,-3.054,-3.0516,-3.0505,-3.05,-3.0495,-3.0485,-3.0469,-3.0463,-3.0463,-3.0472,-3.0461,-3.0461,-3.0436,-3.0398,-3.0252,-2.9632,-2.9038,-2.8302,-2.7657,-2.6867,-2.6244,-2.6,-2.61,-2.6326,-2.6581,-2.6833,-2.7148,-2.7481,-2.7733,-2.7963,-2.8015,-2.8415,-3.0833,-3.0798,-3.0767,-3.0716,-3.073,-3.0699,-3.0684,-3.0638,-3.0601,-3.0574,-3.0535,-3.05,-3.0474,-3.0433,-3.0422,-3.0431,-3.0433,-3.0433,-3.0427,-3.0414,-3.0419,-3.0417,-3.0433,-3.0419,-3.046,-3.053,-3.0506,-3.0535,-3.0521,-3.0506,-3.0481,-3.046,-3.0496,-3.054,-3.054,-3.0558,-3.0576,-3.0602,-3.0618,-3.0657,-3.0688,-3.0722,-3.072,-3.073,-3.0737,-3.0737,-3.072,-3.0727,-3.073,-3.0733,-3.0722,-3.0725,-3.0728,-3.0725,-3.0725,-3.0728,-3.0725,-3.0722,-3.0717,-3.0711,-3.0707,-3.0707,-3.0707,-3.0688,-3.0698,-3.0701,-3.0704,-3.0694,-3.0694,-3.0697,-3.0703,-3.0697,-3.0688,-3.0698,-3.0695,-3.0691,-3.0707,-3.0694,-3.069,-3.0671,-3.0667,-3.0637,-3.0614,-3.0575,-3.0565,-3.052,-3.0521,-3.0516,-3.0525,-3.0515,-3.0525,-3.053,-3.0504,-3.0499,-3.0493,-3.0479,-3.0446,-3.0041,-2.9403,-2.8636,-2.7797,-2.6973,-2.6183,-2.562,-2.5287,-2.5414,-2.5822,-2.5956,-2.6092,-2.6339,-2.6611,-2.6996,-2.7201,-2.7255,-2.7669,-3.0855,-3.0795,-3.08,-3.0791,-3.0798,-3.0733,-3.071,-3.0695,-3.0618,-3.0613,-3.0601,-3.054,-3.0505,-3.049,-3.0495,-3.049,-3.0499,-3.0493,-3.0485,-3.049,-3.0495,-3.0491,-3.0506,-3.0525,-3.0544,-3.0586,-3.058,-3.0621,-3.068,-3.0661,-3.0636,-3.0595,-3.0604,-3.0625,-3.0661,-3.0673,-3.0668,-3.0687,-3.0704,-3.0711,-3.0743,-3.0758,-3.0778,-3.0781,-3.0789,-3.0794,-3.0796,-3.0777,-3.076,-3.0779,-3.0762,-3.0765,-3.0767,-3.0765,-3.0767,-3.0767,-3.0774,-3.0772,-3.0765,-3.0742,-3.0703,-3.07,-3.0703,-3.0709,-3.0712,-3.0706,-3.0703,-3.0712,-3.072,-3.0714,-3.0712,-3.0703,-3.0714,-3.0731,-3.0728,-3.0725,-3.0742,-3.0716,-3.0713,-3.0697,-3.0688,-3.0675,-3.0672,-3.0632,-3.0622,-3.0582,-3.0567,-3.0558,-3.0577,-3.0568,-3.0578,-3.0564,-3.0535,-3.05,-3.049,-3.0384,-3.01,-2.9439,-2.8724,-2.7919,-2.708,-2.6299,-2.5663,-2.5534,-2.5337,-2.5317,-2.5311,-2.5532,-2.566,-2.5568,-2.5748,-2.62,-2.6636,-2.6837,-2.7419,-3.0859,-3.0856,-3.0825,-3.0803,-3.0786,-3.0781,-3.0742,-3.0701,-3.0674,-3.0665,-3.0657,-3.06,-3.0563,-3.0573,-3.0554,-3.0554,-3.0577,-3.0573,-3.0573,-3.0558,-3.0563,-3.0572,-3.0608,-3.0617,-3.0633,-3.0657,-3.0649,-3.0656,-3.069,-3.0737,-3.0743,-3.0707,-3.0671,-3.0683,-3.0717,-3.074,-3.0758,-3.0767,-3.0756,-3.0762,-3.0774,-3.0779,-3.0791,-3.0802,-3.0792,-3.0796,-3.0798,-3.0801,-3.0801,-3.0801,-3.0801,-3.0803,-3.0803,-3.0803,-3.0803,-3.0801,-3.0806,-3.0807,-3.0804,-3.0788,-3.0754,-3.0774,-3.0774,-3.0752,-3.075,-3.0752,-3.0752,-3.0754,-3.0769,-3.0747,-3.0754,-3.0774,-3.0774,-3.0765,-3.0757,-3.0774,-3.0769,-3.0747,-3.0745,-3.0745,-3.0712,-3.0697,-3.0697,-3.0697,-3.0669,-3.0656,-3.063,-3.0606,-3.0625,-3.0621,-3.0632,-3.0619,-3.0573,-3.0559,-3.0535,-3.0157,-2.9717,-2.8911,-2.8104,-2.7323,-2.658,-2.6008,-2.5493,-2.5407,-2.5388,-2.5365,-2.5322,-2.5288,-2.5304,-2.5357,-2.54,-2.5537,-2.5939,-2.6339,-2.6942,-3.0817,-3.0859,-3.0858,-3.0828,-3.0796,-3.08,-3.0762,-3.0739,-3.0719,-3.0711,-3.0695,-3.0661,-3.063,-3.063,-3.0626,-3.0626,-3.0645,-3.0622,-3.0645,-3.0626,-3.063,-3.0661,-3.0676,-3.071,-3.0727,-3.0717,-3.073,-3.0716,-3.0748,-3.0791,-3.0782,-3.0782,-3.0755,-3.0745,-3.0753,-3.0774,-3.0793,-3.0802,-3.0784,-3.0786,-3.0796,-3.0799,-3.0803,-3.081,-3.0817,-3.0821,-3.0822,-3.0844,-3.0847,-3.0828,-3.081,-3.0791,-3.0791,-3.0791,-3.0829,-3.0828,-3.0828,-3.0827,-3.0844,-3.0815,-3.0804,-3.0799,-3.0801,-3.078,-3.0799,-3.0799,-3.0773,-3.0774,-3.0796,-3.0799,-3.0799,-3.0794,-3.079,-3.0782,-3.0782,-3.078,-3.0776,-3.0774,-3.0791,-3.0789,-3.0757,-3.0733,-3.0742,-3.0742,-3.0722,-3.0698,-3.0665,-3.0644,-3.0641,-3.0653,-3.0657,-3.0649,-3.0633,-3.0606,-3.0582,-3.0012,-2.9384,-2.8586,-2.776,-2.6939,-2.6231,-2.5699,-2.5447,-2.5447,-2.5423,-2.541,-2.5369,-2.5337,-2.5298,-2.5247,-2.5291,-2.5335,-2.5394,-2.5823,-2.6142,-3.0788,-3.0817,-3.0859,-3.0857,-3.0801,-3.0785,-3.0792,-3.0778,-3.0794,-3.0767,-3.072,-3.0695,-3.0685,-3.0697,-3.0697,-3.0701,-3.0697,-3.0697,-3.0697,-3.0701,-3.0707,-3.0714,-3.0727,-3.0764,-3.0784,-3.0786,-3.0777,-3.0769,-3.0798,-3.0794,-3.0783,-3.0791,-3.0791,-3.0785,-3.0784,-3.0783,-3.0795,-3.0799,-3.0799,-3.08,-3.0803,-3.0786,-3.0788,-3.0811,-3.0853,-3.0875,-3.0875,-3.0876,-3.0897,-3.0877,-3.0839,-3.082,-3.082,-3.082,-3.0839,-3.0877,-3.0897,-3.0896,-3.0914,-3.0847,-3.0822,-3.0817,-3.0817,-3.0813,-3.0804,-3.0803,-3.0806,-3.0812,-3.0806,-3.0822,-3.0801,-3.0801,-3.0799,-3.0798,-3.0798,-3.0796,-3.0792,-3.0788,-3.0786,-3.0784,-3.079,-3.079,-3.0798,-3.0784,-3.0767,-3.0734,-3.0706,-3.0697,-3.0685,-3.0675,-3.0678,-3.0671,-3.066,-3.0656,-3.049,-2.9753,-2.9047,-2.8249,-2.7392,-2.6512,-2.5998,-2.565,-2.548,-2.5492,-2.5464,-2.5437,-2.5412,-2.5387,-2.5346,-2.5303,-2.5238,-2.5245,-2.5239,-2.5319,-2.5692,-3.0803,-3.0784,-3.0829,-3.0817,-3.0801,-3.0791,-3.0798,-3.0786,-3.0784,-3.0784,-3.0777,-3.0767,-3.0778,-3.0776,-3.0773,-3.0753,-3.0756,-3.0773,-3.0776,-3.0756,-3.0762,-3.0769,-3.0779,-3.0774,-3.0788,-3.0796,-3.0801,-3.0786,-3.0789,-3.0803,-3.0788,-3.0792,-3.0796,-3.0793,-3.0785,-3.0807,-3.0812,-3.0834,-3.0817,-3.0798,-3.0798,-3.0799,-3.08,-3.08,-3.0859,-3.0898,-3.0898,-3.0898,-3.0898,-3.0897,-3.0857,-3.0857,-3.0857,-3.0857,-3.0858,-3.0878,-3.0897,-3.0917,-3.0898,-3.0879,-3.0878,-3.0874,-3.085,-3.0849,-3.0866,-3.0866,-3.0866,-3.0864,-3.086,-3.086,-3.0861,-3.0816,-3.0813,-3.0789,-3.0788,-3.0783,-3.0799,-3.0798,-3.0796,-3.0794,-3.0798,-3.0798,-3.079,-3.0784,-3.0772,-3.076,-3.0733,-3.0714,-3.0703,-3.0697,-3.0688,-3.0688,-3.0682,-3.0678,-3.0396,-2.9505,-2.8773,-2.8035,-2.7016,-2.5981,-2.5602,-2.5534,-2.5505,-2.5494,-2.5487,-2.5476,-2.5449,-2.5421,-2.541,-2.5351,-2.5298,-2.5259,-2.5252,-2.5241,-2.5316,-3.0789,-3.0799,-3.0789,-3.0801,-3.0795,-3.082,-3.0813,-3.0804,-3.0789,-3.0801,-3.0796,-3.0786,-3.0802,-3.08,-3.0798,-3.08,-3.0802,-3.0802,-3.0784,-3.0786,-3.0786,-3.079,-3.0799,-3.0791,-3.0799,-3.0785,-3.0789,-3.0793,-3.0793,-3.0818,-3.082,-3.0801,-3.08,-3.08,-3.0801,-3.082,-3.084,-3.084,-3.082,-3.0799,-3.0799,-3.0798,-3.0798,-3.0818,-3.0836,-3.0854,-3.0853,-3.0871,-3.0889,-3.0868,-3.0867,-3.0866,-3.0866,-3.0866,-3.0867,-3.0849,-3.085,-3.0871,-3.0852,-3.0852,-3.0857,-3.0859,-3.0879,-3.0897,-3.0916,-3.0914,-3.0914,-3.0913,-3.0912,-3.0911,-3.089,-3.0847,-3.0845,-3.0822,-3.0838,-3.0836,-3.0833,-3.0831,-3.0809,-3.0807,-3.0786,-3.0785,-3.0803,-3.0799,-3.0792,-3.0782,-3.0754,-3.074,-3.0745,-3.0723,-3.0717,-3.0734,-3.0614,-3.0528,-3.0016,-2.9093,-2.8384,-2.7779,-2.6759,-2.5665,-2.5562,-2.5559,-2.5525,-2.5509,-2.5499,-2.5485,-2.5483,-2.5457,-2.5441,-2.5436,-2.541,-2.5351,-2.5284,-2.5264,-2.5253,-3.0737,-3.0801,-3.0788,-3.0786,-3.0803,-3.0857,-3.0858,-3.0792,-3.0811,-3.0807,-3.0801,-3.0796,-3.0813,-3.0812,-3.0804,-3.0806,-3.0812,-3.0813,-3.0816,-3.08,-3.0821,-3.0803,-3.0807,-3.0813,-3.0816,-3.0798,-3.08,-3.0801,-3.0801,-3.0819,-3.0834,-3.081,-3.0804,-3.0784,-3.0807,-3.0831,-3.0853,-3.0832,-3.0809,-3.0786,-3.0783,-3.08,-3.0799,-3.0799,-3.0798,-3.0817,-3.0816,-3.0813,-3.081,-3.0809,-3.0804,-3.0801,-3.0798,-3.0798,-3.0785,-3.0791,-3.0796,-3.0816,-3.0819,-3.0819,-3.0803,-3.0831,-3.0855,-3.0898,-3.0918,-3.0917,-3.0917,-3.0917,-3.0916,-3.0915,-3.0914,-3.0914,-3.0894,-3.0892,-3.0889,-3.0888,-3.0886,-3.0864,-3.0822,-3.082,-3.0798,-3.0796,-3.0792,-3.0789,-3.0806,-3.0783,-3.0776,-3.0771,-3.0761,-3.0774,-3.0769,-3.0777,-3.0616,-3.0355,-2.9691,-2.8854,-2.8067,-2.7478,-2.6561,-2.5622,-2.56,-2.559,-2.5577,-2.5543,-2.5531,-2.5515,-2.5515,-2.5505,-2.5498,-2.5495,-2.5468,-2.5432,-2.5345,-2.5346,-2.5332,-3.0698,-3.0739,-3.0791,-3.0791,-3.0806,-3.0816,-3.0854,-3.0879,-3.0877,-3.0875,-3.0874,-3.0871,-3.0871,-3.087,-3.0888,-3.0869,-3.087,-3.0892,-3.0874,-3.0855,-3.0818,-3.0799,-3.0819,-3.084,-3.082,-3.08,-3.0798,-3.0793,-3.0789,-3.0822,-3.0831,-3.0799,-3.079,-3.0786,-3.0806,-3.0829,-3.0822,-3.081,-3.0785,-3.0801,-3.0794,-3.0788,-3.0786,-3.0786,-3.0784,-3.0784,-3.0802,-3.08,-3.0798,-3.0798,-3.0795,-3.0791,-3.0791,-3.0793,-3.0798,-3.0798,-3.0802,-3.0786,-3.0794,-3.0796,-3.0799,-3.0788,-3.0815,-3.0847,-3.0894,-3.0897,-3.0897,-3.0898,-3.0898,-3.0898,-3.0898,-3.0917,-3.0917,-3.0916,-3.0915,-3.0913,-3.0893,-3.0891,-3.0869,-3.0847,-3.0825,-3.0822,-3.0819,-3.0798,-3.0816,-3.0795,-3.0794,-3.0789,-3.0785,-3.0798,-3.0788,-3.0798,-3.0639,-3.038,-2.9626,-2.879,-2.7942,-2.7117,-2.6238,-2.5648,-2.5617,-2.561,-2.5603,-2.559,-2.5557,-2.5565,-2.557,-2.5544,-2.5538,-2.5518,-2.5494,-2.5461,-2.5414,-2.5417,-2.5415,-3.0677,-3.0667,-3.0727,-3.0773,-3.0799,-3.079,-3.0833,-3.0847,-3.0857,-3.0859,-3.0918,-3.0918,-3.0917,-3.0898,-3.0878,-3.0878,-3.0917,-3.0898,-3.0879,-3.0839,-3.0819,-3.0798,-3.0817,-3.0834,-3.083,-3.0806,-3.0799,-3.0791,-3.0801,-3.0788,-3.0793,-3.076,-3.0745,-3.0756,-3.0753,-3.0753,-3.0764,-3.0762,-3.0767,-3.0784,-3.0777,-3.0769,-3.0769,-3.0764,-3.0762,-3.0778,-3.0776,-3.0773,-3.0773,-3.0756,-3.0756,-3.0759,-3.0742,-3.0747,-3.0747,-3.0747,-3.075,-3.0752,-3.0738,-3.074,-3.0769,-3.0795,-3.0802,-3.0817,-3.0834,-3.0845,-3.085,-3.0853,-3.0855,-3.0856,-3.0897,-3.0918,-3.0918,-3.0918,-3.0917,-3.0917,-3.0916,-3.0915,-3.0894,-3.0892,-3.0869,-3.0847,-3.0845,-3.0824,-3.0822,-3.08,-3.0798,-3.0796,-3.0794,-3.0789,-3.0801,-3.0792,-3.0636,-3.0402,-2.9549,-2.8672,-2.7768,-2.6922,-2.6142,-2.5687,-2.5656,-2.563,-2.5626,-2.5615,-2.56,-2.559,-2.5601,-2.5577,-2.5571,-2.5553,-2.5544,-2.5528,-2.5505,-2.5479,-2.5461,-3.0582,-3.0606,-3.0672,-3.074,-3.0781,-3.0784,-3.0798,-3.0802,-3.0816,-3.083,-3.0893,-3.0895,-3.0896,-3.0857,-3.0839,-3.0839,-3.0857,-3.0876,-3.0853,-3.0789,-3.0807,-3.0784,-3.0798,-3.0792,-3.0806,-3.0796,-3.0784,-3.0774,-3.0796,-3.0781,-3.0748,-3.0694,-3.0698,-3.0685,-3.0697,-3.069,-3.0697,-3.0685,-3.0707,-3.0733,-3.0713,-3.0713,-3.0694,-3.0688,-3.0678,-3.0688,-3.0704,-3.0701,-3.0694,-3.0704,-3.0688,-3.0678,-3.0685,-3.0688,-3.0688,-3.0688,-3.0704,-3.071,-3.0713,-3.0719,-3.0731,-3.0759,-3.0803,-3.0801,-3.0784,-3.0804,-3.0834,-3.0822,-3.0825,-3.0828,-3.0852,-3.0874,-3.0875,-3.0877,-3.0878,-3.0898,-3.0918,-3.0918,-3.0916,-3.0895,-3.0893,-3.0891,-3.0889,-3.0869,-3.0849,-3.0825,-3.0804,-3.0804,-3.0822,-3.082,-3.0813,-3.0806,-3.0689,-3.0357,-2.9401,-2.8523,-2.7584,-2.6742,-2.604,-2.5705,-2.5676,-2.5671,-2.5669,-2.566,-2.5632,-2.5619,-2.5632,-2.5608,-2.5603,-2.5593,-2.5585,-2.5601,-2.5585,-2.5544,-2.5518,-3.055,-3.0621,-3.0684,-3.0726,-3.073,-3.073,-3.0753,-3.0794,-3.0786,-3.0815,-3.0817,-3.0824,-3.0826,-3.0826,-3.0808,-3.0808,-3.0825,-3.0842,-3.0836,-3.0807,-3.0803,-3.0773,-3.078,-3.0778,-3.0789,-3.0779,-3.0764,-3.0722,-3.0698,-3.072,-3.0706,-3.068,-3.0657,-3.0622,-3.0637,-3.0629,-3.0625,-3.0625,-3.061,-3.0638,-3.0672,-3.0642,-3.0638,-3.0614,-3.0611,-3.0611,-3.0626,-3.0626,-3.0622,-3.063,-3.063,-3.0611,-3.0614,-3.0638,-3.0618,-3.0618,-3.0626,-3.0656,-3.0667,-3.0697,-3.0691,-3.0704,-3.0736,-3.0728,-3.075,-3.0776,-3.0792,-3.0783,-3.0789,-3.0815,-3.0819,-3.0823,-3.0826,-3.0831,-3.0854,-3.0875,-3.0916,-3.0918,-3.0918,-3.0917,-3.0916,-3.0915,-3.0913,-3.0912,-3.0892,-3.0872,-3.0872,-3.0872,-3.0871,-3.087,-3.0845,-3.082,-3.0798,-3.0349,-2.9391,-2.8512,-2.7671,-2.6849,-2.6165,-2.5909,-2.5711,-2.5687,-2.5683,-2.5684,-2.568,-2.5668,-2.5656,-2.5673,-2.5667,-2.5641,-2.5619,-2.5634,-2.563,-2.5595,-2.5574,-3.0447,-3.0519,-3.0625,-3.0653,-3.0657,-3.068,-3.0704,-3.0746,-3.0758,-3.0742,-3.0752,-3.079,-3.0799,-3.0799,-3.0799,-3.0799,-3.0798,-3.0796,-3.0806,-3.0795,-3.0765,-3.075,-3.0739,-3.0748,-3.0755,-3.0743,-3.0697,-3.0649,-3.0603,-3.061,-3.0597,-3.0604,-3.0563,-3.0554,-3.0549,-3.0559,-3.055,-3.055,-3.0511,-3.0525,-3.0586,-3.0563,-3.0557,-3.0557,-3.0548,-3.0543,-3.0554,-3.0534,-3.0554,-3.0563,-3.0552,-3.0557,-3.0565,-3.0593,-3.0617,-3.0621,-3.0606,-3.061,-3.0645,-3.0653,-3.0645,-3.066,-3.0667,-3.0674,-3.0711,-3.0745,-3.0772,-3.0786,-3.0782,-3.081,-3.0801,-3.0807,-3.081,-3.0817,-3.0823,-3.0827,-3.0853,-3.0876,-3.0897,-3.0917,-3.0918,-3.0918,-3.0917,-3.0915,-3.0895,-3.0894,-3.0894,-3.0895,-3.0914,-3.0915,-3.0873,-3.085,-3.0829,-3.0438,-2.9598,-2.8737,-2.7896,-2.7113,-2.6369,-2.5954,-2.5718,-2.5715,-2.5694,-2.5693,-2.569,-2.5684,-2.5697,-2.5692,-2.5692,-2.5669,-2.5666,-2.5664,-2.5658,-2.5636,-2.5628,-3.0329,-3.0416,-3.0519,-3.0578,-3.061,-3.0653,-3.0692,-3.07,-3.0667,-3.0685,-3.0691,-3.0751,-3.0784,-3.0791,-3.0774,-3.0791,-3.0791,-3.0772,-3.0764,-3.077,-3.0739,-3.0698,-3.0681,-3.0687,-3.0688,-3.0665,-3.0613,-3.0543,-3.0492,-3.0482,-3.0492,-3.0486,-3.0495,-3.049,-3.0479,-3.0469,-3.0463,-3.0463,-3.0453,-3.0442,-3.0449,-3.0462,-3.0487,-3.0487,-3.0477,-3.0481,-3.0476,-3.0471,-3.0485,-3.0481,-3.0487,-3.0501,-3.0511,-3.0544,-3.0554,-3.0577,-3.0582,-3.0572,-3.06,-3.0604,-3.0593,-3.0597,-3.0597,-3.0633,-3.0677,-3.0703,-3.0737,-3.0739,-3.0759,-3.0782,-3.0774,-3.0784,-3.079,-3.0798,-3.0786,-3.0795,-3.0824,-3.0851,-3.0872,-3.0893,-3.0915,-3.0897,-3.0918,-3.0918,-3.0917,-3.0916,-3.0915,-3.0915,-3.0916,-3.0916,-3.0896,-3.0896,-3.0876,-3.0367,-2.9879,-2.9134,-2.8351,-2.7549,-2.6845,-2.6215,-2.5743,-2.5723,-2.5703,-2.5698,-2.5696,-2.5693,-2.5692,-2.5689,-2.5689,-2.5687,-2.5681,-2.5678,-2.5683,-2.5681,-2.5686,-3.0305,-3.0404,-3.0442,-3.0471,-3.053,-3.0602,-3.061,-3.0613,-3.0633,-3.0622,-3.0626,-3.0634,-3.0664,-3.0727,-3.0727,-3.0724,-3.0714,-3.0714,-3.072,-3.0722,-3.0695,-3.0653,-3.0614,-3.0597,-3.0586,-3.0559,-3.0511,-3.0486,-3.043,-3.0419,-3.0422,-3.0414,-3.0427,-3.0408,-3.0402,-3.039,-3.0354,-3.0348,-3.0355,-3.033,-3.0349,-3.0371,-3.0411,-3.0406,-3.0414,-3.0408,-3.0408,-3.0427,-3.0408,-3.0419,-3.0422,-3.043,-3.0465,-3.0495,-3.0486,-3.051,-3.0496,-3.0506,-3.0511,-3.0525,-3.0535,-3.0573,-3.0597,-3.06,-3.0621,-3.0633,-3.0661,-3.0649,-3.0681,-3.0719,-3.0739,-3.0772,-3.0799,-3.0793,-3.0786,-3.0796,-3.0807,-3.0817,-3.0824,-3.0848,-3.0871,-3.0874,-3.0895,-3.0897,-3.0917,-3.0918,-3.0918,-3.0918,-3.0918,-3.0918,-3.0918,-3.0918,-3.0918,-3.0897,-3.0641,-2.9762,-2.894,-2.812,-2.726,-2.6477,-2.5947,-2.5732,-2.5691,-2.5688,-2.5705,-2.5703,-2.5702,-2.5703,-2.5698,-2.5697,-2.569,-2.5689,-2.5696,-2.5701,-2.5703]},{"header":{"parameterUnit":"m.s-1","parameterCategory":1,"la1":31.0,"la2":29.5877,"lo1":-88.7671,"lo2":-86.6584,"dy":0.0162,"dx":0.0185,"nx":115,"ny":88,"refTime":"2025-06-16T18:00:00:Z","depth":0,"parameterNumber":3,"parameterNumberName":"V-component_of_WINDS"},"data":[0.0,0.0,0.0,0.0,0.0,0.0,0.0,0.0,0.0,0.0,0.0,0.0,0.0,0.0,0.0,0.0,0.0,0.0,0.0,0.0,0.0,0.0,0.0,0.0,0.0,0.0,0.0,0.0,0.0,0.0,0.0,0.0,0.0,0.0,0.0,0.0,0.0,0.0,0.0,0.0,0.0,0.0,0.0,0.0,0.0,0.0,0.0,0.0,0.0,0.0,0.0,0.0,0.0,0.0,0.0,0.0,0.0,0.0,0.0,0.0,0.0,0.0,0.0,0.0,0.0,0.0,0.0,0.0,0.0,0.0,0.0,0.0,0.0,0.0,0.0,0.0,0.0,0.0,0.0,0.0,0.0,0.0,0.0,0.0,0.0,0.0,0.0,0.0,0.0,0.0,0.0,0.0,0.0,0.0,0.0,0.0,0.0,0.0,0.0,0.0,0.0,0.0,0.0,0.0,0.0,0.0,0.0,0.0,0.0,0.0,0.0,0.0,0.0,0.0,0.0,0.0,0.0,0.0,0.0,0.0,0.0,0.0,0.0,0.0,0.0,0.0,0.0,0.0,0.0,0.0,0.0,0.0,0.0,0.0,0.0,0.0,0.0,0.0,0.0,0.0,0.0,0.0,0.0,0.0,0.0,0.0,0.0,0.0,0.0,0.0,0.0,0.0,0.0,0.0,0.0,0.0,0.0,0.0,0.0,0.0,0.0,0.0,0.0,0.0,0.0,0.0,0.0,0.0,0.0,0.0,0.0,0.0,0.0,0.0,0.0,0.0,0.0,0.0,0.0,0.0,0.0,0.0,0.0,0.0,0.0,0.0,0.0,0.0,0.0,0.0,0.0,0.0,0.0,0.0,0.0,0.0,0.0,0.0,0.0,0.0,0.0,0.0,0.0,0.0,0.0,0.0,0.0,0.0,0.0,0.0,0.0,0.0,0.0,0.0,0.0,0.0,0.0,0.0,0.0,0.0,0.0,0.0,0.0,0.0,0.0,0.0,0.0,0.0,0.0,0.0,0.0,0.0,0.0,0.0,0.0,0.0,0.0,0.0,0.0,0.0,0.0,0.0,0.0,0.0,0.0,0.0,0.0,0.0,0.0,0.0,0.0,0.0,0.0,0.0,0.0,0.0,0.0,0.0,0.0,0.0,0.0,0.0,0.0,0.0,0.0,0.0,0.0,0.0,0.0,0.0,0.0,0.0,0.0,0.0,0.0,0.0,0.0,0.0,0.0,0.0,0.0,0.0,0.0,0.0,0.0,0.0,0.0,0.0,0.0,0.0,0.0,0.0,0.0,0.0,0.0,0.0,0.0,0.0,0.0,0.0,0.0,0.0,0.0,0.0,0.0,0.0,0.0,0.0,0.0,0.0,0.0,0.0,0.0,0.0,0.0,0.0,0.0,0.0,0.0,0.0,0.0,0.0,0.0,0.0,0.0,0.0,0.0,0.0,0.0,0.0,0.0,0.0,0.0,0.0,0.0,0.0,0.0,0.0,0.0,0.0,0.0,0.0,0.0,0.0,0.0,0.0,0.0,0.0,0.0,0.0,0.0,0.0,0.0,0.0,0.0,0.0,0.0,0.0,0.0,0.0,0.0,0.0,0.0,0.0,0.0,0.0,0.0,0.0,0.0,0.0,0.0,0.0,0.0,0.0,0.0,0.0,0.0,0.0,0.0,0.0,0.0,0.0,0.0,0.0,0.0,0.0,0.0,0.0,0.0,0.0,0.0,0.0,0.0,0.0,0.0,0.0,0.0,0.0,0.0,0.0,0.0,0.0,0.0,0.0,0.0,0.0,0.0,0.0,0.0,0.0,0.0,0.0,0.0,0.0,0.0,0.0,0.0,0.0,0.0,0.0,0.0,0.0,0.0,0.0,0.0,0.0,0.0,0.0,0.0,0.0,0.0,0.0,0.0,0.0,0.0,0.0,0.0,0.0,0.0,0.0,0.0,0.0,0.0,0.0,0.0,0.0,0.0,0.0,0.0,0.0,0.0,0.0,0.0,0.0,0.0,0.0,0.0,0.0,0.0,0.0,0.0,0.0,0.0,0.0,0.0,0.0,0.0,0.0,0.0,0.0,0.0,0.0,0.0,0.0,0.0,0.0,0.0,0.0,0.0,0.0,0.0,0.0,0.0,0.0,0.0,0.0,0.0,0.0,0.0,0.0,0.0,0.0,0.0,0.0,0.0,0.0,0.0,0.0,0.0,0.0,0.0,0.0,0.0,0.0,0.0,0.0,0.0,0.0,0.0,0.0,0.0,0.0,0.0,0.0,0.0,0.0,0.0,0.0,0.0,0.0,0.0,0.0,0.0,0.0,0.0,0.0,0.0,0.0,0.0,0.0,0.0,0.0,0.0,0.0,0.0,0.0,0.0,0.0,0.0,0.0,0.0,0.0,0.0,0.0,0.0,0.0,0.0,0.0,0.0,0.0,0.0,0.0,0.0,0.0,0.0,0.0,0.0,0.0,0.0,0.0,0.0,0.0,0.0,0.0,0.0,0.0,0.0,0.0,0.0,0.0,0.0,0.0,0.0,0.0,0.0,0.0,0.0,0.0,0.0,0.0,0.0,0.0,0.0,0.0,0.0,0.0,0.0,0.0,0.0,0.0,0.0,0.0,0.0,0.0,0.0,0.0,0.0,0.0,0.0,0.0,0.0,0.0,0.0,0.0,0.0,0.0,0.0,0.0,0.0,0.0,0.0,0.0,0.0,0.0,0.0,0.0,0.0,0.0,0.0,0.0,0.0,0.0,0.0,0.0,0.0,0.0,0.0,0.0,0.0,0.0,0.0,0.0,0.0,0.0,0.0,0.0,0.0,0.0,0.0,0.0,0.0,0.0,0.0,0.0,0.0,0.0,0.0,0.0,0.0,0.0,0.0,0.0,0.0,0.0,0.0,0.0,0.0,0.0,0.0,0.0,0.0,0.0,0.0,0.0,0.0,0.0,0.0,0.0,0.0,0.0,0.0,0.0,0.0,0.0,0.0,0.0,0.0,0.0,0.0,0.0,0.0,0.0,0.0,0.0,0.0,0.0,0.0,0.0,0.0,0.0,0.0,0.0,0.0,0.0,0.0,0.0,0.0,0.0,0.0,0.0,0.0,0.0,0.0,0.0,0.0,0.0,0.0,0.0,0.0,0.0,0.0,0.0,0.0,0.0,0.0,0.0,0.0,0.0,0.0,0.0,0.0,0.0,0.0,0.0,0.0,0.0,0.0,0.0,0.0,0.0,0.0,0.0,0.0,0.0,0.0,0.0,0.0,0.0,0.0,0.0,0.0,0.0,0.0,0.0,0.0,0.0,0.0,0.0,0.0,0.0,0.0,0.0,0.0,0.0,0.0,0.0,0.0,0.0,0.0,0.0,0.0,0.0,0.0,0.0,0.0,0.0,0.0,0.0,0.0,0.0,0.0,0.0,0.0,0.0,0.0,0.0,0.0,0.0,0.0,0.0,0.0,0.0,0.0,0.0,0.0,0.0,0.0,0.0,0.0,0.0,0.0,0.0,0.0,0.0,0.0,0.0,0.0,0.0,0.0,0.0,0.0,0.0,0.0,0.0,0.0,0.0,0.0,0.0,0.0,0.0,0.0,0.0,0.0,0.0,0.0,0.0,0.0,0.0,0.0,0.0,0.0,0.0,0.0,0.0,0.0,0.0,0.0,0.0,0.0,0.0,0.0,0.0,0.0,0.0,0.0,0.0,0.0,0.0,0.0,0.0,0.0,0.0,0.0,0.0,0.0,0.0,0.0,0.0,0.0,0.0,0.0,0.0,0.0,0.0,0.0,0.0,0.0,0.0,0.0,0.0,0.0,0.0,0.0,0.0,0.0,0.0,0.0,0.0,0.0,0.0,0.0,0.0,0.0,0.0,0.0,0.0,0.0,0.0,0.0,0.0,0.0,0.0,0.0,0.0,0.0,0.0,0.0,0.0,0.0,0.0,0.0,0.0,0.0,0.0,0.0,0.0,0.0,0.0,0.0,0.0,0.0,0.0,0.0,0.0,0.0,0.0,0.0,0.0,0.0,0.0,0.0,0.0,0.0,0.0,0.0,0.0,0.0,0.0,0.0,0.0,0.0,0.0,0.0,0.0,0.0,0.0,0.0,0.0,0.0,0.0,0.0,0.0,0.0,0.0,0.0,0.0,0.0,0.0,0.0,0.0,0.0,0.0,0.0,0.0,0.0,0.0,0.0,0.0,0.0,0.0,0.0,0.0,0.0,0.0,0.0,0.0,0.0,0.0,0.0,0.0,0.0,0.0,0.0,0.0,0.0,0.0,-1.906,0.0,0.0,0.0,0.0,0.0,0.0,0.0,0.0,0.0,0.0,0.0,0.0,0.0,0.0,0.0,0.0,0.0,0.0,0.0,0.0,0.0,0.0,0.0,0.0,0.0,0.0,0.0,0.0,0.0,0.0,0.0,0.0,0.0,0.0,0.0,0.0,0.0,0.0,0.0,0.0,0.0,0.0,0.0,0.0,0.0,0.0,0.0,0.0,0.0,0.0,0.0,0.0,0.0,0.0,0.0,0.0,0.0,0.0,0.0,0.0,0.0,0.0,0.0,0.0,0.0,0.0,0.0,0.0,0.0,0.0,0.0,0.0,0.0,0.0,0.0,0.0,0.0,0.0,0.0,0.0,0.0,0.0,0.0,0.0,0.0,0.0,0.0,0.0,0.0,0.0,0.0,0.0,0.0,0.0,0.0,0.0,0.0,0.0,0.0,0.0,0.0,0.0,0.0,0.0,0.0,0.0,0.0,0.0,0.0,0.0,-2.1308,-2.1308,-2.0785,-2.0269,-1.973,0.0,0.0,0.0,0.0,0.0,0.0,0.0,0.0,0.0,0.0,0.0,0.0,0.0,0.0,0.0,0.0,0.0,0.0,0.0,0.0,0.0,0.0,0.0,0.0,0.0,0.0,0.0,0.0,0.0,0.0,0.0,0.0,0.0,0.0,0.0,0.0,0.0,0.0,0.0,0.0,0.0,0.0,0.0,0.0,0.0,0.0,0.0,0.0,0.0,0.0,0.0,0.0,0.0,0.0,0.0,0.0,0.0,0.0,0.0,0.0,0.0,0.0,0.0,0.0,0.0,0.0,0.0,0.0,0.0,0.0,0.0,0.0,0.0,0.0,0.0,0.0,0.0,0.0,0.0,0.0,0.0,0.0,0.0,0.0,0.0,0.0,0.0,0.0,0.0,0.0,0.0,0.0,0.0,0.0,0.0,0.0,0.0,0.0,0.0,0.0,0.0,0.0,0.0,0.0,0.0,0.0,0.0,0.0,0.0,0.0,0.0,0.0,-2.0662,-2.0159,-1.9975,0.0,0.0,0.0,0.0,0.0,0.0,0.0,0.0,0.0,0.0,0.0,0.0,0.0,0.0,0.0,0.0,0.0,0.0,0.0,0.0,0.0,0.0,0.0,0.0,0.0,0.0,0.0,0.0,0.0,0.0,0.0,0.0,0.0,0.0,0.0,0.0,0.0,0.0,0.0,0.0,0.0,0.0,0.0,0.0,0.0,0.0,0.0,0.0,0.0,0.0,0.0,0.0,0.0,0.0,0.0,0.0,0.0,0.0,0.0,0.0,0.0,0.0,0.0,0.0,0.0,0.0,0.0,0.0,0.0,0.0,0.0,0.0,0.0,0.0,0.0,0.0,0.0,0.0,0.0,0.0,0.0,0.0,0.0,0.0,0.0,0.0,0.0,0.0,0.0,0.0,0.0,0.0,0.0,0.0,0.0,0.0,0.0,0.0,0.0,0.0,0.0,0.0,0.0,0.0,0.0,0.0,0.0,0.0,0.0,0.0,-2.1125,-2.1125,-2.1032,0.0,-1.9147,0.0,0.0,0.0,0.0,0.0,0.0,0.0,0.0,0.0,0.0,0.0,0.0,0.0,0.0,0.0,0.0,0.0,0.0,0.0,0.0,0.0,0.0,0.0,0.0,0.0,0.0,0.0,0.0,0.0,0.0,0.0,0.0,0.0,0.0,0.0,0.0,0.0,0.0,0.0,0.0,0.0,0.0,0.0,0.0,0.0,0.0,0.0,0.0,0.0,0.0,0.0,0.0,0.0,0.0,0.0,0.0,0.0,0.0,0.0,0.0,0.0,0.0,0.0,0.0,0.0,0.0,0.0,0.0,0.0,0.0,0.0,0.0,0.0,0.0,0.0,0.0,0.0,0.0,0.0,0.0,0.0,0.0,0.0,0.0,0.0,0.0,0.0,0.0,0.0,0.0,0.0,0.0,0.0,0.0,0.0,0.0,0.0,0.0,0.0,0.0,0.0,0.0,0.0,0.0,0.0,0.0,0.0,0.0,0.0,0.0,-2.0799,-2.0789,-2.0511,-1.9836,0.0,0.0,0.0,0.0,0.0,0.0,0.0,0.0,0.0,0.0,0.0,0.0,0.0,0.0,0.0,0.0,0.0,0.0,0.0,0.0,0.0,0.0,0.0,0.0,0.0,0.0,0.0,0.0,0.0,0.0,0.0,0.0,0.0,0.0,0.0,0.0,0.0,0.0,0.0,0.0,0.0,0.0,0.0,0.0,0.0,0.0,0.0,0.0,0.0,0.0,0.0,0.0,0.0,0.0,0.0,0.0,0.0,0.0,0.0,0.0,0.0,0.0,0.0,0.0,0.0,0.0,0.0,0.0,0.0,0.0,0.0,0.0,0.0,0.0,0.0,0.0,0.0,0.0,0.0,0.0,0.0,0.0,0.0,0.0,0.0,0.0,0.0,0.0,0.0,0.0,0.0,0.0,0.0,0.0,0.0,0.0,0.0,0.0,0.0,0.0,0.0,0.0,0.0,0.0,0.0,0.0,0.0,0.0,0.0,0.0,-2.0217,0.0,-2.0372,-1.9913,-1.9249,-1.8436,0.0,0.0,0.0,0.0,0.0,0.0,0.0,0.0,0.0,0.0,0.0,0.0,0.0,0.0,0.0,0.0,0.0,0.0,0.0,0.0,0.0,0.0,0.0,0.0,0.0,0.0,0.0,0.0,0.0,0.0,0.0,0.0,0.0,0.0,0.0,0.0,0.0,0.0,0.0,0.0,0.0,0.0,0.0,0.0,0.0,0.0,0.0,0.0,0.0,0.0,0.0,0.0,0.0,0.0,0.0,0.0,0.0,0.0,0.0,0.0,0.0,0.0,0.0,0.0,0.0,0.0,0.0,0.0,0.0,0.0,0.0,0.0,0.0,0.0,0.0,0.0,0.0,0.0,0.0,0.0,0.0,0.0,0.0,0.0,0.0,0.0,0.0,0.0,0.0,0.0,0.0,0.0,0.0,0.0,0.0,0.0,0.0,0.0,0.0,0.0,0.0,0.0,0.0,0.0,0.0,0.0,0.0,0.0,0.0,-1.9932,-1.9942,-1.9923,-1.9465,-1.8848,0.0,0.0,0.0,0.0,0.0,0.0,0.0,0.0,0.0,0.0,0.0,0.0,0.0,0.0,0.0,0.0,0.0,0.0,0.0,0.0,0.0,0.0,0.0,0.0,0.0,0.0,0.0,0.0,0.0,0.0,0.0,0.0,0.0,0.0,0.0,0.0,0.0,0.0,0.0,0.0,0.0,0.0,0.0,0.0,0.0,0.0,0.0,0.0,0.0,0.0,0.0,0.0,0.0,0.0,0.0,0.0,0.0,0.0,0.0,0.0,0.0,0.0,0.0,0.0,0.0,0.0,0.0,0.0,0.0,0.0,0.0,0.0,0.0,0.0,0.0,0.0,0.0,0.0,0.0,0.0,0.0,0.0,0.0,0.0,0.0,0.0,0.0,0.0,0.0,0.0,0.0,0.0,0.0,0.0,0.0,0.0,0.0,0.0,0.0,0.0,0.0,0.0,0.0,0.0,0.0,0.0,0.0,0.0,0.0,-1.9085,-1.913,-1.924,-1.9471,-1.8825,-1.8339,0.0,0.0,0.0,0.0,0.0,0.0,0.0,0.0,0.0,0.0,0.0,0.0,0.0,0.0,0.0,0.0,0.0,0.0,0.0,0.0,0.0,0.0,0.0,0.0,0.0,0.0,0.0,0.0,0.0,0.0,0.0,0.0,0.0,0.0,0.0,0.0,0.0,0.0,0.0,0.0,0.0,0.0,0.0,0.0,0.0,0.0,0.0,0.0,0.0,0.0,0.0,0.0,0.0,0.0,0.0,0.0,0.0,0.0,0.0,0.0,0.0,0.0,0.0,0.0,0.0,0.0,0.0,0.0,0.0,0.0,0.0,0.0,0.0,0.0,0.0,0.0,0.0,0.0,0.0,0.0,0.0,0.0,0.0,0.0,0.0,0.0,0.0,0.0,0.0,0.0,0.0,0.0,0.0,0.0,0.0,0.0,0.0,0.0,0.0,0.0,0.0,0.0,0.0,0.0,0.0,0.0,0.0,0.0,0.0,-1.864,0.0,-1.899,0.0,-1.8608,-1.8183,0.0,0.0,0.0,0.0,0.0,0.0,0.0,0.0,0.0,0.0,0.0,0.0,0.0,0.0,0.0,0.0,0.0,0.0,0.0,0.0,0.0,0.0,0.0,0.0,0.0,0.0,0.0,0.0,0.0,0.0,0.0,0.0,0.0,0.0,0.0,0.0,0.0,0.0,0.0,0.0,0.0,0.0,0.0,0.0,0.0,0.0,0.0,0.0,0.0,0.0,0.0,0.0,0.0,0.0,0.0,0.0,0.0,0.0,0.0,0.0,0.0,0.0,0.0,0.0,0.0,0.0,0.0,0.0,0.0,0.0,0.0,0.0,0.0,0.0,0.0,0.0,0.0,0.0,0.0,0.0,0.0,0.0,0.0,0.0,0.0,0.0,0.0,0.0,0.0,0.0,0.0,0.0,0.0,0.0,0.0,0.0,0.0,0.0,0.0,0.0,0.0,0.0,0.0,0.0,0.0,0.0,0.0,0.0,-1.8002,-1.8537,-1.8935,-1.9074,-1.9182,-1.8737,-1.8368,0.0,0.0,0.0,0.0,0.0,0.0,0.0,0.0,0.0,0.0,0.0,0.0,0.0,0.0,0.0,0.0,0.0,0.0,0.0,0.0,0.0,0.0,0.0,0.0,0.0,0.0,0.0,0.0,0.0,0.0,0.0,0.0,0.0,0.0,0.0,0.0,0.0,0.0,0.0,0.0,0.0,0.0,0.0,0.0,0.0,0.0,0.0,0.0,0.0,0.0,0.0,0.0,0.0,0.0,0.0,0.0,0.0,0.0,0.0,0.0,0.0,0.0,0.0,0.0,0.0,0.0,0.0,0.0,0.0,0.0,0.0,0.0,0.0,0.0,0.0,0.0,0.0,0.0,0.0,0.0,0.0,0.0,0.0,0.0,0.0,0.0,0.0,0.0,0.0,0.0,0.0,0.0,0.0,0.0,0.0,0.0,0.0,0.0,0.0,0.0,0.0,0.0,0.0,0.0,0.0,0.0,0.0,0.0,0.0,-1.7803,-1.759,-1.7829,-1.8471,-1.8051,-1.7783,0.0,0.0,0.0,0.0,0.0,0.0,0.0,0.0,0.0,0.0,0.0,0.0,0.0,0.0,0.0,0.0,0.0,0.0,0.0,0.0,0.0,0.0,0.0,0.0,0.0,0.0,0.0,0.0,0.0,0.0,0.0,0.0,0.0,0.0,0.0,0.0,0.0,0.0,0.0,0.0,0.0,0.0,0.0,0.0,0.0,0.0,0.0,0.0,0.0,0.0,0.0,0.0,0.0,0.0,0.0,0.0,0.0,0.0,0.0,0.0,0.0,0.0,0.0,0.0,0.0,0.0,0.0,0.0,0.0,0.0,0.0,0.0,0.0,0.0,0.0,0.0,0.0,0.0,0.0,0.0,0.0,0.0,0.0,0.0,0.0,0.0,0.0,0.0,0.0,0.0,0.0,0.0,0.0,0.0,0.0,0.0,0.0,0.0,0.0,0.0,0.0,0.0,0.0,0.0,0.0,0.0,0.0,0.0,0.0,-1.6765,-1.6872,-1.7243,-1.7828,-1.7711,-1.7683,-1.7679,0.0,0.0,0.0,0.0,0.0,0.0,0.0,0.0,0.0,0.0,0.0,0.0,0.0,0.0,0.0,0.0,0.0,0.0,0.0,0.0,0.0,0.0,0.0,0.0,0.0,0.0,0.0,0.0,0.0,0.0,0.0,0.0,0.0,0.0,0.0,0.0,0.0,0.0,0.0,0.0,0.0,0.0,0.0,0.0,0.0,0.0,0.0,0.0,0.0,0.0,0.0,0.0,0.0,0.0,0.0,0.0,0.0,0.0,0.0,0.0,0.0,0.0,0.0,0.0,0.0,0.0,0.0,0.0,0.0,0.0,0.0,0.0,0.0,0.0,0.0,0.0,0.0,0.0,0.0,0.0,0.0,0.0,0.0,0.0,0.0,0.0,0.0,0.0,0.0,0.0,0.0,0.0,0.0,0.0,0.0,0.0,0.0,0.0,0.0,0.0,0.0,0.0,0.0,0.0,0.0,0.0,0.0,0.0,-1.5533,-1.6664,-1.7227,-1.7154,-1.7703,-1.7902,0.0,0.0,0.0,0.0,0.0,0.0,0.0,0.0,0.0,0.0,0.0,0.0,0.0,0.0,0.0,0.0,0.0,0.0,0.0,0.0,0.0,0.0,0.0,0.0,0.0,0.0,0.0,0.0,0.0,0.0,0.0,0.0,0.0,0.0,0.0,0.0,0.0,0.0,0.0,0.0,0.0,0.0,0.0,0.0,0.0,0.0,0.0,0.0,0.0,0.0,0.0,0.0,0.0,0.0,0.0,0.0,0.0,0.0,0.0,0.0,0.0,0.0,0.0,0.0,0.0,0.0,0.0,0.0,0.0,0.0,0.0,0.0,0.0,0.0,0.0,0.0,0.0,0.0,0.0,0.0,0.0,0.0,0.0,0.0,0.0,0.0,0.0,0.0,0.0,0.0,0.0,0.0,0.0,0.0,0.0,0.0,0.0,0.0,0.0,0.0,0.0,0.0,0.0,0.0,0.0,0.0,0.0,0.0,0.0,-1.474,-1.5419,-1.6094,-1.6723,-1.6935,-1.7315,0.0,0.0,0.0,0.0,0.0,0.0,0.0,0.0,0.0,0.0,0.0,0.0,0.0,0.0,0.0,0.0,0.0,0.0,0.0,0.0,0.0,0.0,0.0,0.0,0.0,0.0,0.0,0.0,0.0,0.0,0.0,0.0,0.0,0.0,0.0,0.0,0.0,0.0,0.0,0.0,0.0,0.0,0.0,0.0,0.0,0.0,0.0,0.0,0.0,0.0,0.0,0.0,0.0,0.0,0.0,0.0,0.0,0.0,0.0,0.0,0.0,0.0,0.0,0.0,0.0,0.0,0.0,0.0,0.0,0.0,0.0,0.0,0.0,0.0,0.0,0.0,0.0,0.0,0.0,0.0,0.0,0.0,0.0,0.0,0.0,0.0,0.0,0.0,0.0,0.0,0.0,0.0,0.0,0.0,0.0,0.0,0.0,0.0,0.0,0.0,0.0,0.0,0.0,0.0,0.0,0.0,0.0,0.0,-1.4279,-1.4286,-1.4661,-1.5213,-1.594,-1.6586,-1.7107,0.0,0.0,0.0,0.0,0.0,0.0,0.0,0.0,0.0,0.0,0.0,0.0,0.0,0.0,0.0,0.0,0.0,0.0,0.0,0.0,0.0,0.0,0.0,0.0,0.0,0.0,0.0,0.0,0.0,0.0,0.0,0.0,0.0,0.0,0.0,0.0,0.0,0.0,0.0,0.0,0.0,0.0,0.0,0.0,0.0,0.0,0.0,0.0,0.0,0.0,0.0,0.0,0.0,0.0,0.0,0.0,0.0,0.0,0.0,0.0,0.0,0.0,0.0,0.0,0.0,0.0,0.0,0.0,0.0,0.0,0.0,0.0,0.0,0.0,0.0,0.0,0.0,0.0,0.0,0.0,0.0,0.0,0.0,0.0,0.0,0.0,0.0,0.0,0.0,0.0,0.0,0.0,0.0,0.0,0.0,0.0,0.0,0.0,0.0,0.0,0.0,0.0,0.0,0.0,0.0,0.0,0.0,0.0,-1.4088,-1.4088,-1.4321,-1.465,-1.5097,-1.6369,-1.712,0.0,0.0,0.0,0.0,0.0,0.0,0.0,0.0,0.0,0.0,0.0,0.0,0.0,0.0,0.0,0.0,0.0,0.0,0.0,0.0,0.0,0.0,0.0,0.0,0.0,0.0,0.0,0.0,0.0,0.0,0.0,0.0,0.0,0.0,0.0,0.0,0.0,0.0,0.0,0.0,0.0,0.0,0.0,0.0,0.0,0.0,0.0,0.0,0.0,0.0,0.0,0.0,0.0,0.0,0.0,0.0,0.0,0.0,0.0,0.0,0.0,0.0,0.0,0.0,0.0,0.0,0.0,0.0,0.0,0.0,0.0,0.0,0.0,0.0,0.0,0.0,0.0,0.0,0.0,0.0,0.0,0.0,0.0,0.0,0.0,0.0,0.0,0.0,0.0,0.0,0.0,0.0,0.0,0.0,0.0,0.0,0.0,0.0,0.0,0.0,0.0,0.0,0.0,0.0,0.0,0.0,0.0,0.0,-1.4088,-1.4088,-1.4454,-1.4692,-1.4783,-1.5816,-1.6737,0.0,0.0,0.0,0.0,0.0,0.0,0.0,0.0,0.0,0.0,0.0,0.0,0.0,0.0,0.0,0.0,0.0,0.0,0.0,0.0,0.0,0.0,0.0,0.0,0.0,0.0,0.0,0.0,0.0,0.0,0.0,0.0,0.0,0.0,0.0,0.0,0.0,0.0,0.0,0.0,0.0,0.0,0.0,0.0,0.0,0.0,0.0,0.0,-1.4238,0.0,0.0,0.0,0.0,0.0,0.0,0.0,0.0,0.0,0.0,0.0,0.0,0.0,0.0,0.0,0.0,0.0,0.0,0.0,0.0,0.0,0.0,0.0,0.0,0.0,0.0,0.0,0.0,0.0,0.0,0.0,0.0,0.0,0.0,0.0,0.0,0.0,0.0,0.0,0.0,0.0,0.0,0.0,0.0,0.0,0.0,0.0,0.0,0.0,0.0,0.0,0.0,0.0,0.0,0.0,0.0,0.0,0.0,0.0,-1.4088,-1.4088,-1.4489,-1.4692,-1.4734,-1.5624,-1.6533,0.0,0.0,0.0,0.0,0.0,0.0,0.0,0.0,0.0,0.0,0.0,0.0,0.0,0.0,0.0,0.0,0.0,0.0,0.0,0.0,0.0,0.0,0.0,0.0,0.0,0.0,0.0,0.0,0.0,0.0,0.0,0.0,0.0,0.0,0.0,0.0,0.0,0.0,0.0,0.0,0.0,0.0,0.0,0.0,0.0,0.0,0.0,0.0,0.0,0.0,0.0,0.0,0.0,0.0,0.0,0.0,0.0,0.0,0.0,0.0,0.0,0.0,0.0,0.0,0.0,0.0,0.0,0.0,0.0,0.0,0.0,0.0,0.0,0.0,0.0,0.0,0.0,0.0,0.0,0.0,0.0,0.0,0.0,0.0,0.0,0.0,0.0,0.0,0.0,0.0,0.0,0.0,0.0,0.0,0.0,0.0,0.0,0.0,0.0,0.0,0.0,0.0,0.0,0.0,0.0,0.0,0.0,-1.4088,-1.413,-1.4166,-1.4489,-1.4692,-1.4783,-1.5624,-1.6484,-1.735,0.0,0.0,0.0,0.0,0.0,0.0,0.0,0.0,0.0,0.0,0.0,0.0,0.0,0.0,0.0,0.0,0.0,0.0,0.0,0.0,0.0,0.0,0.0,0.0,0.0,0.0,0.0,0.0,0.0,0.0,0.0,0.0,0.0,0.0,0.0,0.0,0.0,0.0,-1.1217,-1.1695,0.0,0.0,0.0,0.0,0.0,0.0,0.0,0.0,-1.4234,0.0,0.0,0.0,0.0,0.0,0.0,0.0,0.0,0.0,0.0,0.0,0.0,0.0,0.0,0.0,0.0,0.0,0.0,0.0,0.0,0.0,0.0,0.0,0.0,0.0,0.0,0.0,0.0,0.0,0.0,0.0,0.0,0.0,0.0,0.0,0.0,0.0,0.0,0.0,0.0,0.0,0.0,0.0,0.0,0.0,0.0,0.0,0.0,0.0,0.0,0.0,0.0,0.0,0.0,0.0,0.0,-1.4088,-1.4088,-1.4201,-1.4356,-1.4566,-1.4783,-1.5041,-1.5714,-1.6484,-1.7342,0.0,0.0,0.0,0.0,0.0,0.0,0.0,0.0,0.0,0.0,0.0,0.0,0.0,0.0,0.0,0.0,0.0,0.0,0.0,0.0,0.0,0.0,0.0,0.0,0.0,0.0,0.0,0.0,0.0,0.0,0.0,0.0,0.0,0.0,0.0,0.0,0.0,0.0,0.0,-1.1528,-1.1572,0.0,0.0,0.0,0.0,0.0,0.0,0.0,0.0,-1.46,0.0,0.0,0.0,0.0,0.0,0.0,0.0,0.0,0.0,0.0,0.0,0.0,0.0,0.0,0.0,0.0,0.0,0.0,0.0,0.0,0.0,0.0,0.0,0.0,0.0,0.0,0.0,0.0,0.0,0.0,0.0,0.0,0.0,0.0,0.0,0.0,0.0,0.0,0.0,0.0,0.0,0.0,0.0,0.0,0.0,0.0,0.0,0.0,0.0,0.0,0.0,0.0,0.0,0.0,0.0,-1.4088,-1.4088,-1.4208,-1.4398,-1.4608,-1.4824,-1.509,-1.5756,-1.6484,0.0,0.0,0.0,0.0,0.0,0.0,0.0,0.0,0.0,0.0,0.0,0.0,0.0,0.0,0.0,0.0,0.0,0.0,0.0,0.0,0.0,0.0,0.0,0.0,0.0,0.0,0.0,0.0,0.0,0.0,0.0,0.0,0.0,0.0,0.0,0.0,0.0,0.0,0.0,0.0,-1.0816,-1.0809,-1.1193,0.0,0.0,0.0,0.0,0.0,0.0,-1.4016,-1.4214,0.0,0.0,0.0,0.0,0.0,0.0,0.0,0.0,0.0,0.0,0.0,0.0,0.0,0.0,0.0,0.0,0.0,0.0,0.0,0.0,0.0,0.0,0.0,0.0,0.0,0.0,0.0,0.0,0.0,0.0,0.0,0.0,0.0,0.0,0.0,0.0,0.0,0.0,0.0,0.0,0.0,0.0,0.0,0.0,0.0,0.0,0.0,0.0,0.0,0.0,0.0,0.0,0.0,0.0,0.0,-1.4088,-1.4088,-1.4201,-1.444,-1.4608,-1.4866,-1.5173,-1.5756,-1.6525,0.0,0.0,0.0,0.0,0.0,0.0,0.0,0.0,0.0,0.0,0.0,0.0,0.0,0.0,0.0,0.0,0.0,0.0,0.0,0.0,0.0,0.0,0.0,0.0,0.0,0.0,0.0,0.0,0.0,0.0,0.0,0.0,0.0,0.0,0.0,0.0,0.0,0.0,0.0,0.0,0.0,-1.0139,-1.0389,-1.0651,0.0,0.0,0.0,0.0,-1.3112,-1.3337,0.0,0.0,0.0,0.0,0.0,0.0,0.0,0.0,0.0,0.0,0.0,0.0,0.0,0.0,0.0,0.0,0.0,0.0,0.0,0.0,0.0,0.0,0.0,0.0,0.0,0.0,0.0,0.0,0.0,0.0,0.0,0.0,0.0,0.0,0.0,0.0,0.0,0.0,0.0,0.0,0.0,0.0,0.0,0.0,0.0,0.0,0.0,0.0,0.0,0.0,0.0,0.0,0.0,0.0,0.0,0.0,-1.4088,-1.4088,-1.4292,-1.4657,-1.4692,-1.4908,-1.534,-1.5839,-1.6525,0.0,0.0,0.0,0.0,0.0,0.0,0.0,0.0,0.0,0.0,0.0,0.0,0.0,0.0,0.0,0.0,0.0,0.0,0.0,0.0,0.0,0.0,0.0,0.0,0.0,0.0,0.0,0.0,0.0,0.0,0.0,0.0,0.0,0.0,0.0,0.0,0.0,0.0,0.0,0.0,0.0,-0.9672,-0.9705,-1.0091,-1.0502,0.0,0.0,-1.1861,-1.2124,-1.2728,0.0,0.0,0.0,0.0,0.0,0.0,0.0,0.0,0.0,0.0,0.0,0.0,0.0,0.0,0.0,0.0,0.0,0.0,0.0,0.0,0.0,0.0,0.0,0.0,0.0,0.0,0.0,0.0,0.0,0.0,0.0,0.0,0.0,0.0,0.0,0.0,0.0,0.0,0.0,0.0,0.0,0.0,0.0,0.0,0.0,0.0,0.0,0.0,0.0,0.0,0.0,0.0,0.0,0.0,0.0,-1.4088,-1.4088,-1.4088,-1.4292,-1.4692,-1.4692,-1.4899,-1.526,-1.5932,-1.6586,0.0,0.0,0.0,0.0,0.0,0.0,0.0,0.0,0.0,0.0,0.0,0.0,0.0,0.0,0.0,0.0,0.0,0.0,0.0,0.0,0.0,0.0,0.0,0.0,0.0,0.0,0.0,0.0,0.0,0.0,0.0,0.0,0.0,0.0,0.0,0.0,0.0,0.0,0.0,0.0,0.0,0.0,-0.9248,-0.9508,0.0,0.0,0.0,-1.1348,-1.2113,0.0,0.0,0.0,0.0,0.0,0.0,0.0,0.0,0.0,0.0,0.0,0.0,0.0,0.0,0.0,0.0,0.0,0.0,0.0,0.0,0.0,0.0,0.0,0.0,0.0,0.0,0.0,0.0,0.0,0.0,0.0,0.0,0.0,0.0,0.0,0.0,0.0,0.0,0.0,0.0,0.0,0.0,0.0,0.0,0.0,0.0,0.0,0.0,0.0,0.0,0.0,0.0,0.0,0.0,0.0,0.0,0.0,-1.4088,-1.4015,-1.4177,-1.458,-1.4503,-1.4684,-1.5056,-1.5771,0.0,0.0,0.0,0.0,0.0,0.0,0.0,0.0,0.0,0.0,0.0,0.0,0.0,0.0,0.0,0.0,0.0,0.0,0.0,0.0,0.0,0.0,0.0,0.0,0.0,0.0,0.0,-1.5318,0.0,0.0,0.0,0.0,0.0,0.0,0.0,0.0,0.0,0.0,0.0,0.0,0.0,0.0,-0.9082,-0.8867,-0.9087,-0.9398,0.0,0.0,-1.1068,-1.207,-1.2546,-1.3144,0.0,0.0,0.0,0.0,0.0,0.0,0.0,0.0,0.0,0.0,0.0,0.0,0.0,0.0,0.0,0.0,0.0,0.0,0.0,0.0,0.0,0.0,0.0,0.0,0.0,0.0,0.0,0.0,0.0,0.0,0.0,0.0,0.0,0.0,0.0,0.0,0.0,0.0,0.0,0.0,0.0,0.0,0.0,0.0,0.0,0.0,0.0,0.0,0.0,0.0,0.0,0.0,0.0,0.0,0.0,-1.4082,-1.3773,-1.3879,-1.4307,-1.4027,-1.4148,-1.4729,-1.5219,-1.5838,0.0,0.0,0.0,0.0,0.0,0.0,0.0,0.0,0.0,0.0,0.0,0.0,0.0,0.0,0.0,0.0,0.0,0.0,0.0,0.0,0.0,0.0,0.0,0.0,0.0,0.0,0.0,0.0,0.0,0.0,0.0,0.0,0.0,0.0,0.0,0.0,0.0,0.0,0.0,0.0,0.0,-0.8828,-0.8656,-0.9003,-0.9393,0.0,0.0,-1.1112,-1.159,-1.2481,-1.3148,-1.3361,0.0,0.0,0.0,0.0,0.0,0.0,0.0,0.0,0.0,0.0,0.0,0.0,0.0,0.0,0.0,0.0,0.0,0.0,0.0,0.0,0.0,0.0,0.0,0.0,0.0,0.0,0.0,0.0,0.0,0.0,0.0,0.0,0.0,0.0,0.0,0.0,0.0,0.0,0.0,0.0,0.0,0.0,0.0,0.0,0.0,0.0,0.0,0.0,0.0,0.0,0.0,0.0,0.0,-1.4088,-1.4082,-1.3877,-1.3926,-1.4272,-1.4104,-1.4193,-1.4653,-1.5349,-1.6043,0.0,0.0,0.0,0.0,0.0,0.0,0.0,0.0,0.0,0.0,0.0,0.0,0.0,0.0,0.0,0.0,0.0,0.0,0.0,0.0,0.0,0.0,0.0,0.0,0.0,0.0,0.0,0.0,-1.3685,-1.2971,-1.2611,0.0,0.0,0.0,0.0,0.0,0.0,0.0,0.0,0.0,0.0,-0.8695,-0.8605,-0.891,0.0,0.0,-1.0636,-1.1423,-1.2143,-1.2856,-1.3402,-1.3726,-1.4059,0.0,0.0,0.0,0.0,0.0,0.0,0.0,0.0,0.0,0.0,0.0,0.0,0.0,0.0,0.0,0.0,0.0,0.0,0.0,0.0,0.0,0.0,0.0,0.0,0.0,0.0,0.0,0.0,0.0,0.0,0.0,0.0,0.0,0.0,0.0,0.0,0.0,0.0,0.0,0.0,0.0,0.0,0.0,0.0,0.0,0.0,0.0,0.0,0.0,0.0,0.0,0.0,-1.4048,-1.3955,-1.3824,-1.3863,-1.4006,-1.3899,-1.4048,-1.4431,-1.5245,-1.5914,0.0,0.0,0.0,0.0,0.0,0.0,0.0,0.0,0.0,0.0,0.0,0.0,0.0,0.0,0.0,0.0,0.0,0.0,0.0,0.0,0.0,0.0,0.0,0.0,0.0,0.0,0.0,0.0,-1.3641,-1.2832,-1.2372,0.0,0.0,0.0,0.0,0.0,0.0,0.0,0.0,0.0,0.0,-0.8522,-0.851,-0.8839,-0.9344,-0.9981,-1.0878,-1.1772,-1.2554,-1.3123,-1.3584,-1.3878,0.0,0.0,0.0,0.0,0.0,0.0,0.0,0.0,0.0,0.0,0.0,0.0,0.0,0.0,0.0,0.0,0.0,0.0,0.0,0.0,0.0,0.0,0.0,0.0,0.0,0.0,0.0,0.0,0.0,0.0,-1.5428,0.0,0.0,0.0,0.0,0.0,0.0,0.0,0.0,0.0,0.0,0.0,0.0,0.0,0.0,0.0,0.0,0.0,0.0,0.0,0.0,0.0,0.0,-1.3948,-1.362,-1.356,-1.345,-1.3352,-1.326,-1.355,-1.4116,-1.4649,-1.5328,-1.6114,0.0,0.0,0.0,0.0,0.0,0.0,0.0,0.0,0.0,0.0,0.0,0.0,0.0,0.0,0.0,0.0,0.0,0.0,0.0,0.0,0.0,0.0,0.0,0.0,0.0,0.0,-1.4173,-1.3443,-1.2832,0.0,0.0,0.0,0.0,0.0,0.0,0.0,0.0,0.0,0.0,-0.8586,-0.8312,-0.8309,-0.8877,-0.9541,-1.0228,-1.1261,-1.2142,-1.258,-1.322,-1.3688,0.0,0.0,0.0,0.0,0.0,0.0,0.0,0.0,0.0,0.0,0.0,0.0,0.0,0.0,0.0,0.0,0.0,0.0,0.0,0.0,0.0,0.0,0.0,0.0,0.0,0.0,0.0,-1.7224,-1.7294,0.0,0.0,0.0,0.0,0.0,0.0,0.0,0.0,0.0,0.0,0.0,-1.4088,-1.4088,0.0,0.0,0.0,0.0,0.0,0.0,0.0,0.0,0.0,0.0,0.0,0.0,-1.3941,-1.3641,-1.3659,-1.3546,-1.3317,-1.3505,-1.3819,-1.4281,-1.4955,-1.5842,-1.7012,0.0,0.0,0.0,0.0,0.0,0.0,0.0,0.0,0.0,0.0,0.0,0.0,0.0,0.0,0.0,0.0,0.0,0.0,0.0,0.0,0.0,0.0,0.0,0.0,0.0,-1.4286,0.0,0.0,0.0,0.0,0.0,0.0,0.0,0.0,0.0,0.0,0.0,-0.9481,-0.8815,-0.848,-0.8421,-0.8727,-0.922,-0.997,0.0,0.0,0.0,0.0,0.0,0.0,0.0,0.0,0.0,0.0,0.0,0.0,0.0,0.0,-1.5378,-1.5758,-1.5825,-1.5825,-1.5825,0.0,0.0,0.0,0.0,0.0,0.0,0.0,0.0,0.0,0.0,0.0,0.0,0.0,0.0,-1.7118,0.0,-1.7016,0.0,0.0,0.0,0.0,0.0,0.0,0.0,0.0,-1.4088,-1.4088,-1.4088,-1.4088,-1.4088,0.0,-1.4088,-1.4088,0.0,0.0,0.0,0.0,0.0,0.0,0.0,0.0,-1.3895,-1.35,-1.3612,-1.3498,-1.3177,-1.3521,-1.3928,-1.4389,-1.523,-1.6136,-1.7102,-1.7538,-1.7793,0.0,0.0,0.0,0.0,0.0,0.0,0.0,0.0,0.0,0.0,0.0,0.0,0.0,0.0,0.0,0.0,0.0,0.0,0.0,0.0,0.0,0.0,0.0,-1.3681,0.0,0.0,0.0,0.0,0.0,0.0,0.0,0.0,0.0,-1.1198,-1.0294,-0.9525,-0.8904,-0.8732,-0.8793,-0.9173,0.0,0.0,0.0,0.0,0.0,0.0,0.0,-1.4088,-1.4088,-1.4088,-1.4088,-1.4088,-1.4329,-1.4583,-1.4776,0.0,0.0,-1.5458,-1.5531,-1.5524,-1.5531,-1.5531,-1.5471,-1.5284,-1.5164,-1.5037,0.0,0.0,0.0,0.0,0.0,0.0,0.0,0.0,-1.6432,-1.662,0.0,-1.6568,0.0,0.0,0.0,0.0,0.0,-1.4286,0.0,0.0,-1.4088,-1.4088,-1.4088,-1.4088,-1.4088,-1.4088,-1.4088,-1.4088,-1.4088,-1.4088,0.0,0.0,0.0,0.0,0.0,0.0,-1.3788,-1.3213,-1.337,-1.331,-1.2928,-1.3295,-1.3789,-1.4406,-1.542,-1.6092,-1.6399,-1.7061,-1.7383,-1.7425,-1.7974,0.0,0.0,0.0,0.0,0.0,0.0,0.0,0.0,0.0,0.0,0.0,0.0,0.0,0.0,0.0,0.0,0.0,0.0,0.0,0.0,-1.377,0.0,0.0,0.0,0.0,0.0,0.0,0.0,0.0,0.0,0.0,-1.1456,-1.0554,-0.9837,-0.938,0.0,0.0,0.0,0.0,-1.1061,-1.1987,-1.2656,-1.3239,-1.3626,-1.3886,-1.4055,-1.4048,0.0,0.0,-1.4068,-1.4302,-1.4439,-1.4466,-1.4723,-1.4981,-1.4975,-1.5015,-1.5035,-1.5042,-1.5048,-1.5015,-1.4975,-1.4756,-1.4512,-1.3985,0.0,0.0,0.0,0.0,-1.4891,-1.5289,-1.5691,-1.5872,-1.5987,-1.6084,-1.5861,0.0,0.0,0.0,0.0,0.0,0.0,-1.4088,-1.4088,-1.4088,-1.4088,-1.4088,-1.4088,-1.4088,-1.4088,-1.4088,-1.4088,-1.4088,-1.4088,-1.4088,-1.4088,0.0,0.0,0.0,0.0,-1.348,-1.2958,-1.3058,-1.2989,-1.268,-1.3121,-1.3731,-1.453,-1.536,-1.5928,-1.6265,-1.7019,-1.7416,-1.7393,-1.7817,0.0,0.0,0.0,0.0,0.0,0.0,0.0,0.0,0.0,0.0,0.0,0.0,0.0,0.0,0.0,0.0,0.0,0.0,0.0,-1.3499,-1.3128,-1.2986,0.0,0.0,0.0,0.0,0.0,0.0,0.0,0.0,0.0,-1.21,-1.0987,-1.0129,0.0,0.0,-1.0185,-1.0568,-1.1052,-1.1653,-1.2624,0.0,0.0,0.0,-1.3512,-1.346,-1.346,-1.346,-1.3527,-1.3693,-1.38,-1.3919,-1.4168,-1.4282,-1.4378,-1.4405,-1.4689,-1.4981,-1.5015,-1.5015,-1.489,-1.4689,-1.4569,-1.4462,-1.3779,-1.3955,-1.4039,-1.4166,-1.4313,-1.464,-1.4943,-1.5303,-1.5423,-1.5539,-1.5612,-1.5418,-1.5183,-1.4915,-1.4866,0.0,0.0,0.0,-1.4088,-1.4088,-1.4088,-1.4088,-1.4082,-1.3968,-1.3915,-1.3901,-1.3794,-1.3741,-1.3741,-1.3741,-1.3741,-1.3754,0.0,0.0,-1.3613,-1.3606,-1.3347,-1.2817,-1.286,-1.2764,-1.2471,-1.2937,-1.3601,-1.433,-1.4987,-1.5568,-1.6008,-1.6735,-1.7207,-1.7383,-1.7706,-1.793,0.0,0.0,0.0,0.0,0.0,0.0,0.0,0.0,0.0,0.0,0.0,-1.8054,-1.8045,0.0,0.0,0.0,-1.513,-1.4214,-1.3096,-1.3088,0.0,0.0,0.0,0.0,0.0,0.0,0.0,-1.3737,-1.3264,-1.2832,-1.2524,-1.1654,-1.0995,-1.0731,-1.0821,-1.1089,-1.1473,0.0,-1.2101,-1.2841,-1.292,-1.3028,-1.336,-1.3327,-1.3206,-1.3206,-1.3206,-1.326,-1.3393,-1.3433,-1.3493,-1.3701,-1.3834,-1.3908,-1.3915,-1.4302,-1.4616,-1.466,-1.466,-1.4556,-1.4376,-1.4349,-1.4289,-1.3652,-1.3688,-1.3955,-1.4082,-1.4115,-1.4376,-1.4613,-1.4836,-1.5096,-1.5163,-1.5131,-1.5124,-1.4921,-1.4657,-1.4482,0.0,-1.4356,-1.4201,-1.4088,-1.4088,-1.4088,-1.4075,-1.4041,-1.3733,-1.3593,-1.356,-1.334,-1.3206,-1.3213,-1.3213,-1.3206,-1.3227,-1.3748,-1.3868,-1.3547,-1.3527,-1.3287,-1.2757,-1.2744,-1.2574,-1.2205,-1.2738,-1.3312,-1.3927,-1.4484,-1.5102,-1.5775,-1.6365,-1.6899,-1.734,-1.7562,-1.7672,-1.7672,0.0,0.0,0.0,0.0,0.0,0.0,0.0,0.0,0.0,0.0,0.0,0.0,0.0,0.0,0.0,-1.4482,0.0,-1.3213,-1.3393,0.0,0.0,0.0,-1.4062,-1.4088,-1.4088,-1.399,-1.3704,0.0,0.0,-1.269,0.0,-1.2242,-1.1844,-1.1836,-1.2017,-1.2258,-1.223,-1.2374,-1.2811,-1.287,-1.2943,-1.312,-1.312,-1.308,-1.308,-1.314,-1.312,-1.3166,-1.3173,-1.318,-1.324,-1.3393,-1.3567,-1.3573,-1.3834,-1.4015,-1.4021,-1.4075,-1.4102,-1.4108,-1.4108,-1.4108,-1.313,-1.3483,-1.3695,-1.3913,-1.4095,-1.4162,-1.4238,-1.428,-1.4347,-1.4377,-1.4358,-1.4358,-1.4318,-1.425,-1.4208,-1.4166,-1.4166,-1.413,-1.4088,-1.4088,-1.4088,-1.3975,-1.3706,-1.364,-1.3487,-1.332,-1.3207,-1.3206,-1.3206,-1.3206,-1.3206,-1.322,-1.3353,-1.3267,-1.3012,-1.2998,-1.2817,-1.2412,-1.2405,-1.227,-1.1985,-1.224,-1.2752,-1.3475,-1.4233,-1.4971,-1.5692,-1.6402,-1.684,-1.6945,-1.7311,-1.7539,-1.752,-1.7539,0.0,0.0,0.0,0.0,0.0,0.0,0.0,0.0,0.0,-1.7696,-1.7482,0.0,-1.6118,0.0,-1.418,-1.3367,-1.2924,-1.3133,0.0,0.0,-1.3581,-1.38,-1.4062,-1.4088,-1.3953,-1.3644,-1.3452,-1.3184,-1.2866,-1.2787,-1.2732,-1.2634,-1.2336,-1.2185,-1.2341,-1.2376,-1.2479,-1.2724,-1.2603,-1.2567,-1.2806,-1.2659,-1.2532,-1.2518,-1.2525,-1.2592,-1.2864,-1.2891,-1.2971,-1.3153,-1.3253,-1.3267,-1.332,-1.3373,-1.342,-1.3447,-1.3768,-1.4088,-1.4088,-1.4082,-1.4082,-1.2833,-1.3137,-1.3434,-1.3695,-1.3913,-1.4046,-1.4088,-1.4088,-1.4088,-1.4088,-1.4088,-1.4088,-1.4088,-1.4088,-1.4088,-1.4088,-1.4088,-1.4088,-1.4088,-1.4088,-1.4088,-1.3928,-1.3606,-1.3473,-1.3293,-1.3045,-1.2872,-1.2806,-1.2806,-1.2806,-1.2806,-1.2806,-1.2806,-1.2726,-1.2596,-1.2717,-1.2636,-1.2305,-1.2171,-1.2094,-1.2006,-1.214,-1.2537,-1.3298,-1.4043,-1.486,-1.5674,-1.634,-1.6778,-1.6966,-1.7226,-1.7358,-1.7348,-1.7358,-1.7358,0.0,0.0,0.0,0.0,0.0,0.0,0.0,0.0,0.0,0.0,0.0,-1.5568,-1.4596,-1.3917,-1.3386,-1.3018,-1.3106,-1.3206,-1.3213,-1.3313,-1.3514,-1.3681,-1.3694,-1.3634,-1.3427,-1.3333,-1.314,-1.289,-1.2843,-1.2791,-1.2633,-1.2415,-1.2331,-1.2523,-1.2462,-1.2401,-1.2538,-1.2405,-1.2351,-1.2569,-1.2412,-1.2305,-1.2305,-1.2305,-1.2365,-1.2556,-1.2583,-1.2605,-1.2779,-1.2913,-1.2999,-1.3013,-1.3126,-1.3206,-1.3247,-1.346,-1.3674,-1.3694,-1.3694,-1.3694,-1.2619,-1.2705,-1.3173,-1.3483,-1.3652,-1.3955,-1.4082,-1.4088,-1.4088,-1.4088,-1.4088,-1.4088,-1.4088,-1.4088,-1.4088,-1.4088,-1.4088,-1.4088,-1.4062,-1.4035,-1.4028,-1.3854,-1.352,-1.3267,-1.2993,-1.2723,-1.2425,-1.2305,-1.2305,-1.2305,-1.2305,-1.2305,-1.2305,-1.2305,-1.2318,-1.2596,-1.2596,-1.2305,-1.2053,-1.197,-1.207,-1.2164,-1.2541,-1.3269,-1.3923,-1.4689,-1.5589,-1.6147,-1.6616,-1.7035,-1.7097,-1.7132,-1.7132,-1.7132,-1.7097,0.0,-1.7254,0.0,0.0,0.0,0.0,0.0,0.0,0.0,0.0,-1.5387,-1.4706,-1.3973,-1.3703,-1.3427,-1.318,-1.3153,-1.3153,-1.3146,-1.3153,-1.3166,-1.32,-1.3206,-1.3193,-1.316,-1.3153,-1.3072,-1.2777,-1.273,-1.2623,-1.2392,-1.2314,-1.2394,-1.265,-1.2472,-1.2294,-1.2305,-1.2305,-1.2311,-1.2331,-1.2318,-1.2305,-1.2305,-1.2305,-1.2305,-1.2318,-1.2318,-1.2318,-1.2345,-1.2532,-1.2723,-1.273,-1.2906,-1.3073,-1.3053,-1.3073,-1.3126,-1.3227,-1.326,-1.3206,-1.2246,-1.2491,-1.2966,-1.327,-1.3476,-1.3695,-1.3913,-1.4088,-1.4088,-1.4088,-1.4088,-1.4088,-1.4088,-1.4088,-1.4088,-1.4088,-1.4088,-1.4088,-1.3961,-1.3693,-1.3686,-1.344,-1.2971,-1.2898,-1.2717,-1.2398,-1.2331,-1.2305,-1.2305,-1.2305,-1.2305,-1.2305,-1.2305,-1.2305,-1.2305,0.0,0.0,0.0,-1.2017,-1.1906,-1.1928,-1.2095,-1.2472,-1.3046,-1.3773,0.0,-1.5283,-1.5721,-1.6114,-1.6438,-1.6647,0.0,0.0,0.0,0.0,0.0,0.0,0.0,0.0,0.0,0.0,0.0,-1.4569,-1.4492,-1.4777,-1.4066,-1.3598,-1.3584,-1.3406,-1.3166,-1.2904,-1.2878,-1.2871,-1.2871,-1.2871,-1.2971,-1.3166,-1.32,-1.312,-1.2904,-1.2871,-1.2757,-1.2452,-1.2385,-1.2371,-1.2318,-1.2305,-1.2325,-1.2385,-1.2345,-1.2305,-1.2305,-1.2305,-1.2305,-1.2305,-1.2305,-1.2305,-1.2305,-1.2305,-1.2305,-1.2305,-1.2305,-1.2305,-1.2305,-1.2351,-1.2392,-1.2429,-1.2445,-1.2512,-1.2478,-1.2485,-1.2625,-1.31,-1.3206,-1.3206,-1.186,0.0,-1.2583,-1.2966,0.0,-1.3483,-1.3695,-1.3913,-1.4046,-1.4088,-1.4088,-1.4088,-1.4088,-1.4088,-1.4088,-1.4001,-1.3868,-1.3833,-1.3673,-1.3393,-1.3387,-1.3186,-1.2784,-1.2784,-1.2623,-1.2305,-1.2305,-1.2305,-1.2305,-1.2305,-1.2305,-1.2305,-1.2305,-1.2305,-1.2305,-1.2305,-1.2305,-1.2305,-1.2158,-1.2084,-1.2114,-1.2287,-1.2579,-1.2949,0.0,0.0,0.0,0.0,0.0,0.0,0.0,0.0,0.0,0.0,0.0,-1.6307,-1.6237,-1.6132,-1.5964,-1.5488,-1.5026,-1.4533,-1.3804,-1.3453,-1.3736,-1.3427,-1.3179,-1.3142,-1.305,-1.2898,-1.2603,-1.2563,-1.2563,-1.2569,-1.2569,-1.2599,-1.2726,-1.2759,-1.2705,-1.2603,-1.2563,-1.2465,-1.2325,-1.2305,-1.2305,-1.2305,-1.2305,-1.2305,-1.2305,-1.2305,-1.2305,-1.2305,-1.2305,-1.2305,-1.2305,-1.2305,-1.2298,-1.2305,-1.2305,-1.2305,-1.2305,-1.2305,-1.2305,-1.2305,-1.2305,-1.2305,-1.2305,-1.2305,-1.2305,-1.2305,-1.2305,-1.2378,-1.2705,-1.2766,-1.2759,-1.1591,-1.1995,-1.2283,-1.2668,-1.31,-1.3264,-1.3457,-1.3617,0.0,0.0,0.0,-1.3955,-1.3928,-1.3928,-1.3935,-1.3801,-1.3533,-1.3533,-1.3367,-1.3133,-1.3126,-1.2966,-1.2717,-1.2703,-1.2545,-1.2311,-1.2305,-1.2305,-1.2305,-1.2305,-1.2305,-1.2305,-1.2305,-1.2271,-1.2225,-1.2178,-1.2151,-1.2151,-1.2204,-1.2225,-1.2225,-1.2408,-1.2597,-1.2779,-1.3375,-1.384,-1.4158,-1.4927,-1.5399,-1.5655,-1.5956,-1.6167,-1.6167,-1.6167,-1.6132,-1.6096,-1.5991,-1.578,-1.5584,-1.5062,-1.4589,-1.4165,-1.3302,-1.2813,-1.2872,-1.2976,-1.2946,-1.273,-1.271,-1.261,-1.2331,-1.2305,-1.2305,-1.2305,-1.2305,-1.2311,-1.2311,-1.2305,-1.2331,-1.2305,-1.2318,-1.2305,-1.2311,-1.2305,-1.2305,-1.2305,-1.2305,-1.2271,-1.2238,-1.2204,-1.2198,-1.2204,-1.2131,-1.2118,-1.2138,-1.2111,-1.2158,-1.2191,-1.2211,-1.2245,-1.2291,-1.2305,-1.2305,-1.2305,-1.2305,-1.2305,-1.2305,-1.2305,-1.2305,-1.2305,-1.2305,-1.2305,-1.2305,-1.2311,-1.2338,-1.1596,-1.2043,-1.2283,-1.2668,-1.3094,-1.3143,-1.3222,-1.3378,-1.3578,-1.3666,-1.3646,-1.344,-1.3333,-1.334,-1.3333,-1.3313,-1.3267,-1.3267,-1.3106,0.0,-1.2851,-1.269,-1.2371,-1.2365,-1.2345,-1.2305,-1.2305,-1.2305,-1.2305,-1.2305,-1.2305,-1.2305,-1.2305,-1.2171,-1.1966,-1.1677,-1.1509,-1.155,-1.1804,-1.1966,-1.1966,-1.2152,-1.2252,-1.2308,-1.2948,-1.3382,-1.3601,-1.4209,-1.4713,-1.5018,-1.5426,-1.5611,-1.5603,-1.5603,-1.5532,-1.5346,-1.5177,-1.4971,-1.4784,-1.4418,-1.3876,-1.3149,-1.2636,-1.2399,-1.2395,-1.2398,-1.2405,-1.2365,-1.2378,-1.2351,-1.2305,-1.2305,-1.2305,-1.2305,-1.2305,-1.2305,-1.2305,-1.2305,-1.2305,-1.2305,-1.2305,-1.2305,-1.2305,-1.2305,-1.2305,-1.2305,-1.2271,-1.2204,-1.2027,-1.1966,-1.1931,-1.1933,-1.171,-1.1535,-1.1582,-1.1522,-1.169,-1.1933,-1.1966,-1.2004,-1.2198,-1.2231,-1.2231,-1.2285,-1.2245,-1.2258,-1.2265,-1.2305,-1.2251,-1.2238,-1.2231,-1.2251,-1.2258,-1.2285,-1.2305,-1.1246,-1.1634,-1.2032,-1.2292,-1.2529,-1.2721,-1.2917,-1.3072,-1.3141,-1.326,-1.3347,-1.3227,-1.3206,-1.3206,-1.3206,-1.312,-1.2998,-1.2998,-1.2831,-1.2556,-1.2498,-1.2432,-1.2318,-1.2305,-1.2305,-1.2305,-1.2305,-1.2305,-1.2305,-1.2305,-1.2218,-1.2064,-1.1911,-1.1757,-1.163,-1.1496,-1.143,-1.143,-1.1563,-1.163,-1.1623,-1.17,-1.1844,-1.2048,-1.2435,-1.2876,-1.3302,-1.3804,-1.4238,-1.4633,-1.4856,-1.4999,-1.5007,-1.4999,-1.4963,-1.4883,-1.4713,-1.4569,-1.4497,-1.4065,-1.3484,-1.279,-1.2562,-1.2415,-1.2305,-1.2305,-1.2305,-1.2305,-1.2305,-1.2305,-1.2305,-1.2305,-1.2305,-1.2305,-1.2305,-1.2305,-1.2305,-1.2305,-1.2305,-1.2305,-1.2305,-1.2305,-1.2305,-1.2305,-1.2305,-1.2291,-1.2184,-1.1964,-1.167,-1.1524,-1.1456,-1.1577,-1.1516,-1.1443,-1.1423,-1.143,-1.149,-1.1617,-1.163,-1.1683,-1.1775,-1.1795,-1.183,-1.1824,-1.183,-1.1824,-1.1802,-1.1824,-1.1824,-1.1824,-1.1824,-1.187,-1.2011,-1.2178,-1.2298,-1.0944,-1.1322,-1.167,-1.1845,-1.1958,-1.2265,-1.2522,-1.268,-1.2671,-1.2786,-1.2986,-1.3006,-1.3006,-1.3006,-1.2999,-1.2872,-1.2703,-1.2683,-1.2556,-1.2318,-1.2305,-1.2305,-1.2305,-1.2305,-1.2305,-1.2305,-1.2305,-1.2271,-1.2211,-1.2204,-1.2058,-1.177,-1.147,-1.1295,-1.1295,-1.1263,-1.1229,-1.1229,-1.1229,-1.1229,-1.1289,-1.1295,-1.1443,-1.1685,-1.1954,-1.238,-1.2955,-1.3403,-1.3801,-1.4173,-1.4389,-1.4489,-1.4489,-1.4497,-1.4489,-1.4453,-1.4289,-1.4145,-1.4029,-1.3593,-1.3083,-1.2673,-1.2562,-1.2489,-1.2342,-1.2305,-1.2305,-1.2305,-1.2305,-1.2305,-1.2305,-1.2305,-1.2305,-1.2305,-1.2305,-1.2305,-1.2305,-1.2305,-1.2305,-1.2305,-1.2305,-1.2305,-1.2298,-1.2245,-1.2158,-1.2051,-1.185,-1.1583,-1.1349,-1.1082,-1.1015,-1.1149,-1.1236,-1.1202,-1.1229,-1.1209,-1.1236,-1.1303,-1.1295,-1.1342,-1.1395,-1.1415,-1.1436,-1.1435,-1.1456,-1.1442,-1.1443,-1.145,-1.147,-1.149,-1.1496,-1.153,-1.173,-1.1911,-1.2164,-1.0939,-1.1295,-1.1354,-1.1499,-1.1657,-1.1796,-1.1996,-1.2152,-1.2104,-1.221,-1.2418,-1.2385,-1.2412,-1.2385,-1.2405,-1.2398,-1.2358,-1.2345,-1.2331,-1.2305,-1.2305,-1.2305,-1.2305,-1.2305,-1.2305,-1.2305,-1.2291,-1.2194,-1.198,-1.194,-1.175,-1.1463,-1.1176,-1.1035,-1.1009,-1.0814,-1.068,-1.0673,-1.0673,-1.0807,-1.1015,-1.1035,-1.1049,-1.1076,-1.1506,-1.1923,-1.2289,-1.2806,-1.3227,-1.3571,-1.3897,-1.4122,-1.4114,-1.4122,-1.4122,-1.4122,-1.3811,-1.3419,-1.3076,-1.2826,-1.2673,-1.2599,-1.2415,-1.2305,-1.2298,-1.2305,-1.2305,-1.2305,-1.2305,-1.2305,-1.2305,-1.2305,-1.2305,-1.2305,-1.2305,-1.2305,-1.2305,-1.2305,-1.2305,-1.2305,-1.2305,-1.2305,-1.2258,-1.2064,-1.181,-1.1542,-1.1349,-1.1142,-1.1035,-1.0822,-1.0687,-1.07,-1.0687,-1.0707,-1.072,-1.068,-1.0795,-1.0989,-1.1035,-1.1109,-1.1256,-1.1349,-1.141,-1.1256,-1.1349,-1.1336,-1.1363,-1.1423,-1.1349,-1.1309,-1.1336,-1.1389,-1.1429,-1.1495,-1.1688,-1.0321,-1.072,-1.0875,-1.1128,-1.1353,-1.1401,-1.1507,-1.1677,-1.1913,-1.2046,-1.2114,-1.2231,-1.2305,-1.2305,-1.2305,-1.2305,-1.2305,-1.2305,-1.2305,-1.2305,-1.2305,-1.2305,-1.2305,-1.2305,-1.2305,-1.2285,-1.2131,-1.202,-1.1866,-1.1558,-1.1289,-1.1156,-1.0914,-1.0767,-1.076,-1.0646,-1.0586,-1.0586,-1.0586,-1.0653,-1.0722,-1.0774,-1.0854,-1.1015,-1.1209,-1.1479,-1.1888,-1.213,-1.2332,-1.2592,-1.2781,-1.2871,-1.2879,-1.3054,-1.3163,-1.3135,-1.3172,-1.3003,-1.2753,-1.2636,-1.2562,-1.2415,-1.2342,-1.2305,-1.2305,-1.2305,-1.2305,-1.2305,-1.2305,-1.2305,-1.2305,-1.2305,-1.2305,-1.2305,-1.2305,-1.2305,-1.2305,-1.2305,-1.2305,-1.2305,-1.2305,-1.2225,-1.2051,-1.179,-1.1503,-1.1236,-1.1049,-1.0935,-1.0807,-1.066,-1.0606,-1.0586,-1.0586,-1.0586,-1.0586,-1.0586,-1.0653,-1.0727,-1.0767,-1.0815,-1.0882,-1.0915,-1.0941,-1.0929,-1.0955,-1.0981,-1.0914,-1.0941,-1.0915,-1.0955,-1.1096,-1.1169,-1.1169,-1.1309,-1.1536,-0.9774,-1.0113,-1.0435,-1.0757,-1.1018,-1.1008,-1.1149,-1.1416,-1.1706,-1.1855,-1.1929,-1.2114,-1.2231,-1.2231,-1.2268,-1.2305,-1.2305,-1.2305,-1.2305,-1.2305,-1.2305,-1.2305,-1.2305,-1.2305,-1.2258,-1.2158,-1.2007,-1.1826,-1.1631,-1.1136,-1.0908,-1.0842,-1.0693,-1.0586,-1.0586,-1.0586,-1.0586,-1.0586,-1.0586,-1.0586,-1.0593,-1.0586,-1.0693,-1.0881,-1.0908,-1.1075,-1.1458,-1.1546,-1.1696,-1.1908,-1.1983,-1.201,-1.2017,-1.2228,-1.2389,-1.2423,-1.2659,-1.2709,-1.2526,-1.2526,-1.2445,-1.2305,-1.2261,-1.2224,-1.2231,-1.2194,-1.215,-1.2114,-1.212,-1.215,-1.2305,-1.2305,-1.2305,-1.2305,-1.2305,-1.2305,-1.2305,-1.2305,-1.2305,-1.2305,-1.2218,-1.2031,-1.1732,-1.1436,-1.1196,-1.0975,-1.0901,-1.0854,-1.0653,-1.0593,-1.0586,-1.0586,-1.0586,-1.0586,-1.0586,-1.0586,-1.0586,-1.0586,-1.0613,-1.062,-1.0586,-1.0593,-1.06,-1.0754,-1.0633,-1.0606,-1.07,-1.0646,-1.0613,-1.064,-1.0774,-1.0889,-1.0908,-1.1062,-1.1142,-0.9526,-0.9521,-1.0068,-1.039,-1.0567,-1.0743,-1.1037,-1.1372,-1.1409,-1.1558,-1.1706,-1.1929,-1.2003,-1.204,-1.2187,-1.2305,-1.2305,-1.2305,-1.2305,-1.2305,-1.2305,-1.2305,-1.2305,-1.2305,-1.2158,-1.1966,-1.1824,-1.1584,-1.1056,-1.0774,-1.0613,-1.0613,-1.06,-1.0586,-1.0586,-1.0586,-1.0586,-1.0586,-1.0586,-1.0586,-1.0586,-1.0586,-1.06,-1.0633,-1.062,-1.0767,-1.1002,-1.1213,-1.1429,-1.171,-1.1839,-1.1948,-1.1962,-1.1976,-1.2061,-1.2212,-1.2428,-1.2519,-1.2335,-1.2305,-1.2268,-1.2261,-1.2077,-1.2009,-1.2009,-1.1892,-1.1781,-1.1744,-1.1781,-1.1892,-1.2187,-1.2231,-1.2231,-1.2268,-1.2268,-1.2268,-1.2268,-1.2231,-1.2305,-1.2208,-1.1981,-1.1628,-1.1109,-1.1022,-1.0856,-1.0695,-1.0626,-1.0581,-1.055,-1.0561,-1.0555,-1.0561,-1.0561,-1.0586,-1.0586,-1.0586,-1.0586,-1.0586,-1.0586,-1.0586,-1.0586,-1.0586,-1.0586,-1.0586,-1.0586,-1.0586,-1.0586,-1.0593,-1.0593,-1.0606,-1.0606,-1.0673,-1.072,-1.064,-1.072,-0.8964,-0.9208,-0.9661,-0.9954,-1.0143,-1.0331,-1.0663,-1.0993,-1.1149,-1.1298,-1.1521,-1.1706,-1.1892,-1.2003,-1.2077,-1.2187,-1.2305,-1.2305,-1.2305,-1.2305,-1.2305,-1.2305,-1.2285,-1.2118,-1.202,-1.1873,-1.149,-1.1102,-1.0787,-1.0633,-1.0586,-1.0586,-1.0586,-1.0586,-1.0586,-1.0586,-1.0586,-1.0586,-1.0586,-1.0586,-1.0586,-1.0586,-1.0586,-1.0586,-1.0586,-1.064,-1.0747,-1.0811,-1.0897,-1.0999,-1.1077,-1.1096,-1.1117,-1.128,-1.1506,-1.1775,-1.1899,-1.1959,-1.1933,-1.1929,-1.1929,-1.1892,-1.1855,-1.1818,-1.1781,-1.1744,-1.1706,-1.1669,-1.1669,-1.1781,-1.1855,-1.1929,-1.1922,-1.1929,-1.1892,-1.1929,-1.1885,-1.1922,-1.1864,-1.1644,-1.1274,-1.0913,-1.0737,-1.051,-1.0322,-1.0238,-1.0206,-1.0238,-1.0238,-1.0206,-1.0269,-1.0371,-1.0434,-1.046,-1.0586,-1.0586,-1.0586,-1.0586,-1.0586,-1.0586,-1.0586,-1.0586,-1.0586,-1.0586,-1.0586,-1.0586,-1.0586,-1.0586,-1.0586,-1.0586,-1.0586,-1.0586,-1.0593,-1.0586,-1.0586,-0.8526,-0.8918,-0.9284,-0.962,-0.9884,-1.0035,-1.0331,-1.07,-1.0925,-1.1074,-1.126,-1.1484,-1.1669,-1.1818,-1.1855,-1.2003,-1.2194,-1.2268,-1.2305,-1.2305,-1.2305,-1.2305,-1.2258,-1.2011,-1.1852,-1.1643,-1.1169,-1.078,-1.0613,-1.0586,-1.0586,-1.0586,-1.0586,-1.0586,-1.0593,-1.053,-1.0498,-1.0498,-1.0434,-1.0396,-1.0403,-1.0403,-1.0403,-1.0403,-1.0403,-1.0428,-1.0498,-1.0498,-1.0466,-1.0396,-1.0403,-1.0396,-1.0429,-1.0673,-1.0968,-1.119,-1.1417,-1.1513,-1.159,-1.1656,-1.1706,-1.1706,-1.1639,-1.1595,-1.1595,-1.1521,-1.1521,-1.1521,-1.1521,-1.1521,-1.1521,-1.1527,-1.1558,-1.1669,-1.1706,-1.1706,-1.17,-1.1617,-1.1395,-1.1086,-1.0795,-1.0512,-1.0333,-1.0129,-1.004,-1.0021,-1.0021,-1.0021,-1.0021,-1.0021,-1.0021,-1.0174,-1.0206,-1.0238,-1.0301,-1.0333,-1.0491,-1.0523,-1.0523,-1.0555,-1.0555,-1.0555,-1.0586,-1.0586,-1.0586,-1.0586,-1.0586,-1.0586,-1.0586,-1.0586,-1.0586,-1.0586,-1.0586,-1.0586,-1.0586,-0.8336,-0.8703,-0.8946,-0.9322,-0.9771,-0.9879,-1.0105,-1.0481,-1.07,-1.0775,-1.0887,-1.1186,-1.1372,-1.1446,-1.1632,-1.1818,-1.2003,-1.215,-1.2268,-1.2305,-1.2305,-1.2285,-1.2245,-1.1993,-1.1678,-1.1363,-1.0842,-1.0606,-1.0593,-1.0586,-1.0586,-1.0586,-1.0561,-1.0555,-1.0555,-1.0371,-1.0308,-1.0276,-1.0142,-1.0047,-1.0021,-1.0053,-1.0053,-1.0053,-1.0047,-1.011,-1.0269,-1.0301,-1.0212,-1.0085,-1.0047,-1.0021,-1.0085,-1.0327,-1.0506,-1.0634,-1.0988,-1.1255,-1.1302,-1.1487,-1.1558,-1.1558,-1.1446,-1.1335,-1.1298,-1.1186,-1.1111,-1.1111,-1.1105,-1.1111,-1.1111,-1.1111,-1.1217,-1.1595,-1.1632,-1.1632,-1.1588,-1.1416,-1.109,-1.0577,-1.0388,-1.0346,-1.0078,-0.9932,-0.9926,-0.9926,-0.9926,-0.9926,-0.9926,-0.9926,-0.9989,-1.0015,-1.0015,-1.0047,-1.0047,-1.0053,-1.0276,-1.0434,-1.0466,-1.0466,-1.0434,-1.0434,-1.0498,-1.0491,-1.0586,-1.0586,-1.0586,-1.0586,-1.0586,-1.0586,-1.0586,-1.0586,-1.0586,-1.0586,-1.0586,-0.7906,-0.8331,-0.867,-0.8894,-0.9122,-0.9501,-0.9846,-1.011,-1.0293,-1.0438,-1.0625,-1.085,-1.1068,-1.1223,-1.1409,-1.1595,-1.1787,-1.1855,-1.204,-1.2268,-1.2298,-1.2184,-1.1984,-1.171,-1.1303,-1.0914,-1.0687,-1.0586,-1.0586,-1.0586,-1.053,-1.0434,-1.0403,-1.0333,-1.0206,-1.0142,-1.011,-1.0079,-1.0021,-1.0021,-1.0021,-0.9989,-1.0021,-1.0021,-1.0021,-0.9989,-0.9958,-1.0053,-1.0047,-0.9989,-1.0021,-1.0021,-1.0008,-1.0097,-1.0204,-1.0313,-1.0454,-1.065,-1.0689,-1.0813,-1.0925,-1.0887,-1.0812,-1.0775,-1.0775,-1.0743,-1.0669,-1.07,-1.07,-1.07,-1.0706,-1.07,-1.085,-1.126,-1.1298,-1.1217,-1.1064,-1.0617,-1.0153,-0.9821,-0.97,-0.9621,-0.9592,-0.9568,-0.9644,-0.9644,-0.9638,-0.9638,-0.9638,-0.967,-0.974,-0.9836,-0.983,-0.9824,-0.9824,-0.9792,-0.9919,-1.011,-1.0174,-1.0308,-1.0308,-1.0308,-1.0371,-1.0403,-1.0491,-1.0523,-1.0555,-1.0555,-1.0555,-1.0586,-1.0586,-1.0586,-1.0586,-1.0586,-1.0586,-0.7638,-0.791,-0.8327,-0.8546,-0.8742,-0.9127,-0.9425,-0.9695,-0.9954,-1.0137,-1.0331,-1.055,-1.0812,-1.0999,-1.1111,-1.1335,-1.1558,-1.1595,-1.1787,-1.202,-1.2062,-1.2001,-1.1817,-1.1374,-1.0936,-1.0546,-1.0403,-1.0371,-1.0403,-1.0371,-1.0301,-1.0206,-1.018,-1.0142,-1.0015,-0.9951,-0.9926,-0.9894,-0.9824,-0.9722,-0.9722,-0.9658,-0.9626,-0.9632,-0.9626,-0.96,-0.951,-0.96,-0.9664,-0.9722,-0.9696,-0.9626,-0.9626,-0.9638,-0.9673,-0.9775,-0.9985,-1.0137,-1.0165,-1.0386,-1.0513,-1.0475,-1.0438,-1.0406,-1.0368,-1.0331,-1.0293,-1.0293,-1.0255,-1.0293,-1.0293,-1.0293,-1.0406,-1.0631,-1.0781,-1.073,-1.045,-1.0089,-0.9662,-0.9397,-0.9244,-0.9195,-0.921,-0.9242,-0.9318,-0.9318,-0.9318,-0.9285,-0.9318,-0.9318,-0.9414,-0.9478,-0.9446,-0.9472,-0.9562,-0.9594,-0.96,-0.9728,-0.9856,-1.0015,-1.0117,-1.0149,-1.0174,-1.0206,-1.0269,-1.0269,-1.0269,-1.0396,-1.046,-1.0523,-1.0523,-1.0586,-1.0586,-1.0586,-1.0586,-0.7446,-0.7522,-0.7906,-0.825,-0.8551,-0.8661,-0.8937,-0.9279,-0.9657,-0.9841,-0.9954,-1.0293,-1.0556,-1.07,-1.0781,-1.1037,-1.1285,-1.1279,-1.1415,-1.156,-1.1556,-1.1503,-1.1552,-1.0967,-1.0529,-1.0276,-1.0117,-1.0053,-1.0085,-1.0053,-1.0021,-1.0015,-0.9983,-0.9951,-0.9888,-0.983,-0.9702,-0.967,-0.9434,-0.9306,-0.9306,-0.9151,-0.9049,-0.9055,-0.9055,-0.9055,-0.9055,-0.9017,-0.9081,-0.921,-0.9177,-0.9119,-0.9055,-0.899,-0.906,-0.9074,-0.9496,-0.965,-0.9808,-1.0022,-1.0291,-1.0282,-1.018,-1.0143,-1.0067,-0.996,-0.9884,-0.9846,-0.9884,-0.9846,-0.9841,-0.9879,-0.9884,-0.9916,-1.0173,-1.0169,-0.9844,-0.9706,-0.9349,-0.9034,-0.8958,-0.8952,-0.892,-0.8952,-0.9022,-0.9017,-0.9017,-0.9055,-0.9055,-0.9087,-0.9022,-0.9055,-0.9151,-0.9183,-0.9306,-0.9306,-0.9312,-0.9376,-0.9504,-0.9664,-0.9856,-0.9919,-1.0047,-1.0047,-1.0015,-1.0015,-1.0079,-1.0206,-1.0301,-1.0301,-1.0396,-1.0523,-1.0555,-1.0555,-1.0586,-0.6795,-0.7096,-0.7484,-0.7714,-0.7868,-0.8284,-0.8632,-0.8894,-0.9117,-0.9349,-0.9506,-0.9879,-1.0105,-1.018,-1.0475,-1.0743,-1.0877,-1.076,-1.0858,-1.1073,-1.0754,-1.0702,-1.076,-1.0438,-1.0162,-1.0085,-0.9983,-1.0021,-1.0021,-0.9951,-0.9926,-0.9868,-0.969,-0.9588,-0.9466,-0.9312,-0.921,-0.921,-0.9151,-0.9049,-0.9049,-0.9017,-0.899,-0.899,-0.8899,-0.8829,-0.8829,-0.8565,-0.8624,-0.9049,-0.9022,-0.899,-0.8958,-0.8861,-0.8797,-0.8852,-0.8886,-0.901,-0.9157,-0.9347,-0.9469,-0.9599,-0.9576,-0.9511,-0.9549,-0.9468,-0.9473,-0.9473,-0.9473,-0.9435,-0.943,-0.9435,-0.9473,-0.9453,-0.9537,-0.9503,-0.927,-0.8907,-0.8588,-0.8337,-0.8376,-0.8431,-0.8495,-0.8662,-0.8802,-0.8829,-0.8861,-0.8926,-0.8861,-0.8894,-0.8823,-0.8952,-0.9017,-0.9022,-0.9022,-0.9022,-0.9055,-0.9087,-0.9145,-0.9242,-0.9472,-0.9664,-0.9824,-0.9983,-0.9888,-0.9881,-0.9951,-1.0047,-1.0079,-1.0117,-1.0244,-1.0371,-1.0428,-1.046,-1.053,-0.6451,-0.6676,-0.7096,-0.7365,-0.7522,-0.7863,-0.8174,-0.8475,-0.8737,-0.8927,-0.9127,-0.9473,-0.9733,-0.9911,-1.0081,-1.0296,-1.0477,-1.0288,-1.0284,-1.0355,-1.0071,-1.0064,-1.0158,-1.0008,-0.9926,-0.9894,-0.976,-0.9728,-0.9696,-0.9632,-0.9536,-0.944,-0.937,-0.9236,-0.9177,-0.9022,-0.8926,-0.8894,-0.8759,-0.8657,-0.8657,-0.8598,-0.8565,-0.8571,-0.8506,-0.8474,-0.8409,-0.8144,-0.8204,-0.856,-0.8592,-0.8598,-0.8565,-0.8506,-0.8447,-0.8457,-0.8461,-0.8523,-0.8602,-0.8719,-0.8886,-0.8913,-0.8911,-0.8932,-0.8903,-0.8865,-0.8789,-0.8789,-0.8789,-0.8789,-0.8789,-0.8789,-0.8742,-0.8637,-0.8612,-0.8612,-0.8805,-0.856,-0.8263,-0.8091,-0.8047,-0.8112,-0.8107,-0.8306,-0.8409,-0.8479,-0.8474,-0.8506,-0.8501,-0.8565,-0.8598,-0.863,-0.863,-0.8565,-0.8533,-0.8533,-0.8571,-0.8635,-0.8727,-0.8823,-0.9087,-0.9312,-0.944,-0.9594,-0.9658,-0.9722,-0.9728,-0.9792,-0.9926,-0.9989,-1.0117,-1.018,-1.0238,-1.0301,-1.0403,-0.6219,-0.63,-0.6676,-0.7057,-0.7365,-0.7446,-0.7714,-0.8059,-0.8399,-0.8589,-0.8699,-0.9031,-0.9326,-0.9718,-0.9521,-0.9721,-1.003,-0.9786,-0.973,-0.9691,-0.9517,-0.9557,-0.9783,-0.9721,-0.9638,-0.9638,-0.9408,-0.9306,-0.9274,-0.9119,-0.9017,-0.9022,-0.8985,-0.892,-0.8823,-0.8732,-0.8711,-0.8603,-0.8339,-0.8172,-0.8139,-0.8079,-0.8014,-0.8019,-0.7954,-0.7889,-0.7824,-0.7731,-0.7759,-0.8042,-0.7982,-0.7982,-0.7949,-0.7949,-0.7922,-0.7909,-0.7978,-0.8029,-0.8093,-0.8281,-0.8435,-0.8346,-0.8328,-0.8333,-0.832,-0.8219,-0.8136,-0.8102,-0.8063,-0.808,-0.8045,-0.802,-0.7994,-0.7868,-0.7641,-0.7863,-0.8299,-0.8314,-0.8099,-0.7924,-0.7857,-0.7889,-0.7889,-0.7884,-0.7917,-0.7922,-0.7982,-0.8079,-0.8047,-0.8079,-0.8047,-0.8047,-0.8014,-0.7982,-0.7982,-0.8019,-0.8084,-0.8149,-0.8274,-0.8404,-0.87,-0.8894,-0.8985,-0.9113,-0.9306,-0.937,-0.9338,-0.9472,-0.9638,-0.9766,-0.9824,-0.9888,-0.9983,-1.0079,-1.018,-0.5553,-0.6018,-0.6293,-0.6567,-0.6834,-0.7142,-0.7407,-0.7633,-0.7902,-0.8067,-0.8248,-0.8501,-0.8657,-0.8749,-0.8872,-0.9044,-0.926,-0.9153,-0.912,-0.9144,-0.9142,-0.9118,-0.9215,-0.9183,-0.9183,-0.9177,-0.9113,-0.9049,-0.9017,-0.8952,-0.892,-0.8829,-0.8641,-0.8538,-0.8371,-0.8247,-0.8187,-0.8149,-0.7922,-0.7792,-0.7759,-0.7657,-0.7591,-0.7559,-0.7466,-0.7302,-0.7176,-0.711,-0.7106,-0.7237,-0.7428,-0.7521,-0.7559,-0.7461,-0.74,-0.7344,-0.7273,-0.7307,-0.7453,-0.7562,-0.7675,-0.7735,-0.7791,-0.7869,-0.7696,-0.7769,-0.7761,-0.7672,-0.7633,-0.7542,-0.748,-0.7459,-0.7437,-0.7345,-0.7219,-0.7203,-0.7468,-0.7362,-0.7268,-0.7189,-0.7171,-0.7138,-0.7176,-0.7335,-0.74,-0.74,-0.7493,-0.7591,-0.7591,-0.7591,-0.7596,-0.7596,-0.7596,-0.7596,-0.7596,-0.7629,-0.7661,-0.7694,-0.7792,-0.7917,-0.8214,-0.8441,-0.8533,-0.8759,-0.9043,-0.9049,-0.9022,-0.9113,-0.9247,-0.9376,-0.953,-0.9626,-0.976,-0.9856,-0.9958,-0.5198,-0.5512,-0.5831,-0.6141,-0.6437,-0.6603,-0.6832,-0.7078,-0.7306,-0.75,-0.7627,-0.7897,-0.8079,-0.8168,-0.8258,-0.8394,-0.8516,-0.8505,-0.8504,-0.8528,-0.8538,-0.8533,-0.8533,-0.8571,-0.8635,-0.8829,-0.8689,-0.8624,-0.8592,-0.8565,-0.8468,-0.8409,-0.822,-0.809,-0.7949,-0.7759,-0.7624,-0.7596,-0.7438,-0.7335,-0.7307,-0.7199,-0.7068,-0.7003,-0.6876,-0.6778,-0.6679,-0.6613,-0.6581,-0.6613,-0.6708,-0.69,-0.7064,-0.6999,-0.6942,-0.6811,-0.6749,-0.668,-0.6777,-0.6844,-0.6901,-0.6931,-0.7064,-0.7062,-0.7025,-0.7073,-0.7068,-0.7005,-0.6957,-0.6958,-0.6883,-0.6872,-0.6857,-0.6792,-0.668,-0.6625,-0.6667,-0.6772,-0.6913,-0.6913,-0.6946,-0.6946,-0.6942,-0.6942,-0.7007,-0.7073,-0.7106,-0.7204,-0.7204,-0.7204,-0.7204,-0.7204,-0.7204,-0.7204,-0.7241,-0.7274,-0.7307,-0.7307,-0.7302,-0.7433,-0.7629,-0.7857,-0.8079,-0.8339,-0.863,-0.8694,-0.87,-0.8797,-0.892,-0.9113,-0.9274,-0.937,-0.9466,-0.9536,-0.9632,-0.4877,-0.4977,-0.5295,-0.5752,-0.6096,-0.6047,-0.6182,-0.6493,-0.6769,-0.6929,-0.6984,-0.7323,-0.7548,-0.7644,-0.7653,-0.7769,-0.7918,-0.7915,-0.7894,-0.7954,-0.7982,-0.7982,-0.7982,-0.7982,-0.8084,-0.8479,-0.8339,-0.8204,-0.8144,-0.8014,-0.7982,-0.7852,-0.7727,-0.7629,-0.7531,-0.7302,-0.7134,-0.7134,-0.6942,-0.6811,-0.6778,-0.6675,-0.6511,-0.6416,-0.6313,-0.628,-0.6214,-0.6148,-0.605,-0.605,-0.5921,-0.605,-0.6309,-0.6539,-0.6511,-0.635,-0.6321,-0.6263,-0.6221,-0.6243,-0.6222,-0.6078,-0.6215,-0.6257,-0.6236,-0.628,-0.6281,-0.627,-0.6237,-0.6219,-0.6204,-0.6158,-0.6117,-0.6038,-0.6032,-0.597,-0.597,-0.6354,-0.6515,-0.6683,-0.6585,-0.6548,-0.6585,-0.6618,-0.6716,-0.6749,-0.6749,-0.6749,-0.6782,-0.6782,-0.6749,-0.6683,-0.6646,-0.6745,-0.6778,-0.6881,-0.6913,-0.6975,-0.6946,-0.7036,-0.7134,-0.7335,-0.7629,-0.7922,-0.8149,-0.8236,-0.8366,-0.8474,-0.8635,-0.8823,-0.8952,-0.9017,-0.9113,-0.9242,-0.9344,-0.4219,-0.4593,-0.4822,-0.5144,-0.5487,-0.5706,-0.5837,-0.5981,-0.6337,-0.6484,-0.6521,-0.6755,-0.6893,-0.6954,-0.7015,-0.7164,-0.7362,-0.7382,-0.7461,-0.7559,-0.7559,-0.7559,-0.7521,-0.7428,-0.7428,-0.7531,-0.7722,-0.7852,-0.7792,-0.7759,-0.7563,-0.7368,-0.7269,-0.7204,-0.704,-0.6876,-0.6741,-0.6671,-0.6478,-0.6313,-0.6247,-0.6115,-0.5984,-0.5925,-0.5785,-0.5749,-0.5719,-0.5624,-0.5524,-0.5524,-0.5491,-0.5425,-0.5484,-0.5782,-0.5921,-0.5925,-0.5925,-0.5818,-0.5727,-0.5704,-0.5663,-0.5594,-0.5668,-0.5641,-0.5574,-0.5612,-0.5632,-0.5548,-0.5474,-0.5458,-0.531,-0.537,-0.5336,-0.5309,-0.5339,-0.5366,-0.5472,-0.5627,-0.5822,-0.602,-0.6053,-0.6119,-0.6185,-0.6251,-0.6288,-0.6321,-0.6321,-0.6288,-0.6288,-0.6218,-0.6152,-0.6123,-0.6057,-0.6152,-0.628,-0.6449,-0.6552,-0.6679,-0.6708,-0.6719,-0.6822,-0.6942,-0.7167,-0.7325,-0.7597,-0.7792,-0.7936,-0.8066,-0.827,-0.8425,-0.8554,-0.8662,-0.8829,-0.899,-0.9049,-0.3711,-0.4036,-0.4443,-0.4742,-0.5009,-0.5151,-0.5335,-0.5569,-0.5783,-0.5917,-0.6032,-0.6173,-0.6273,-0.6354,-0.6568,-0.6782,-0.6975,-0.704,-0.7106,-0.7171,-0.7171,-0.7134,-0.7097,-0.697,-0.6872,-0.6872,-0.7073,-0.7269,-0.7274,-0.7199,-0.7073,-0.6942,-0.6773,-0.6609,-0.6511,-0.635,-0.6247,-0.6112,-0.598,-0.5851,-0.5785,-0.5587,-0.5455,-0.5322,-0.5259,-0.519,-0.5156,-0.5057,-0.4994,-0.4957,-0.4891,-0.4791,-0.4788,-0.4921,-0.5156,-0.5292,-0.5329,-0.5292,-0.519,-0.519,-0.5163,-0.5106,-0.5167,-0.5156,-0.507,-0.5046,-0.4998,-0.4853,-0.4775,-0.4752,-0.4716,-0.4719,-0.4748,-0.4809,-0.4821,-0.4924,-0.503,-0.5096,-0.5196,-0.5359,-0.5587,-0.5719,-0.5818,-0.5855,-0.5888,-0.5892,-0.5859,-0.5826,-0.5826,-0.5789,-0.5723,-0.5822,-0.5826,-0.5888,-0.5984,-0.6086,-0.6185,-0.6317,-0.6375,-0.642,-0.6412,-0.6427,-0.6464,-0.6545,-0.6854,-0.718,-0.7368,-0.7466,-0.7739,-0.8,-0.8153,-0.8297,-0.856,-0.8738,-0.8797,-0.3194,-0.3427,-0.3968,-0.4313,-0.4496,-0.4587,-0.4818,-0.5105,-0.5218,-0.5376,-0.5517,-0.5693,-0.583,-0.5925,-0.6156,-0.6453,-0.6683,-0.6683,-0.6683,-0.6651,-0.6651,-0.6613,-0.6581,-0.6511,-0.6449,-0.628,-0.628,-0.6416,-0.6679,-0.6675,-0.6572,-0.6408,-0.6178,-0.605,-0.6017,-0.5818,-0.5653,-0.555,-0.5451,-0.5392,-0.5226,-0.5057,-0.4858,-0.4728,-0.4664,-0.4661,-0.4628,-0.4525,-0.4459,-0.4425,-0.4323,-0.422,-0.422,-0.422,-0.4323,-0.4528,-0.4664,-0.4661,-0.4628,-0.4628,-0.4628,-0.4564,-0.4595,-0.4597,-0.457,-0.4487,-0.4378,-0.4223,-0.4233,-0.4244,-0.4241,-0.4225,-0.4292,-0.4361,-0.4425,-0.4492,-0.4528,-0.4561,-0.4561,-0.4758,-0.5087,-0.5253,-0.5322,-0.5392,-0.5425,-0.5428,-0.5395,-0.5425,-0.5392,-0.5458,-0.5458,-0.5624,-0.569,-0.5723,-0.5789,-0.5818,-0.5885,-0.5951,-0.5977,-0.6012,-0.5914,-0.5852,-0.5898,-0.5943,-0.6107,-0.6428,-0.664,-0.6941,-0.7189,-0.7435,-0.7678,-0.7903,-0.8143,-0.835,-0.8441,-0.2657,-0.2917,-0.3342,-0.3677,-0.3944,-0.4198,-0.4358,-0.449,-0.4773,-0.496,-0.519,-0.5355,-0.5521,-0.565,-0.5818,-0.5954,-0.602,-0.6053,-0.609,-0.6086,-0.6057,-0.6057,-0.6024,-0.5991,-0.5885,-0.5716,-0.5683,-0.5914,-0.6115,-0.6181,-0.6046,-0.5815,-0.5716,-0.562,-0.5455,-0.5286,-0.519,-0.512,-0.4957,-0.4827,-0.4694,-0.4492,-0.4389,-0.4289,-0.4192,-0.4095,-0.4061,-0.3961,-0.3892,-0.3892,-0.3859,-0.3859,-0.3859,-0.3859,-0.3859,-0.3992,-0.4123,-0.4289,-0.4128,-0.4095,-0.4061,-0.3995,-0.3959,-0.3925,-0.3925,-0.3925,-0.3856,-0.3859,-0.3825,-0.3823,-0.3789,-0.3823,-0.3859,-0.3892,-0.3889,-0.3925,-0.3959,-0.4095,-0.4095,-0.4128,-0.4425,-0.4625,-0.4758,-0.4861,-0.493,-0.493,-0.4964,-0.4964,-0.5027,-0.5126,-0.516,-0.5292,-0.5392,-0.5428,-0.5425,-0.5491,-0.5521,-0.5554,-0.5589,-0.5588,-0.5492,-0.5404,-0.5382,-0.548,-0.5595,-0.578,-0.6096,-0.6381,-0.6646,-0.6894,-0.713,-0.7425,-0.7725,-0.7895,-0.8019,-0.1972,-0.25,-0.2841,-0.3195,-0.3462,-0.373,-0.4033,-0.43,-0.4467,-0.4664,-0.4894,-0.5027,-0.516,-0.5319,-0.5422,-0.5521,-0.5594,-0.5627,-0.5624,-0.5591,-0.5591,-0.5561,-0.5455,-0.5455,-0.5355,-0.519,-0.5087,-0.509,-0.5322,-0.5484,-0.5451,-0.5319,-0.512,-0.5024,-0.4894,-0.4722,-0.4589,-0.4459,-0.4292,-0.4161,-0.4028,-0.3894,-0.3792,-0.3692,-0.3594,-0.356,-0.3527,-0.3426,-0.3357,-0.3324,-0.3257,-0.3188,-0.3188,-0.3188,-0.3155,-0.3188,-0.3286,-0.3489,-0.3663,-0.3594,-0.3527,-0.3493,-0.3458,-0.3424,-0.3391,-0.3357,-0.3288,-0.3188,-0.3188,-0.3188,-0.3222,-0.3188,-0.3257,-0.3291,-0.3389,-0.3424,-0.3491,-0.3594,-0.3696,-0.3696,-0.3761,-0.3959,-0.4192,-0.4292,-0.4459,-0.4661,-0.4694,-0.4728,-0.4794,-0.4894,-0.4927,-0.4927,-0.4997,-0.5063,-0.5063,-0.5093,-0.5087,-0.513,-0.5158,-0.5153,-0.5054,-0.5001,-0.4979,-0.5012,-0.5142,-0.534,-0.5596,-0.5893,-0.6195,-0.6393,-0.6598,-0.6882,-0.7167,-0.7278,-0.7448,-0.1279,-0.1951,-0.2388,-0.2755,-0.3027,-0.3328,-0.3632,-0.4,-0.4131,-0.4331,-0.4597,-0.4694,-0.4861,-0.499,-0.5057,-0.5126,-0.5229,-0.5229,-0.5263,-0.5226,-0.5193,-0.509,-0.499,-0.4954,-0.4824,-0.4631,-0.4525,-0.4461,-0.4425,-0.4525,-0.4691,-0.4824,-0.4592,-0.4428,-0.4292,-0.4159,-0.4025,-0.3825,-0.3692,-0.3527,-0.3429,-0.3297,-0.3127,-0.3027,-0.296,-0.296,-0.2924,-0.2857,-0.2824,-0.279,-0.2688,-0.2654,-0.2621,-0.2654,-0.2654,-0.2621,-0.2654,-0.2688,-0.2958,-0.3025,-0.3058,-0.3058,-0.3058,-0.3056,-0.2956,-0.2922,-0.2889,-0.2787,-0.2787,-0.2753,-0.2686,-0.2753,-0.2854,-0.2956,-0.2989,-0.3023,-0.3058,-0.3192,-0.3226,-0.3224,-0.3257,-0.3355,-0.3556,-0.372,-0.3956,-0.4289,-0.4425,-0.4459,-0.4528,-0.4595,-0.4664,-0.4631,-0.4797,-0.4831,-0.4864,-0.4827,-0.4788,-0.4724,-0.4756,-0.4728,-0.4652,-0.4605,-0.4587,-0.4633,-0.4715,-0.4882,-0.5136,-0.5458,-0.5755,-0.59,-0.6113,-0.6357,-0.6593,-0.6701,-0.6899,-0.0505,-0.1244,-0.1918,-0.2322,-0.2491,-0.2993,-0.3228,-0.3362,-0.3692,-0.3894,-0.4131,-0.4428,-0.4661,-0.4761,-0.4728,-0.4761,-0.4831,-0.4864,-0.4794,-0.4761,-0.4728,-0.4625,-0.4525,-0.4392,-0.4259,-0.4095,-0.3992,-0.3828,-0.3665,-0.3663,-0.3863,-0.4028,-0.3961,-0.3794,-0.3663,-0.3563,-0.3426,-0.3259,-0.3092,-0.3025,-0.2893,-0.2725,-0.249,-0.2456,-0.2356,-0.2288,-0.2255,-0.2253,-0.2218,-0.222,-0.2185,-0.2151,-0.2118,-0.2151,-0.2118,-0.2118,-0.2017,-0.2051,-0.2151,-0.2453,-0.2686,-0.272,-0.2686,-0.2619,-0.2586,-0.2653,-0.2686,-0.2586,-0.2485,-0.2552,-0.2586,-0.2686,-0.2552,-0.2587,-0.2621,-0.2654,-0.269,-0.2755,-0.2788,-0.2753,-0.2854,-0.2987,-0.3021,-0.322,-0.3489,-0.3823,-0.4092,-0.4159,-0.4161,-0.4228,-0.4298,-0.4398,-0.4597,-0.4694,-0.4761,-0.4677,-0.4465,-0.44,-0.4421,-0.4391,-0.4319,-0.4254,-0.4266,-0.433,-0.4439,-0.455,-0.4691,-0.4992,-0.525,-0.5405,-0.559,-0.5898,-0.618,-0.635,-0.652,0.0,-0.0471,-0.0942,-0.1513,-0.2119,-0.2456,-0.269,-0.2922,-0.319,-0.346,-0.3696,-0.3995,-0.4125,-0.4195,-0.4192,-0.4192,-0.4161,-0.4195,-0.4195,-0.4159,-0.4125,-0.4059,-0.3928,-0.3861,-0.3727,-0.3527,-0.3424,-0.3357,-0.3226,-0.296,-0.2893,-0.3058,-0.3224,-0.3293,-0.3161,-0.2926,-0.2725,-0.2624,-0.2522,-0.2455,-0.2287,-0.222,-0.2052,-0.1884,-0.1715,-0.1648,-0.1614,-0.1547,-0.1547,-0.1547,-0.1547,-0.1513,-0.1513,-0.1513,-0.1513,-0.1547,-0.1446,-0.1412,-0.148,-0.1782,-0.2016,-0.2017,-0.2017,-0.2049,-0.2083,-0.2049,-0.2049,-0.2016,-0.2084,-0.2116,-0.2016,-0.2017,-0.2017,-0.2151,-0.2252,-0.2287,-0.2354,-0.2386,-0.242,-0.242,-0.2586,-0.2753,-0.2753,-0.2753,-0.3054,-0.3357,-0.3591,-0.3792,-0.3794,-0.3828,-0.3897,-0.3997,-0.4195,-0.4295,-0.4325,-0.4205,-0.411,-0.4095,-0.4075,-0.4022,-0.3972,-0.409,-0.4095,-0.4138,-0.4135,-0.4273,-0.4408,-0.4601,-0.4833,-0.5073,-0.5254,-0.5457,-0.5721,-0.599,-0.6158,0.0471,0.0101,-0.0236,-0.0841,-0.1648,-0.1918,-0.2185,-0.2487,-0.2721,-0.3025,-0.3362,-0.3493,-0.3591,-0.3591,-0.3625,-0.3625,-0.3627,-0.3658,-0.3627,-0.3625,-0.3591,-0.3493,-0.336,-0.3228,-0.306,-0.2958,-0.2824,-0.2755,-0.2622,-0.2322,-0.2186,-0.2186,-0.2285,-0.242,-0.2555,-0.2287,-0.2018,-0.1884,-0.1849,-0.1816,-0.1648,-0.158,-0.1513,-0.1345,-0.1177,-0.1076,-0.1043,-0.0976,-0.0875,-0.0841,-0.0807,-0.0773,-0.0773,-0.0773,-0.0807,-0.0841,-0.0841,-0.0875,-0.0976,-0.1244,-0.148,-0.158,-0.1547,-0.1579,-0.158,-0.158,-0.1714,-0.168,-0.1648,-0.158,-0.158,-0.1681,-0.1748,-0.1883,-0.1883,-0.1916,-0.1983,-0.2017,-0.2052,-0.2085,-0.2252,-0.2318,-0.2453,-0.2453,-0.2688,-0.2956,-0.3088,-0.3288,-0.3322,-0.3391,-0.3527,-0.3594,-0.3727,-0.3792,-0.3823,-0.3818,-0.3803,-0.3732,-0.3716,-0.3666,-0.3657,-0.3784,-0.3888,-0.3888,-0.3913,-0.3996,-0.4132,-0.4325,-0.4546,-0.4822,-0.5002,-0.5183,-0.5282,-0.5518,-0.5706,0.0873,0.0437,0.0168,-0.0404,-0.1076,-0.1479,-0.1715,-0.195,-0.2288,-0.2624,-0.2924,-0.2989,-0.309,-0.3159,-0.3159,-0.3125,-0.3159,-0.3159,-0.3159,-0.3125,-0.3058,-0.2991,-0.2857,-0.2658,-0.2423,-0.2389,-0.2253,-0.2084,-0.1951,-0.1681,-0.1512,-0.1344,-0.1344,-0.1479,-0.1849,-0.1512,-0.1244,-0.1143,-0.1143,-0.1109,-0.1042,-0.0941,-0.0873,-0.0773,-0.0606,-0.0505,-0.0505,-0.0404,-0.0337,-0.0303,-0.0202,-0.0134,-0.0134,-0.0101,-0.0168,-0.0303,-0.0303,-0.0371,-0.0506,-0.0875,-0.1043,-0.1177,-0.1177,-0.1278,-0.148,-0.1513,-0.1446,-0.1312,-0.1446,-0.1514,-0.1547,-0.1547,-0.158,-0.1614,-0.1614,-0.1648,-0.1715,-0.1782,-0.1816,-0.1849,-0.1748,-0.1748,-0.1951,-0.2153,-0.2388,-0.2554,-0.2653,-0.2753,-0.2887,-0.2987,-0.3157,-0.3224,-0.3324,-0.3357,-0.344,-0.3522,-0.3502,-0.3437,-0.3363,-0.3314,-0.3336,-0.3434,-0.3524,-0.3583,-0.3635,-0.3688,-0.3855,-0.4021,-0.427,-0.4519,-0.4763,-0.4936,-0.4963,-0.5065,-0.5286,0.1513,0.1008,0.0807,0.0437,-0.0101,-0.0773,-0.1176,-0.1445,-0.1849,-0.2153,-0.2253,-0.2388,-0.249,-0.2523,-0.2557,-0.2555,-0.2522,-0.2557,-0.2523,-0.2522,-0.2455,-0.2354,-0.222,-0.2017,-0.1782,-0.1648,-0.1547,-0.1445,-0.1378,-0.1042,-0.0873,-0.0739,-0.0538,-0.0706,-0.0974,-0.0908,-0.0706,-0.0572,-0.0471,-0.037,-0.037,-0.0302,-0.0269,-0.0235,-0.0067,0.0034,0.0034,0.0169,0.0202,0.0236,0.0337,0.037,0.037,0.037,0.0303,0.0236,0.0236,0.0236,0.0169,-0.0034,-0.0269,-0.0573,-0.0774,-0.0808,-0.0876,-0.0876,-0.0876,-0.0943,-0.1078,-0.1078,-0.1044,-0.1211,-0.1278,-0.1378,-0.1412,-0.1512,-0.158,-0.1614,-0.1648,-0.1681,-0.1614,-0.1614,-0.1748,-0.1849,-0.2051,-0.2218,-0.2318,-0.2552,-0.2686,-0.2753,-0.2854,-0.2854,-0.2921,-0.2954,-0.3027,-0.3101,-0.3151,-0.307,-0.3048,-0.2989,-0.303,-0.3107,-0.3188,-0.3272,-0.3327,-0.3411,-0.3605,-0.3799,-0.3996,-0.4242,-0.4432,-0.4653,-0.4794,-0.4849,-0.4978,0.2085,0.158,0.1378,0.1076,0.0605,-0.0168,-0.0672,-0.1008,-0.1378,-0.1547,-0.1648,-0.1816,-0.1884,-0.1918,-0.1951,-0.1918,-0.1884,-0.1884,-0.1849,-0.1816,-0.1816,-0.1748,-0.158,-0.1344,-0.1143,-0.0974,-0.084,-0.0706,-0.0672,-0.037,-0.0168,0.0034,0.0235,0.0168,-0.0067,-0.0101,-0.0101,0.0067,0.0202,0.0302,0.0336,0.0403,0.037,0.0403,0.0505,0.0572,0.0606,0.0707,0.0775,0.0808,0.0842,0.0876,0.0876,0.0876,0.0842,0.0808,0.074,0.0707,0.0673,0.0673,0.037,0.0034,-0.0135,-0.0303,-0.0371,-0.0506,-0.0506,-0.0573,-0.0607,-0.0674,-0.0708,-0.0875,-0.0942,-0.1043,-0.1144,-0.1212,-0.1279,-0.1312,-0.1379,-0.1412,-0.1445,-0.1479,-0.1513,-0.158,-0.1715,-0.1883,-0.2016,-0.2217,-0.242,-0.2452,-0.2519,-0.2554,-0.2577,-0.2671,-0.2692,-0.2705,-0.2733,-0.2705,-0.2695,-0.2641,-0.2687,-0.2715,-0.2852,-0.2991,-0.3074,-0.3186,-0.3355,-0.3549,-0.366,-0.383,-0.3996,-0.4242,-0.4515,-0.4625,-0.468,0.252,0.2188,0.1782,0.1445,0.1042,0.0404,-0.0236,-0.0739,-0.0773,-0.0908,-0.1076,-0.121,-0.1278,-0.1312,-0.148,-0.1446,-0.1312,-0.1278,-0.1211,-0.1109,-0.1076,-0.1042,-0.0908,-0.0672,-0.0538,-0.037,-0.0202,-0.0034,0.0067,0.0303,0.0572,0.0807,0.1008,0.1008,0.0908,0.074,0.064,0.0706,0.084,0.0941,0.1041,0.1109,0.1143,0.1143,0.1176,0.1177,0.1211,0.1278,0.1345,0.1379,0.148,0.1547,0.1614,0.1614,0.1479,0.1344,0.121,0.1211,0.1144,0.1144,0.1042,0.074,0.0539,0.0202,-0.0101,-0.0169,-0.0169,-0.0236,-0.0337,-0.0405,-0.0506,-0.0506,-0.0539,-0.064,-0.0741,-0.0809,-0.0876,-0.0943,-0.1043,-0.111,-0.1176,-0.121,-0.1311,-0.1378,-0.1446,-0.1512,-0.1647,-0.1747,-0.1915,-0.2017,-0.2084,-0.2253,-0.2309,-0.2389,-0.2369,-0.2302,-0.2332,-0.2344,-0.2295,-0.227,-0.2296,-0.2408,-0.2547,-0.2685,-0.2796,-0.2935,-0.3105,-0.3188,-0.3244,-0.3413,-0.3608,-0.3858,-0.4156,-0.427,-0.4353,0.2956,0.2723,0.2322,0.2052,0.1817,0.1211,0.0572,0.0,-0.0303,-0.0472,-0.0539,-0.0674,-0.0707,-0.0741,-0.0809,-0.0775,-0.0741,-0.064,-0.0573,-0.0505,-0.037,-0.0336,-0.0235,-0.0034,0.0101,0.0269,0.0437,0.0672,0.084,0.1043,0.1312,0.158,0.1748,0.1816,0.1817,0.1751,0.1514,0.1345,0.1479,0.1547,0.1681,0.1782,0.1816,0.1816,0.1849,0.1849,0.1884,0.1918,0.1951,0.1951,0.1985,0.2052,0.2052,0.2018,0.1951,0.1951,0.1884,0.1816,0.1681,0.1648,0.158,0.1412,0.1244,0.0875,0.0506,0.027,0.027,0.0135,0.0034,0.0,-0.0135,-0.0202,-0.027,-0.0337,-0.0438,-0.054,-0.0573,-0.0674,-0.0775,-0.0875,-0.0942,-0.1043,-0.1144,-0.1176,-0.1211,-0.1244,-0.1277,-0.1378,-0.1479,-0.1614,-0.1782,-0.1951,-0.1975,-0.2058,-0.1909,-0.1824,-0.1923,-0.1956,-0.1921,-0.1962,-0.21,-0.2184,-0.2268,-0.2408,-0.2545,-0.2659,-0.28,-0.2854,-0.291,-0.3077,-0.3272,-0.3522,-0.3713,-0.3827,-0.3968,0.3529,0.3257,0.2857,0.2557,0.2221,0.1748,0.1279,0.0875,0.037,0.0101,0.0,-0.0135,-0.0169,-0.0202,-0.0269,-0.0269,-0.0169,-0.0101,0.0,0.0168,0.0269,0.037,0.0471,0.0605,0.0774,0.0941,0.1143,0.1344,0.1547,0.1782,0.2018,0.2218,0.242,0.2522,0.2555,0.2555,0.2421,0.2185,0.2118,0.2153,0.2253,0.2354,0.2354,0.2421,0.2455,0.249,0.2523,0.2557,0.2557,0.2522,0.2522,0.2488,0.2453,0.2386,0.2386,0.2386,0.2353,0.2319,0.2251,0.2217,0.2084,0.1985,0.1884,0.1615,0.1245,0.0942,0.0774,0.0606,0.0505,0.0438,0.027,0.0101,0.0,-0.0067,-0.0169,-0.027,-0.0337,-0.0438,-0.0539,-0.064,-0.0775,-0.0875,-0.0942,-0.0975,-0.1043,-0.1109,-0.1176,-0.121,-0.1277,-0.1378,-0.1547,-0.1715,-0.1706,-0.1693,-0.1549,-0.1503,-0.1577,-0.1647,-0.1599,-0.1684,-0.185,-0.1933,-0.1989,-0.2128,-0.2296,-0.2408,-0.2493,-0.2547,-0.2603,-0.277,-0.2854,-0.2993,-0.3188,-0.3383,-0.3522,0.4128,0.3792,0.3393,0.2926,0.2456,0.2153,0.1951,0.1884,0.1211,0.0774,0.0573,0.0438,0.0371,0.0337,0.0269,0.0269,0.0337,0.0438,0.0606,0.084,0.0908,0.1008,0.1176,0.1311,0.1446,0.1648,0.1849,0.2017,0.2255,0.2456,0.2622,0.2787,0.2956,0.309,0.3159,0.3226,0.3159,0.309,0.2855,0.279,0.2788,0.2788,0.2787,0.2854,0.2954,0.3056,0.3092,0.3125,0.3192,0.3092,0.3056,0.2954,0.2887,0.2854,0.2854,0.2854,0.2889,0.2822,0.2788,0.2721,0.2587,0.2488,0.2424,0.2188,0.1849,0.148,0.1245,0.1043,0.0942,0.0841,0.0673,0.0573,0.0472,0.0303,0.0168,0.0101,0.0,-0.0135,-0.0337,-0.0438,-0.0573,-0.0674,-0.0741,-0.0775,-0.0808,-0.0942,-0.1008,-0.1008,-0.1043,-0.111,-0.1278,-0.1446,-0.1441,-0.1425,-0.138,-0.1339,-0.1355,-0.1372,-0.1336,-0.1375,-0.1542,-0.1626,-0.1654,-0.1794,-0.1905,-0.2073,-0.2158,-0.2212,-0.2268,-0.238,-0.2464,-0.2493,-0.2661,-0.2854,-0.3077,0.4498,0.4133,0.3632,0.3263,0.3027,0.2824,0.2555,0.2288,0.2119,0.1649,0.1177,0.0975,0.0908,0.0908,0.0874,0.0874,0.0942,0.1043,0.1212,0.1412,0.1513,0.1714,0.1916,0.195,0.2085,0.222,0.2421,0.2688,0.2956,0.3127,0.3261,0.3326,0.3527,0.3658,0.3694,0.3761,0.3794,0.3794,0.3758,0.3525,0.3393,0.3491,0.3525,0.3556,0.3589,0.3589,0.3625,0.3625,0.3658,0.3591,0.3591,0.3589,0.3556,0.3525,0.3522,0.3522,0.3456,0.3357,0.3257,0.3159,0.3023,0.2889,0.2757,0.2621,0.2353,0.1983,0.1715,0.1512,0.1378,0.1244,0.1144,0.1009,0.0908,0.074,0.0572,0.0472,0.0371,0.0135,-0.0101,-0.0236,-0.0371,-0.0438,-0.054,-0.0607,-0.0607,-0.064,-0.064,-0.064,-0.0674,-0.0741,-0.0942,-0.111,-0.1176,-0.1159,-0.1155,-0.1151,-0.1148,-0.1172,-0.1171,-0.1216,-0.1263,-0.1346,-0.143,-0.1402,-0.1486,-0.1682,-0.185,-0.188,-0.1964,-0.2046,-0.2073,-0.213,-0.2186,-0.2352,-0.2575,0.5027,0.4697,0.41,0.373,0.3527,0.3326,0.3092,0.2859,0.2725,0.2453,0.2049,0.1748,0.158,0.158,0.158,0.158,0.1614,0.1648,0.1817,0.1985,0.2151,0.2353,0.2487,0.2622,0.2758,0.2893,0.3159,0.3424,0.3656,0.3758,0.3859,0.3961,0.4125,0.4192,0.4225,0.4295,0.4361,0.4361,0.4492,0.4392,0.4095,0.4125,0.4023,0.4023,0.409,0.4123,0.4192,0.4189,0.4192,0.4125,0.4056,0.4023,0.3956,0.3892,0.3861,0.3828,0.3792,0.3758,0.3627,0.356,0.3458,0.3324,0.3257,0.319,0.3025,0.2656,0.2321,0.2119,0.1883,0.1749,0.1547,0.1412,0.1345,0.1177,0.1009,0.0875,0.064,0.0404,0.027,0.0169,0.0034,-0.0101,-0.0202,-0.0405,-0.0438,-0.0539,-0.0506,-0.0472,-0.0472,-0.0438,-0.0606,-0.074,-0.0807,-0.083,-0.0807,-0.0847,-0.0883,-0.0917,-0.0978,-0.1076,-0.1123,-0.1179,-0.1206,-0.1234,-0.129,-0.1402,-0.1515,-0.16,-0.16,-0.1654,-0.171,-0.1738,-0.1822,-0.1849,-0.1961,0.5587,0.5329,0.4697,0.4298,0.4064,0.373,0.3565,0.3498,0.3257,0.309,0.3023,0.2589,0.2423,0.2322,0.2287,0.2322,0.2322,0.2321,0.2421,0.2591,0.2723,0.2956,0.3123,0.3259,0.3429,0.3629,0.3894,0.4123,0.4353,0.442,0.4489,0.4658,0.4728,0.4761,0.4827,0.4894,0.4927,0.4927,0.4994,0.506,0.4891,0.4688,0.4522,0.4522,0.4589,0.4691,0.4725,0.4758,0.4794,0.4691,0.4522,0.4422,0.4356,0.4259,0.4192,0.4161,0.4128,0.4059,0.3995,0.3961,0.3892,0.3859,0.3859,0.3727,0.3529,0.3295,0.296,0.2723,0.2488,0.2186,0.2017,0.1849,0.1748,0.1614,0.1445,0.1244,0.0975,0.0707,0.064,0.0573,0.0405,0.0236,0.0101,-0.0101,-0.0236,-0.0371,-0.0405,-0.0405,-0.0371,-0.0304,-0.0371,-0.0404,-0.0438,-0.0464,-0.0489,-0.0604,-0.0681,-0.0721,-0.0762,-0.0887,-0.0983,-0.0983,-0.101,-0.1122,-0.1178,-0.1234,-0.1262,-0.1318,-0.1318,-0.1346,-0.1458,-0.1514,-0.143,-0.1458,-0.1374,0.5925,0.5395,0.506,0.4758,0.4495,0.4267,0.4064,0.3894,0.3727,0.3658,0.3625,0.3558,0.3291,0.2857,0.2857,0.2891,0.2991,0.2991,0.3127,0.3297,0.3362,0.356,0.3725,0.3859,0.4095,0.4295,0.4492,0.4658,0.4888,0.4954,0.5057,0.5226,0.5263,0.5259,0.5292,0.5359,0.5455,0.5488,0.5557,0.569,0.5591,0.5355,0.5123,0.5156,0.5226,0.5259,0.5259,0.5263,0.5259,0.5193,0.5057,0.4888,0.4791,0.4728,0.4658,0.4628,0.4592,0.4525,0.4492,0.4392,0.4325,0.4195,0.4164,0.3995,0.3828,0.3727,0.3493,0.3424,0.3123,0.2721,0.2487,0.2321,0.2221,0.2018,0.1816,0.1648,0.1412,0.1177,0.0975,0.0841,0.0674,0.0539,0.0438,0.0303,0.0202,0.0101,0.0034,0.0034,-0.0067,-0.0101,-0.0101,-0.0101,-0.0101,-0.0303,-0.0435,-0.0455,-0.0537,-0.0522,-0.0535,-0.0636,-0.0708,-0.073,-0.0785,-0.0869,-0.0954,-0.101,-0.1038,-0.101,-0.1122,-0.115,-0.129,-0.1318,-0.1178,-0.1066,-0.101]}]]